GFSNW_sfc_thetae_000.txt.gz
Theta_e
303 304 306 306 308 310 313 308 297 306 309 294 294 290 294 298 298 302 298 294 293 291 291 289 290 290 294 296 294 290 293 290 284 286 290 287 288 287 288 283 281 280 283 284
301 301 302 304 305 308 304 302 302 305 306 292 291 294 295 297 297 297 297 297 296 297 293 288 290 291 295 296 294 289 292 286 281 282 288 286 284 287 288 288 286 283 280 283
299 300 300 302 302 304 303 300 293 296 298 298 295 293 292 292 298 297 298 297 298 294 291 294 291 291 295 297 295 296 295 287 285 281 284 288 284 285 285 286 282 283 283 285
299 299 299 299 300 302 301 297 294 296 289 291 293 295 293 291 291 297 299 295 295 293 289 290 290 292 293 294 296 294 293 284 285 287 289 288 286 286 287 285 285 282 285 286
300 299 299 298 299 301 296 291 293 294 293 295 293 292 290 290 293 294 293 293 294 294 291 292 290 291 293 292 292 292 293 285 285 283 286 286 284 286 287 287 287 287 287 286
298 299 299 299 299 300 294 297 296 291 288 289 289 289 290 290 293 294 295 295 294 292 294 297 298 298 298 296 293 289 287 285 283 280 285 284 280 285 287 288 290 288 284 290
298 299 299 299 299 299 296 295 291 287 280 284 285 288 289 287 288 287 289 290 289 295 298 296 295 295 294 295 294 296 289 286 286 282 284 275 285 291 290 288 290 292 291 293
298 297 298 298 299 299 295 296 290 286 279 283 283 284 284 285 286 286 287 289 293 295 292 287 285 286 287 289 292 292 294 289 284 280 280 284 286 289 288 286 287 292 291 293
298 298 298 298 299 299 296 294 295 289 282 279 284 281 283 280 279 281 285 291 289 291 288 285 280 278 282 283 284 290 291 291 286 284 279 277 286 291 294 293 282 293 294 293
298 298 298 298 298 298 296 293 296 289 282 284 284 279 279 283 282 280 282 278 280 287 282 280 279 279 286 280 281 283 283 284 282 283 281 283 290 292 291 280 284 294 295 294
298 298 298 298 298 298 295 292 295 289 285 284 286 286 281 281 281 278 279 277 279 280 276 276 277 279 280 279 282 283 282 280 280 282 279 277 289 289 285 288 292 291 290 291
297 297 298 297 297 297 297 289 294 295 286 285 290 289 290 288 287 282 278 277 272 279 276 276 278 273 276 275 272 282 276 277 274 277 278 287 289 285 286 291 286 287 288 289
296 297 297 297 297 297 295 290 292 290 285 284 283 282 288 290 289 290 278 278 282 280 281 278 275 273 276 268 269 272 276 280 277 276 283 281 281 285 287 287 284 285 285 286
296 296 296 296 296 297 296 289 291 290 286 278 278 288 286 290 290 289 287 285 284 283 281 276 271 266 277 272 275 273 274 276 273 273 277 279 282 284 284 283 283 282 284 285
295 296 295 296 296 296 294 292 292 292 285 278 279 280 285 286 287 286 285 284 282 280 278 275 272 274 273 274 275 272 276 274 272 271 278 278 278 280 282 277 276 278 280 280
295 295 295 295 295 295 290 284 290 292 291 281 275 283 280 284 284 283 283 283 282 281 277 276 277 280 276 268 267 275 278 279 280 276 273 274 277 278 277 274 274 276 274 274
295 295 295 295 294 291 285 283 287 294 291 281 276 275 279 283 282 279 281 283 281 280 278 276 277 277 278 273 269 276 278 275 272 273 270 271 272 270 272 272 272 272 271 272
294 294 294 294 294 293 287 291 293 292 286 283 273 273 275 280 274 273 280 278 279 280 277 276 275 276 276 270 275 276 270 269 270 269 269 269 270 270 269 270 269 267 267 268
293 293 293 290 288 284 285 293 294 292 284 277 276 267 264 278 275 277 278 278 272 278 274 274 271 270 267 272 274 269 266 265 265 267 266 267 265 265 265 265 264 263 264 265
293 288 285 279 285 292 291 286 281 281 282 281 275 278 272 276 275 273 273 275 272 264 269 275 268 269 275 268 266 266 266 266 265 261 260 260 260 261 262 261 263 263 262 262
286 281 281 285 291 285 281 276 275 275 269 275 270 273 272 277 271 270 276 270 270 265 264 264 259 259 271 266 264 264 264 263 262 261 261 261 261 260 260 260 260 260 260 259
285 285 286 286 281 274 271 270 271 269 265 268 267 269 271 272 275 270 273 268 268 262 263 261 257 268 262 259 259 260 260 259 257 259 258 259 259 259 259 259 258 258 259 260
287 282 278 277 276 270 269 267 265 261 264 264 264 264 270 272 275 274 271 267 266 264 261 259 263 260 257 256 256 256 257 256 256 256 257 256 257 258 258 257 258 258 258 259
278 275 271 270 268 268 263 262 262 264 267 265 267 266 271 269 270 272 266 268 266 262 259 258 255 253 251 254 255 253 253 253 254 254 254 256 256 256 257 257 258 258 257 259
275 274 266 269 272 267 262 262 262 263 264 266 264 263 271 266 267 270 266 263 262 262 259 252 253 254 253 253 253 252 252 253 253 254 255 255 256 256 256 257 257 258 259 258
274 270 267 259 263 262 261 260 258 262 265 266 265 264 266 264 265 263 259 257 257 257 247 250 253 252 252 252 252 252 252 253 254 254 255 256 256 256 257 257 258 259 259 258
268 261 258 257 256 254 254 255 258 262 260 262 266 265 264 267 266 263 253 253 248 248 250 251 250 251 252 252 252 253 253 254 254 254 255 256 257 257 256 255 257 259 259 258

GFSNW_sfc_thetae_003.txt.gz
Theta_e
301 301 303 304 305 308 311 305 296 307 309 295 295 293 293 298 297 299 298 297 296 294 295 294 293 292 294 298 295 291 291 288 282 283 287 287 287 286 286 282 280 280 282 284
300 300 300 302 303 306 302 300 298 306 306 291 292 294 296 297 296 296 297 295 297 297 293 289 292 293 298 300 296 292 292 285 280 282 286 285 285 285 287 287 283 281 279 282
300 299 299 299 300 303 300 297 291 296 298 299 295 293 293 293 298 296 297 295 297 294 292 295 292 293 296 298 297 298 297 287 284 282 285 287 283 283 285 286 281 283 283 285
301 299 299 299 299 300 299 292 288 293 288 291 293 294 292 291 291 296 297 294 294 292 289 290 290 294 294 296 296 294 293 285 286 287 289 288 287 286 287 285 286 282 285 286
299 300 299 299 299 299 293 287 287 290 291 293 292 291 289 289 291 291 290 290 292 293 290 291 289 291 292 291 291 292 293 286 288 285 288 287 285 288 288 288 288 287 287 287
299 299 299 299 298 298 289 291 291 290 285 284 285 286 288 289 291 293 293 289 287 287 290 290 291 291 292 292 291 290 289 286 285 282 287 286 282 286 288 288 289 288 284 289
299 299 299 298 299 298 292 290 291 287 279 282 282 285 285 285 287 286 288 287 285 289 293 292 290 289 290 291 292 293 287 285 285 282 284 276 285 290 290 288 290 291 291 292
299 298 298 298 298 299 293 292 290 285 277 281 281 282 282 282 283 282 284 285 289 289 287 282 280 279 282 285 289 290 292 288 283 280 280 283 286 286 287 286 286 291 291 293
299 299 299 299 299 299 292 290 293 288 280 276 283 280 281 274 274 275 280 285 284 286 280 273 269 271 276 279 281 286 289 290 285 282 277 274 285 289 292 292 282 284 285 285
299 299 299 299 299 299 293 289 292 288 281 282 282 278 278 281 279 272 272 274 276 281 273 269 270 270 277 272 273 276 280 282 280 281 279 280 284 286 290 280 276 284 284 284
299 298 298 299 299 299 294 289 293 289 283 283 284 285 279 280 277 269 271 273 272 272 269 266 273 269 274 271 274 273 274 273 273 277 276 274 285 284 275 278 284 283 282 282
298 298 298 298 298 298 297 286 292 293 286 283 288 288 289 287 285 278 273 274 268 274 268 265 265 265 268 269 266 277 271 275 271 273 273 278 283 280 282 286 282 281 281 282
298 297 298 297 297 298 296 287 288 287 284 283 284 282 287 290 288 290 278 273 282 279 280 269 268 260 271 262 263 268 273 276 273 272 276 277 278 281 283 282 280 280 280 279
296 297 297 297 296 297 297 288 289 287 284 277 277 284 284 289 288 288 287 285 283 282 279 274 268 264 275 267 271 270 273 275 270 271 275 276 278 280 279 279 277 276 276 277
296 296 296 296 296 297 295 290 289 290 284 275 278 280 283 285 286 285 286 284 282 279 276 271 267 273 274 273 275 272 276 274 271 269 276 274 275 276 277 273 272 272 273 272
295 296 295 296 296 296 289 280 287 291 289 281 275 280 276 283 284 283 283 284 282 280 278 276 277 279 275 269 261 275 277 278 278 275 273 272 274 276 276 272 271 271 271 271
295 295 295 296 296 292 285 279 285 292 291 281 275 271 275 281 279 276 279 280 280 279 278 277 277 277 277 273 269 276 278 278 274 273 271 273 272 271 272 271 271 270 268 269
294 295 295 295 295 293 286 289 293 291 286 283 274 273 275 280 273 272 279 278 279 279 278 276 275 276 276 271 275 277 277 271 271 270 270 269 270 269 270 269 268 265 265 266
294 294 294 289 285 280 283 292 293 291 284 276 275 266 263 276 274 275 273 278 271 279 274 275 272 272 268 271 275 275 269 268 266 266 265 266 265 264 265 264 263 262 263 263
294 289 283 275 284 291 290 287 282 282 282 280 274 266 265 275 272 270 273 275 272 269 268 275 271 270 276 274 266 266 265 264 263 260 260 259 259 260 261 261 262 262 262 261
286 281 279 280 291 282 281 276 275 276 270 275 268 274 271 276 269 270 276 272 272 267 265 263 254 257 271 264 262 262 263 262 261 260 260 260 259 259 259 259 259 259 259 259
285 283 286 285 281 277 273 272 273 272 266 262 265 267 271 270 275 271 273 269 268 264 259 259 256 268 259 257 257 258 259 257 256 257 257 258 258 258 257 257 257 258 258 258
286 281 276 276 276 270 267 265 264 257 260 261 262 264 270 269 274 271 269 267 266 261 259 259 261 258 256 254 255 255 256 255 255 255 256 255 255 256 256 256 257 257 257 257
278 275 270 269 267 270 269 267 262 264 262 262 263 260 267 262 270 272 267 270 267 263 260 258 250 252 250 253 255 254 254 254 254 253 253 253 254 255 256 256 256 257 256 257
276 274 267 269 270 262 259 260 260 263 264 267 265 262 272 260 265 270 265 262 259 260 258 250 251 253 253 254 254 253 252 252 252 252 252 254 254 254 255 257 258 258 258 258
275 271 267 257 262 260 260 259 258 262 264 264 263 263 266 263 263 262 261 258 257 257 244 247 252 252 252 251 251 251 252 251 251 252 253 253 254 255 256 257 257 257 258 258
269 255 253 253 254 255 252 252 258 262 258 258 262 262 262 265 261 258 251 254 246 246 249 248 250 249 250 250 250 251 251 251 252 253 253 254 256 257 256 255 256 257 257 257

GFSNW_sfc_thetae_006.txt.gz
Theta_e
300 300 301 303 304 305 307 304 294 307 310 295 295 292 295 298 297 300 298 297 295 294 294 293 294 293 295 297 294 291 292 288 284 287 289 286 286 287 288 283 280 280 281 282
300 299 300 300 301 303 300 298 296 306 306 290 292 294 294 297 295 296 296 295 296 297 293 289 293 294 298 299 297 294 294 288 283 283 288 289 283 286 287 286 285 283 280 282
301 301 299 299 299 300 298 294 289 297 299 299 294 292 292 292 297 296 297 295 296 293 291 293 291 291 295 297 297 299 297 290 286 281 285 287 284 284 284 285 282 283 283 285
299 300 300 299 298 298 297 290 287 292 287 291 293 293 292 290 289 294 295 292 292 291 288 289 288 292 291 293 296 296 294 286 288 289 290 290 289 288 289 286 287 283 285 286
299 299 299 299 299 298 290 286 285 289 288 289 290 290 288 288 290 290 289 289 292 291 287 287 285 287 286 286 289 288 290 285 288 285 288 287 285 288 289 288 288 288 288 287
299 299 300 299 298 298 287 288 289 289 284 282 280 284 286 287 288 290 291 289 285 285 286 287 287 288 288 288 285 285 285 284 283 280 284 283 280 286 287 288 289 289 284 289
299 299 299 300 298 298 291 288 290 285 277 280 280 282 282 281 283 285 286 286 284 287 288 287 285 285 286 285 285 288 284 283 283 279 281 273 284 290 291 288 290 292 288 284
300 299 299 299 299 298 293 290 288 285 275 280 280 280 280 281 281 282 282 284 287 286 282 277 269 272 270 277 281 281 284 283 279 277 276 281 285 285 283 282 282 281 281 280
301 300 300 300 299 299 291 290 293 288 279 276 281 279 280 273 273 275 280 283 283 282 277 268 263 261 267 267 274 280 280 281 277 275 270 270 275 279 281 283 279 278 280 280
300 300 300 300 300 300 294 289 293 287 281 283 281 278 277 281 278 271 271 273 275 279 272 257 259 261 274 265 264 266 264 266 267 271 270 274 277 281 282 273 271 280 280 279
299 300 300 299 299 299 296 291 293 288 283 283 283 284 279 280 276 269 270 272 270 272 269 262 271 266 272 268 272 270 268 268 266 268 263 265 278 276 271 276 281 282 281 279
298 299 299 299 299 298 298 289 291 294 285 281 286 287 288 287 284 279 272 274 267 274 267 263 263 261 262 263 258 273 265 270 265 270 269 277 279 278 280 283 277 278 278 278
298 298 298 298 298 298 297 288 288 289 285 284 281 282 286 289 288 289 279 274 281 279 279 269 272 265 269 259 261 266 272 275 269 269 274 275 277 279 280 280 278 277 277 275
296 297 297 297 298 298 297 287 289 289 285 277 277 283 283 287 288 288 287 285 283 282 280 277 273 265 275 267 271 270 272 273 270 271 275 276 277 277 277 277 276 275 275 274
296 296 296 297 297 297 295 290 289 291 285 277 274 275 283 285 285 285 285 284 283 282 279 276 273 271 272 269 274 271 275 273 271 269 276 275 276 279 277 274 273 273 272 272
295 296 296 296 296 296 289 284 289 291 290 281 270 279 275 283 284 283 283 283 282 282 279 278 277 279 275 271 267 275 277 278 278 275 278 276 276 276 276 272 271 272 271 271
295 295 296 296 296 291 286 283 284 292 290 281 275 271 274 281 279 276 279 281 282 281 280 278 277 277 278 274 269 276 277 278 278 276 273 272 274 272 271 271 270 269 268 268
294 294 295 295 295 294 288 291 293 292 286 283 273 272 272 276 271 271 279 278 279 279 278 275 276 277 277 271 275 277 278 277 274 272 271 270 269 269 268 268 267 264 264 265
293 294 294 290 288 284 283 293 294 291 284 275 269 266 269 278 275 275 272 278 272 279 275 275 275 273 270 272 275 274 267 266 264 265 265 265 263 263 264 263 262 261 262 263
293 290 284 279 282 290 291 284 280 280 281 280 271 264 264 274 271 269 268 273 271 269 270 276 272 270 276 264 264 264 263 262 262 259 259 258 258 259 260 260 261 261 261 260
286 282 280 284 291 282 279 275 274 273 272 278 275 275 274 277 270 268 276 272 272 267 264 264 253 256 269 262 260 261 261 260 259 259 259 259 258 258 258 258 259 259 258 257
284 284 286 286 281 276 272 270 270 270 269 264 266 269 273 271 274 269 272 269 270 265 256 259 256 264 257 256 257 258 258 256 255 256 256 257 258 258 257 256 256 256 257 257
286 281 277 277 274 269 267 261 259 257 261 262 263 267 273 272 274 270 269 265 263 258 257 259 262 257 256 254 255 255 256 255 256 256 256 256 255 255 254 254 255 256 255 256
278 275 269 270 265 264 264 262 260 262 264 259 262 264 269 264 268 271 264 265 262 258 257 258 250 252 250 252 254 254 253 253 253 253 253 253 253 253 254 254 255 255 256 258
276 275 268 267 260 256 255 255 260 260 263 265 264 268 273 264 269 271 267 263 258 259 258 250 250 252 253 253 253 252 251 251 251 251 251 252 252 253 253 254 256 257 257 257
275 270 266 259 261 258 257 259 261 263 265 267 268 266 267 265 267 265 262 257 256 258 244 246 249 247 248 248 249 250 250 250 250 250 251 252 252 253 254 256 257 257 257 257
266 257 253 254 257 257 252 254 258 262 260 260 264 263 262 265 264 260 256 256 247 243 243 246 246 247 248 249 249 249 249 249 250 251 252 252 253 254 256 255 256 256 257 257

GFSNW_sfc_thetae_009.txt.gz
Theta_e
300 299 300 300 301 303 305 302 293 306 310 296 296 292 294 297 296 298 298 297 296 294 293 292 292 291 294 298 296 291 294 289 284 286 287 288 286 285 285 280 280 282 283 283
300 299 299 299 300 301 298 294 293 307 306 290 291 294 295 297 295 295 295 294 296 296 292 288 291 293 297 298 297 293 292 287 282 283 285 285 285 288 289 288 286 281 278 282
300 300 300 298 299 299 296 292 285 296 299 297 293 291 291 291 297 295 297 295 295 293 290 293 289 290 293 294 295 297 296 289 286 281 283 287 285 285 287 286 282 282 283 284
299 299 299 299 298 298 294 290 286 290 282 289 291 292 290 287 288 295 296 292 293 291 287 288 287 290 289 290 292 291 292 284 286 287 288 288 287 286 287 286 286 282 284 286
300 299 298 299 298 300 288 286 284 288 285 287 287 288 287 287 288 290 289 288 290 290 287 288 285 284 285 285 286 285 288 281 284 282 284 284 283 286 285 285 284 283 284 284
299 300 299 299 299 298 285 286 287 288 283 281 281 282 285 286 286 289 290 287 286 286 287 285 285 285 286 286 283 281 282 281 278 275 280 279 275 280 282 284 287 283 279 277
299 299 300 299 300 298 289 286 286 283 278 280 279 281 281 280 281 281 285 285 283 286 288 287 286 284 284 284 284 285 280 278 276 273 274 266 277 282 284 281 278 279 279 278
300 300 300 299 300 300 290 290 288 283 274 280 279 280 279 279 279 280 280 283 286 285 281 277 272 268 269 275 279 280 283 279 272 264 263 273 277 277 275 275 274 279 277 278
301 301 301 301 300 300 293 290 291 287 276 276 281 278 279 275 272 275 279 282 281 282 276 268 260 260 265 265 272 278 278 280 275 262 265 263 273 275 280 279 272 278 277 278
300 300 300 301 301 300 296 292 293 288 281 282 281 277 278 281 277 271 270 273 275 279 271 256 258 261 273 264 263 264 261 260 261 257 259 265 272 275 277 263 267 276 278 277
298 298 299 300 301 300 297 292 294 289 283 283 283 283 280 279 276 270 271 273 270 271 267 261 270 264 271 268 271 270 266 259 257 256 255 260 276 275 269 272 277 278 279 278
298 298 298 299 300 300 299 289 293 294 286 283 285 287 287 285 283 279 272 276 268 275 268 264 264 260 261 263 258 273 263 268 263 266 266 276 277 276 279 279 278 278 277 278
297 298 298 298 299 299 298 292 289 290 285 284 284 283 286 288 287 288 279 277 281 279 280 273 273 267 270 262 262 267 271 275 270 268 274 274 277 278 278 279 279 279 278 277
296 297 297 297 298 298 298 292 291 289 286 278 277 282 283 288 288 287 287 284 282 283 282 278 274 268 275 271 272 270 272 273 270 270 274 276 277 278 278 278 277 276 276 275
296 296 296 297 296 297 296 294 292 292 285 274 277 276 282 284 284 284 285 284 282 281 279 277 274 274 275 273 274 271 275 273 271 269 276 275 276 279 278 276 275 274 272 272
296 295 296 296 296 296 290 284 290 291 290 282 275 280 275 281 283 282 282 282 282 282 279 278 279 279 277 272 269 275 277 277 278 275 278 278 278 278 275 272 272 272 271 271
295 295 295 295 296 293 285 283 284 292 291 282 276 274 274 279 278 275 280 281 280 281 279 278 278 277 278 274 270 276 277 278 278 278 275 274 275 273 271 271 270 269 268 268
295 295 294 295 295 294 288 291 293 292 287 283 274 267 267 275 270 270 278 277 279 280 278 276 277 278 278 272 276 277 278 277 275 269 269 269 268 268 267 267 266 264 264 265
294 294 294 291 288 284 284 294 294 291 284 276 275 267 266 276 274 275 273 279 273 279 275 275 276 274 270 272 275 273 265 265 263 265 265 264 263 263 263 263 262 261 262 262
294 290 284 280 284 291 291 287 282 282 281 280 273 263 263 274 271 264 266 274 273 269 272 275 273 271 276 265 263 263 262 261 261 260 260 258 258 259 260 259 260 261 260 260
286 282 281 284 290 285 281 276 275 275 272 276 268 270 269 273 264 266 275 272 273 268 265 267 264 258 269 261 260 261 261 260 259 258 258 258 258 257 258 258 258 258 257 256
285 285 286 286 282 277 273 272 273 272 267 263 270 272 272 268 274 273 275 271 271 266 260 259 254 264 257 257 257 258 258 256 255 256 256 257 258 258 257 255 255 255 256 256
285 281 278 278 275 269 267 263 265 263 259 259 261 264 269 275 277 274 273 269 266 261 257 258 261 257 255 253 254 254 255 254 255 255 255 255 255 255 254 253 254 254 254 255
278 274 269 270 268 270 264 260 262 263 261 259 259 259 269 271 271 273 267 268 264 259 257 257 251 251 249 251 253 249 252 253 252 251 252 252 252 252 253 253 253 254 254 256
276 275 267 268 260 254 252 251 255 258 260 263 262 263 273 269 270 272 269 265 263 259 259 252 250 252 250 250 249 247 249 250 250 250 250 251 251 251 251 252 253 255 256 257
276 272 267 262 258 254 256 253 260 262 266 264 266 268 268 267 268 266 262 260 258 259 248 249 250 247 246 246 246 248 249 248 249 249 249 250 250 250 251 253 254 256 257 256
266 261 258 261 259 258 256 259 260 262 262 258 263 264 262 266 265 261 260 258 252 247 245 244 244 244 245 245 245 246 246 247 247 248 248 249 250 250 252 254 256 257 257 257

GFSNW_sfc_thetae_012.txt.gz
Theta_e
300 299 299 300 300 302 303 299 289 305 310 295 296 291 294 297 296 298 296 297 295 292 293 291 290 290 294 297 293 290 293 289 284 286 289 288 286 288 286 281 279 279 281 281
300 299 298 299 299 300 296 292 291 305 306 287 289 293 294 296 295 295 295 293 295 295 292 288 291 291 296 296 295 293 293 287 282 283 283 286 285 288 289 288 287 282 278 280
299 299 300 298 298 299 296 291 282 294 297 295 291 289 289 289 295 295 295 294 295 292 290 292 289 290 293 293 293 295 294 286 284 280 283 286 285 287 288 286 281 282 282 284
299 299 298 299 298 298 291 286 283 287 285 285 289 290 289 286 286 291 294 291 290 289 287 288 288 290 290 289 291 290 290 284 286 287 288 285 283 282 283 281 283 280 282 282
299 300 298 298 299 299 287 282 283 285 284 285 285 284 285 285 286 288 287 286 288 288 286 286 284 286 285 284 285 285 287 279 281 278 281 281 279 282 282 282 281 281 282 280
299 299 300 299 300 296 283 284 286 286 281 281 280 279 282 283 283 286 286 284 284 283 285 285 285 285 284 284 281 281 282 280 276 273 278 276 272 277 279 280 282 279 275 275
301 300 299 300 299 298 287 285 284 278 275 279 279 281 281 280 280 279 281 282 281 286 288 286 284 283 283 282 282 284 280 278 277 273 272 266 276 280 278 278 278 278 276 275
301 301 300 300 300 300 292 288 285 279 272 279 279 279 279 279 278 279 279 280 283 285 281 275 266 267 270 276 278 279 282 278 268 265 261 270 275 274 273 272 273 277 276 278
300 301 301 301 301 300 292 290 291 287 276 276 281 278 278 274 272 273 278 281 280 281 276 267 260 260 264 265 270 277 277 279 275 263 265 257 271 273 276 277 268 272 274 275
299 299 300 301 301 301 296 292 293 288 281 281 281 277 277 280 277 270 270 272 274 278 271 256 259 261 272 263 262 264 260 258 266 263 260 263 271 275 276 262 265 270 273 275
299 298 299 300 300 300 298 293 294 289 284 284 283 283 279 279 276 270 270 271 270 270 264 260 268 262 270 267 270 269 266 260 256 254 256 258 275 274 268 272 276 276 275 277
299 299 299 299 298 299 299 291 295 294 287 284 285 286 287 286 283 278 270 274 267 274 267 264 265 261 260 263 260 273 264 268 262 265 264 275 277 276 279 278 275 276 277 279
299 299 298 298 299 299 297 292 292 290 285 284 284 283 286 287 287 288 279 273 280 277 279 273 273 268 270 262 262 266 271 274 271 271 274 275 277 278 278 278 278 279 279 279
298 298 297 297 298 298 297 291 292 290 285 278 278 282 282 287 287 286 286 284 281 281 280 278 274 270 277 272 273 271 273 272 269 271 274 276 277 277 278 279 279 278 277 277
298 297 297 296 297 297 295 293 293 292 286 278 274 274 281 284 285 284 285 283 282 281 278 276 273 277 276 275 275 272 275 273 270 269 276 275 276 279 279 277 276 275 274 272
297 297 297 296 296 296 290 284 291 293 292 282 276 280 275 280 282 282 282 282 282 281 279 277 279 280 277 272 270 276 277 277 278 275 278 278 278 278 274 272 271 272 271 270
297 297 296 296 296 291 286 284 284 293 292 282 276 275 273 279 279 275 279 281 281 280 279 277 277 277 279 275 270 276 277 278 278 278 276 275 276 272 270 270 269 268 268 267
296 296 296 296 296 294 288 292 294 293 286 284 275 272 267 274 270 271 278 277 279 279 278 276 276 277 277 271 276 277 278 276 273 268 269 268 268 268 267 266 266 263 264 264
296 296 295 292 288 284 286 294 296 292 285 277 276 266 264 275 273 275 273 278 272 279 274 275 275 272 270 273 275 276 267 267 264 264 265 264 263 263 263 262 261 260 261 261
295 292 284 280 284 292 292 287 283 283 282 281 274 262 264 275 272 269 271 275 272 269 270 275 273 271 276 269 264 264 262 262 262 260 260 258 257 259 259 259 260 260 260 259
287 283 280 283 291 283 281 277 276 276 272 276 272 270 268 275 271 271 275 270 268 264 264 266 262 259 270 262 260 261 261 260 259 258 258 258 258 257 257 258 258 257 257 256
286 285 286 286 282 278 274 272 274 272 267 264 269 272 276 273 275 270 271 268 268 265 260 266 263 265 259 259 258 258 258 255 254 255 256 257 258 257 256 255 255 255 255 255
285 281 278 277 276 270 268 265 262 260 261 261 265 268 272 274 275 272 271 267 265 261 263 263 262 257 255 254 255 255 254 253 253 254 254 254 254 254 253 253 254 253 253 253
278 275 270 270 268 267 263 261 260 265 263 260 263 266 270 268 270 271 263 268 266 262 260 257 256 253 250 251 253 248 250 249 251 250 251 252 252 252 252 252 252 251 251 253
276 274 268 269 258 253 250 250 259 261 265 267 264 263 272 264 268 271 265 262 261 262 259 255 250 251 252 252 248 246 247 248 248 248 248 250 250 250 250 250 249 250 252 254
276 271 266 254 258 252 252 249 252 259 267 263 265 262 265 265 266 266 264 260 258 260 250 248 252 250 247 245 245 246 246 245 246 246 246 249 248 248 249 249 249 252 254 256
267 257 252 253 256 257 253 254 257 263 262 259 264 265 262 266 264 261 259 258 253 248 247 248 247 246 244 243 242 244 244 244 244 243 245 245 247 246 245 246 252 254 256 257

GFSNW_sfc_thetae_015.txt.gz
Theta_e
301 300 299 300 300 302 302 297 286 303 311 295 295 290 293 295 294 297 295 295 293 292 292 290 289 289 292 295 292 288 292 289 284 286 289 286 287 287 286 282 280 281 282 282
300 299 298 298 299 300 295 291 290 301 306 288 289 293 292 295 293 294 294 292 293 292 290 286 290 289 294 295 294 293 293 287 281 281 284 285 286 287 288 288 285 281 278 281
299 299 299 298 298 299 292 288 281 289 298 293 289 286 287 288 292 292 294 292 292 289 288 290 288 288 292 292 292 295 293 287 285 280 283 286 284 285 287 286 281 281 282 283
299 299 298 298 298 300 290 285 282 286 278 284 288 288 286 284 284 289 290 288 288 287 285 284 284 288 289 290 291 288 289 283 284 286 287 282 282 281 281 279 281 277 280 280
300 299 299 298 298 298 286 281 280 283 283 285 283 286 283 283 284 286 284 283 285 285 284 285 283 285 284 285 286 285 287 280 279 276 281 281 279 279 280 280 280 281 281 280
300 299 300 300 299 295 282 283 285 285 280 280 278 278 281 280 282 285 283 282 281 280 284 285 285 285 284 284 282 281 281 278 278 274 278 275 270 275 278 279 280 279 275 275
300 300 300 300 300 297 290 285 282 276 272 279 279 280 281 280 280 278 281 281 280 284 287 285 283 282 282 282 281 284 280 278 277 273 267 266 276 277 278 277 277 275 275 275
301 301 301 300 300 299 292 289 283 276 270 279 279 278 279 279 278 278 279 280 281 283 280 273 264 264 268 274 278 279 281 278 268 268 268 272 275 275 273 272 272 274 272 275
301 301 301 301 301 301 294 291 290 285 274 273 280 277 278 272 271 272 277 280 279 280 276 267 260 259 264 264 269 275 278 279 275 265 263 256 270 272 274 276 266 272 270 271
300 300 300 300 301 301 296 293 294 288 281 280 280 276 276 279 276 270 270 272 274 278 272 259 260 260 271 263 261 263 259 260 269 269 267 266 271 274 276 262 265 271 271 273
300 299 299 299 300 301 298 294 295 289 284 282 282 283 278 278 275 270 270 272 270 269 264 262 268 262 269 266 269 269 266 259 254 253 256 260 274 273 268 272 275 275 275 276
300 299 300 299 299 300 299 291 294 295 287 285 284 287 287 285 282 278 274 275 270 276 268 265 267 261 263 265 261 273 265 268 264 265 264 274 276 275 278 279 276 277 276 277
299 299 300 300 299 299 298 289 290 291 285 284 284 283 286 286 287 288 277 272 280 278 279 274 272 268 270 260 262 267 271 272 270 271 274 274 276 279 279 278 277 278 278 277
299 299 299 299 299 299 298 291 293 291 286 279 278 282 282 287 287 286 286 284 281 282 281 277 274 268 277 270 272 271 274 272 270 271 275 276 277 278 278 279 279 277 277 277
298 298 298 298 298 298 294 291 291 293 286 278 279 280 282 284 286 284 284 283 281 281 278 276 274 274 275 272 274 272 276 273 271 270 276 275 276 279 278 277 276 273 272 272
298 298 298 298 298 297 290 284 289 293 292 282 276 280 274 280 282 283 282 283 282 282 279 278 278 279 277 272 268 275 277 278 278 276 279 278 279 276 273 273 271 271 269 270
297 297 297 298 297 293 286 282 285 293 292 282 276 272 275 279 278 275 280 282 282 282 280 277 277 277 279 274 270 276 278 278 278 279 277 275 276 273 270 269 268 267 266 267
296 297 297 297 297 295 288 290 294 292 286 283 276 269 267 274 271 272 278 278 280 280 278 277 276 276 277 271 275 277 278 278 278 271 270 269 268 268 267 266 264 263 263 263
296 296 296 293 290 285 284 294 295 292 285 277 277 270 264 274 272 274 273 278 273 279 274 275 274 268 269 271 275 276 276 271 268 266 265 264 264 263 263 261 261 260 261 261
295 292 285 282 285 292 292 287 283 283 282 281 275 268 269 274 271 267 271 274 272 269 271 275 272 270 276 274 265 265 264 263 264 263 260 258 257 260 260 259 260 260 260 259
288 283 281 284 292 283 281 277 276 275 272 277 273 269 266 272 268 269 275 272 273 268 266 267 256 260 272 263 260 261 261 261 259 259 259 259 258 257 258 258 258 257 257 256
287 286 286 285 282 278 274 273 272 270 265 262 265 269 274 273 276 272 273 270 271 266 257 261 256 266 259 259 259 258 258 257 256 256 256 257 258 257 256 255 255 255 255 255
285 282 278 278 276 271 269 264 261 260 259 261 264 267 272 274 276 273 272 268 267 261 261 259 262 260 255 254 255 255 255 255 254 254 254 254 254 254 252 252 253 253 252 252
278 275 270 271 269 271 262 264 264 265 265 264 265 264 269 272 272 273 267 268 265 259 256 258 259 252 252 253 253 251 251 250 251 250 250 251 251 251 251 251 251 250 250 250
276 275 269 270 259 253 249 248 258 258 263 268 265 266 273 269 270 272 268 263 260 258 259 257 250 251 252 251 249 246 247 247 246 246 246 248 249 248 248 248 247 247 248 248
277 271 266 261 262 255 254 252 256 257 265 263 267 267 268 266 267 267 264 259 257 261 250 247 250 250 248 247 247 248 245 243 244 244 244 247 246 246 247 246 246 247 247 249
268 263 259 262 262 266 261 259 258 264 264 260 262 262 264 267 265 260 258 258 256 247 245 250 252 252 251 249 244 244 241 243 243 241 241 242 243 241 240 244 248 247 250 254

GFSNW_sfc_thetae_021.txt.gz
Theta_e
304 303 302 301 302 305 305 302 292 309 314 296 297 292 294 295 296 299 297 296 295 293 293 291 291 291 294 299 298 292 295 291 285 287 294 296 294 290 290 284 282 285 283 284
302 301 301 300 301 303 303 296 296 307 308 290 292 294 293 296 295 295 295 294 296 296 292 288 291 292 297 298 295 293 294 288 281 284 288 291 290 292 292 291 288 283 281 283
301 301 300 299 299 299 303 295 288 296 299 300 293 291 291 291 297 295 296 294 295 293 291 292 289 289 293 296 295 295 295 288 284 279 283 288 285 287 289 287 281 282 283 284
301 301 300 299 299 298 299 294 289 293 287 291 292 292 290 288 288 293 294 291 291 289 285 287 287 289 291 293 293 292 291 283 285 286 287 286 285 284 285 284 285 280 283 284
301 301 300 299 299 298 295 289 289 291 291 293 291 290 289 288 288 288 287 287 289 290 286 287 284 287 287 286 289 287 288 281 283 279 283 283 281 284 284 285 285 284 284 283
300 301 301 300 300 297 292 292 293 291 287 287 288 289 289 287 290 289 289 289 287 285 287 289 288 288 288 288 285 284 283 281 278 274 279 279 274 279 281 282 284 283 279 282
301 300 301 301 300 299 294 293 292 287 282 284 285 285 287 286 287 286 286 288 285 287 290 288 286 285 284 284 284 286 281 279 279 274 275 267 279 284 283 281 282 283 282 279
301 301 301 301 301 300 295 295 291 287 282 284 284 284 284 287 286 285 285 286 287 289 284 279 276 276 275 278 281 281 283 280 275 271 271 275 278 280 279 278 277 282 282 279
301 301 301 302 300 301 298 295 296 290 284 282 285 283 284 282 282 281 281 285 287 286 283 278 271 270 273 272 275 280 280 281 276 274 269 266 276 281 281 280 272 281 280 278
302 302 302 302 302 301 300 297 298 291 284 287 286 283 282 285 283 281 281 281 281 285 279 274 272 272 276 271 271 273 273 275 272 272 270 273 281 279 281 270 274 281 281 280
301 301 302 302 302 302 299 295 300 293 286 287 288 288 285 284 284 280 279 280 279 280 275 275 274 273 275 273 275 274 272 272 271 271 268 266 280 278 274 280 282 282 281 282
301 301 301 301 302 302 301 293 295 296 287 288 293 292 292 290 289 287 282 285 281 282 278 279 278 275 276 274 270 278 271 275 273 274 273 281 281 280 283 284 282 283 282 283
300 301 301 301 301 301 300 296 295 292 285 285 286 286 292 293 292 293 284 284 286 283 287 283 279 274 278 272 273 275 278 280 275 275 277 279 281 283 283 284 283 284 284 283
300 300 300 301 301 301 300 295 297 293 288 282 285 291 290 295 294 291 291 289 288 287 286 280 278 276 281 276 277 276 279 279 276 276 278 280 281 282 282 283 284 283 283 282
299 300 300 300 300 300 299 298 295 295 287 282 284 286 289 291 291 290 291 288 286 284 280 279 277 280 279 279 278 276 280 277 275 274 280 279 280 283 284 282 282 282 282 279
298 299 299 299 300 300 294 286 294 295 293 283 278 288 287 288 289 288 288 288 286 285 281 280 281 283 280 275 273 279 281 282 282 279 283 282 283 283 284 282 282 280 277 275
297 298 299 299 299 297 287 286 291 296 293 284 279 279 284 285 286 286 286 288 285 284 282 280 281 281 281 277 273 279 282 283 283 284 283 280 282 280 282 278 276 274 272 271
296 297 298 298 298 297 290 294 294 295 288 285 278 277 278 283 279 279 284 281 282 282 281 282 280 281 280 274 279 281 282 282 282 283 283 281 279 277 273 273 271 269 269 269
296 296 296 295 291 286 288 296 296 295 288 280 279 276 274 280 280 281 280 282 277 282 278 279 280 277 274 278 279 280 281 280 280 279 272 271 272 273 271 269 267 267 267 266
294 293 285 283 287 295 294 290 285 284 284 283 279 283 277 279 278 276 278 279 276 273 277 280 276 275 280 281 281 279 274 272 272 271 270 267 267 268 268 266 266 265 264 263
288 284 284 289 294 289 285 281 280 281 277 280 281 281 276 279 275 275 278 276 276 271 275 274 273 273 278 280 275 268 268 267 265 265 265 264 264 265 264 263 263 262 261 260
288 287 288 287 284 282 278 276 278 277 276 278 277 278 281 277 280 276 276 273 274 269 273 272 269 275 272 269 265 263 263 263 260 261 261 261 261 260 259 259 259 259 258 258
287 284 281 280 280 273 272 270 273 274 274 275 276 275 279 278 279 276 275 271 270 271 269 268 273 273 264 262 260 258 258 258 258 257 258 257 257 257 256 256 257 256 256 255
280 277 273 274 273 274 275 276 278 278 278 275 277 275 275 277 275 276 271 272 269 267 266 267 274 271 260 259 258 256 255 255 256 255 255 255 255 255 255 254 255 254 253 254
278 277 271 273 274 271 268 266 271 274 279 276 274 274 275 274 273 274 271 266 265 267 268 273 268 259 256 256 255 255 254 253 253 253 253 253 254 254 253 253 252 252 251 251
278 275 271 268 272 270 266 266 271 269 276 277 277 273 271 270 272 269 268 266 264 270 272 263 258 255 256 255 254 253 253 252 253 253 252 253 251 251 252 250 250 251 251 251
270 268 265 268 269 269 270 269 269 270 274 273 273 269 269 272 269 268 271 269 273 266 260 259 258 256 254 252 252 251 250 251 250 250 250 250 251 248 249 250 255 253 255 252

GFSNW_sfc_thetae_024.txt.gz
Theta_e
305 304 304 304 303 305 306 301 291 307 313 295 296 291 294 296 296 298 297 296 294 292 292 290 290 290 293 298 296 291 293 289 280 285 291 292 290 288 288 281 278 281 282 281
303 303 302 303 304 305 303 295 296 307 307 288 290 294 294 295 294 294 294 293 295 294 291 287 290 291 295 296 294 292 292 284 276 277 283 290 288 289 289 287 285 281 278 280
302 301 301 301 302 301 302 295 287 296 299 298 292 291 291 290 296 295 295 294 294 292 290 292 288 289 293 294 294 295 294 285 279 274 279 284 280 284 285 284 279 278 278 281
302 302 300 300 300 298 298 293 288 293 287 291 292 292 291 289 289 294 293 291 291 290 286 287 286 289 289 292 293 292 290 279 283 284 285 284 282 281 282 280 281 277 280 280
302 301 301 300 300 297 295 289 288 290 290 291 291 291 287 287 288 290 288 288 288 289 286 287 281 285 285 285 287 287 287 274 279 273 280 280 278 280 280 280 280 280 281 280
301 301 301 300 300 298 291 292 292 289 288 287 287 288 288 288 290 290 290 288 287 285 286 287 287 286 286 286 283 281 280 275 268 267 276 274 267 275 277 278 280 279 275 278
301 301 301 301 300 298 293 292 291 286 283 285 286 285 288 287 287 285 287 287 286 286 289 287 284 283 283 283 283 285 277 272 271 266 266 260 274 279 279 277 278 278 276 273
302 301 300 301 301 301 294 294 290 286 280 284 283 284 283 284 286 283 284 285 286 287 282 276 270 269 270 275 279 280 282 278 272 264 262 271 275 277 276 273 274 277 275 277
301 302 301 302 301 301 296 294 295 288 282 280 284 282 283 280 280 279 280 283 285 283 280 273 262 262 268 266 272 277 278 278 272 263 261 257 271 276 279 278 269 275 273 273
301 302 301 301 302 301 298 294 296 289 281 284 283 280 280 283 282 278 278 278 278 282 276 266 265 264 274 266 264 265 264 265 268 269 266 268 274 276 278 264 269 275 274 275
302 302 301 301 301 301 298 294 296 290 283 285 286 286 282 282 281 275 274 276 275 275 270 269 273 267 272 270 273 271 268 264 262 262 261 264 276 275 271 276 279 279 278 278
302 301 302 302 301 302 301 293 297 297 288 284 290 291 290 288 287 283 277 279 274 279 274 273 273 266 270 268 262 275 267 271 266 269 268 277 278 278 280 280 277 279 279 279
301 301 301 301 302 302 300 294 294 292 285 285 285 283 290 292 290 291 279 280 283 281 283 278 275 269 274 264 268 270 274 276 273 271 275 277 279 280 280 281 280 280 280 279
300 301 301 301 301 301 300 294 295 291 287 281 281 290 287 293 291 289 289 287 286 285 284 279 276 270 279 274 275 273 276 275 273 274 277 278 279 280 281 281 281 280 280 280
299 300 300 300 301 301 299 297 296 295 287 281 278 282 287 290 290 289 288 286 283 283 280 279 275 276 278 278 277 275 279 276 274 272 278 278 278 280 280 280 279 279 278 277
298 298 299 300 300 300 295 286 294 295 293 284 278 285 281 286 288 287 286 286 284 283 281 278 280 281 278 275 273 278 280 281 280 278 281 281 281 280 280 279 279 279 277 276
297 297 298 299 299 296 288 285 290 297 294 283 279 278 281 284 283 281 283 285 285 283 282 280 280 280 280 276 272 278 279 280 281 282 281 279 280 279 279 278 275 273 271 271
296 297 297 297 298 297 291 293 295 296 288 284 278 277 273 280 280 279 284 281 283 283 280 278 278 279 279 274 278 279 280 281 281 281 280 279 276 275 273 272 270 267 268 268
295 296 296 293 291 286 288 297 296 294 287 280 279 274 270 279 278 279 280 281 275 280 276 277 277 274 272 275 278 278 280 279 279 274 270 269 270 271 269 268 266 265 267 265
294 292 285 282 287 296 295 289 285 284 284 283 278 275 274 278 275 276 275 276 273 270 274 277 274 273 278 279 280 279 275 272 272 268 266 263 264 267 266 264 265 265 265 263
287 284 283 286 293 288 284 280 279 280 277 280 278 278 271 276 271 273 278 273 272 269 267 270 265 266 276 279 279 270 270 268 265 265 265 264 263 264 263 262 262 261 260 259
287 287 287 286 284 281 277 276 275 276 274 275 273 276 280 276 279 276 275 273 274 268 268 269 262 270 274 267 265 263 264 262 260 260 261 262 262 260 259 258 257 257 257 257
287 283 280 279 278 273 272 269 268 265 271 273 270 273 277 277 278 276 274 270 270 271 269 264 265 269 262 259 258 257 257 257 257 257 257 256 256 255 254 253 253 253 252 251
279 276 271 273 271 272 272 268 268 271 272 273 276 274 272 275 274 276 270 272 268 265 262 261 265 266 260 256 255 254 253 255 256 254 253 253 253 253 252 251 250 249 249 250
276 276 269 271 268 265 261 262 267 269 273 276 274 274 276 273 272 274 270 266 265 263 262 265 262 257 255 254 252 252 251 251 250 251 251 252 251 249 248 248 247 246 247 247
276 275 271 263 265 264 262 262 265 268 274 274 276 273 271 270 272 268 267 265 260 263 265 258 255 252 251 251 251 250 251 250 248 247 248 249 248 247 246 244 244 245 245 247
273 266 259 264 270 270 266 264 268 270 272 269 272 269 268 272 269 268 268 262 262 256 255 256 254 252 250 249 249 247 246 245 245 245 245 245 244 242 242 244 246 245 247 248

GFSNW_sfc_thetae_030.txt.gz
Theta_e
315 315 314 314 313 311 308 302 295 306 311 296 295 292 295 297 295 298 296 294 291 289 290 288 287 287 290 293 293 289 290 287 277 284 286 287 286 284 284 277 275 277 277 278
308 310 313 314 312 311 304 298 295 305 307 291 290 294 295 296 294 294 294 292 293 293 291 287 288 288 291 293 292 289 290 281 271 277 281 286 283 285 285 284 282 273 274 277
305 305 306 311 307 305 303 296 289 295 299 297 293 291 292 292 296 294 295 293 294 291 288 290 286 287 290 292 292 296 293 283 279 276 276 282 280 282 283 283 275 275 278 279
303 303 304 304 303 303 300 294 291 293 287 291 292 294 292 291 289 294 295 291 291 290 286 286 286 287 288 290 294 291 290 283 282 282 283 283 281 281 281 280 279 275 278 277
303 302 301 301 301 301 296 289 288 290 290 294 292 292 289 289 291 291 288 288 290 291 288 287 284 287 287 286 288 287 286 277 279 274 281 281 278 280 279 280 280 279 280 278
303 302 301 301 300 299 292 291 291 290 287 288 290 288 288 289 290 290 291 291 288 287 289 288 286 287 286 287 285 283 283 277 271 269 275 273 267 273 277 278 278 277 274 277
304 303 302 302 300 297 293 291 290 286 283 286 287 287 290 288 289 287 286 288 289 285 286 285 283 281 281 283 283 284 279 274 273 266 264 259 275 276 276 276 277 275 274 272
303 304 303 301 301 299 292 292 289 286 281 286 285 285 286 287 287 283 283 283 285 286 283 279 273 271 275 276 278 280 281 278 270 267 262 269 274 275 274 273 273 275 274 274
303 302 302 302 301 301 292 291 292 287 281 281 286 284 284 281 280 279 280 283 284 284 281 275 269 267 270 267 271 277 279 279 274 260 258 259 271 273 276 276 267 271 271 273
302 302 302 302 302 302 294 290 292 286 280 283 283 281 282 284 281 278 279 280 281 283 276 270 267 266 273 266 265 264 266 272 271 269 259 264 273 275 277 264 269 270 272 275
302 302 302 302 301 301 296 291 293 287 280 283 285 285 282 281 281 277 277 279 279 277 274 270 272 267 271 268 270 269 268 266 265 264 264 262 276 275 271 275 277 277 276 277
302 302 302 302 302 302 300 291 293 291 282 282 288 288 288 286 285 280 275 279 275 278 272 269 271 264 265 266 264 274 268 271 266 269 268 276 277 278 279 279 277 278 277 278
301 301 302 302 302 302 300 293 291 291 285 282 284 282 288 290 288 287 278 276 280 280 280 272 270 265 272 263 265 267 272 274 271 269 273 275 277 280 279 279 279 280 280 279
301 301 301 302 302 301 301 294 295 291 286 277 278 284 284 289 288 286 285 283 282 282 281 272 268 265 276 269 272 271 273 273 270 271 275 276 277 277 279 280 279 279 279 279
300 300 301 301 301 301 300 296 295 293 285 278 273 278 284 286 286 285 285 283 281 277 274 269 268 273 275 272 276 271 276 276 272 271 278 277 278 279 279 278 279 279 279 278
299 299 300 300 300 300 294 286 294 295 293 284 273 281 277 283 285 284 283 283 280 279 280 274 275 279 279 273 272 278 280 279 280 278 281 279 280 280 280 278 279 279 278 278
298 298 297 298 298 296 286 285 290 297 294 283 278 275 277 281 281 277 281 282 279 283 281 278 278 277 281 276 270 278 278 279 280 280 279 278 279 278 279 279 279 276 273 273
297 297 297 297 297 296 290 293 295 297 288 284 278 274 273 280 279 279 282 282 283 282 281 278 277 279 279 274 277 279 280 280 279 279 280 281 281 276 277 274 271 269 270 268
296 296 296 290 288 285 287 297 297 295 287 279 278 268 266 280 280 281 280 283 277 283 278 277 279 274 273 276 277 278 279 279 279 276 272 272 274 277 272 269 267 268 269 267
295 291 285 282 285 292 294 289 284 284 284 283 274 269 266 276 275 275 276 278 275 272 275 278 275 274 279 279 277 278 279 279 275 272 272 264 265 269 268 267 267 267 267 265
288 283 282 287 292 286 284 279 278 279 276 278 271 271 269 275 270 273 277 273 275 270 271 271 267 268 277 279 279 279 278 275 273 271 268 267 267 267 267 264 263 262 261 258
285 286 287 287 284 280 275 275 273 274 268 267 274 269 274 271 274 273 274 271 271 268 267 267 262 273 276 274 277 278 270 269 263 263 264 263 264 263 262 260 258 256 256 256
286 281 277 278 276 271 271 268 264 265 264 271 270 271 274 277 277 274 274 270 269 271 269 266 266 273 269 272 265 260 260 260 259 258 258 257 256 255 255 254 253 253 252 248
277 274 270 271 269 266 269 263 264 269 268 269 269 273 271 274 274 275 270 272 270 267 266 262 272 267 269 261 258 258 257 257 257 255 255 254 254 252 252 251 249 250 249 247
274 274 268 270 262 258 256 256 262 266 266 274 271 269 275 270 272 274 271 266 265 266 262 264 262 259 260 257 255 255 255 254 252 251 252 252 252 251 247 244 244 245 245 245
276 270 266 258 260 258 257 256 261 265 271 273 274 272 272 271 272 269 267 264 262 264 261 255 258 258 258 256 255 254 254 253 251 250 250 250 249 249 247 242 242 243 243 244
273 265 249 255 258 262 259 261 265 270 273 270 271 269 268 273 269 268 265 261 259 256 257 255 256 255 255 253 253 253 252 250 251 249 248 247 245 241 244 247 245 242 242 242

GFSNW_sfc_thetae_033.txt.gz
Theta_e
318 318 318 318 317 315 311 304 297 307 312 298 298 297 297 298 296 298 296 294 292 291 290 289 287 287 289 292 293 289 291 286 279 283 285 285 285 284 284 280 276 276 276 279
311 315 316 316 314 315 306 298 296 305 306 293 291 294 295 296 294 295 295 294 294 293 290 287 288 287 290 291 292 289 290 282 272 278 281 284 283 283 284 282 279 271 273 276
307 309 312 311 311 308 304 296 290 295 299 297 294 292 292 293 297 295 296 294 294 291 289 289 286 287 290 291 291 295 294 283 281 281 279 282 280 281 282 280 276 275 279 280
304 306 306 306 306 305 302 296 292 294 287 291 293 295 293 291 290 295 296 292 293 291 287 287 286 287 288 290 293 290 289 278 280 280 281 281 280 280 281 279 280 278 281 281
303 302 303 304 304 304 295 290 289 291 292 294 292 293 291 291 293 292 290 291 293 292 288 288 285 287 287 285 286 286 285 279 279 274 281 282 280 281 281 282 282 280 280 280
303 302 302 302 302 301 292 292 292 289 290 292 291 290 292 291 295 293 293 293 291 290 292 291 288 289 288 289 286 283 282 280 277 277 276 275 272 275 280 281 280 280 276 281
304 303 302 301 301 298 294 292 291 287 284 287 290 291 292 289 291 289 288 290 290 287 287 287 285 282 282 284 283 286 281 280 278 271 271 268 277 275 276 277 279 276 274 272
304 304 303 302 301 299 294 293 289 285 283 286 286 287 287 289 289 284 284 283 286 287 286 281 278 276 278 278 279 282 282 279 272 272 265 271 276 275 273 273 273 276 276 277
303 304 304 302 302 300 293 293 293 288 283 283 287 285 285 284 283 280 280 283 284 285 282 279 275 272 274 270 271 277 281 280 279 265 265 264 273 273 276 276 268 272 274 274
302 303 303 303 302 301 293 290 292 287 281 284 285 284 283 286 283 280 280 281 282 283 278 272 271 270 274 268 267 268 270 273 274 268 270 267 272 274 277 265 270 271 273 275
302 302 303 302 302 302 295 290 291 286 280 283 285 285 283 282 284 279 279 280 280 278 277 275 273 270 271 269 271 270 269 267 266 265 265 264 276 275 272 276 276 276 275 276
302 302 302 302 302 302 298 290 292 290 281 281 287 288 289 287 286 281 279 281 277 280 275 273 273 268 266 266 264 274 269 272 268 271 269 276 277 277 279 279 277 277 277 278
302 302 302 302 302 302 299 292 290 290 283 280 284 283 287 290 288 287 280 278 281 280 281 274 272 268 272 263 265 268 272 274 271 271 273 275 277 278 279 279 279 279 279 279
301 301 302 302 302 302 301 293 293 289 285 273 277 283 284 289 288 286 285 284 282 282 281 274 270 268 277 270 273 271 274 274 271 271 275 275 277 277 279 279 279 279 279 279
301 301 301 301 301 302 300 296 294 294 283 275 272 278 283 286 286 284 284 283 281 279 275 269 269 274 274 271 274 271 275 275 272 269 277 277 277 278 279 278 278 279 278 277
300 300 300 300 301 301 295 285 294 295 293 283 273 280 277 281 283 283 282 282 280 278 276 274 275 279 277 267 264 278 280 278 279 277 280 279 279 279 279 278 278 278 277 278
299 299 298 300 300 297 286 285 289 297 293 283 277 274 276 281 280 277 280 281 278 279 278 274 277 277 280 275 266 279 278 279 279 279 278 277 278 278 280 279 278 277 274 274
298 298 297 296 297 296 288 291 296 296 288 284 277 271 274 282 278 279 280 279 280 279 281 279 275 279 279 272 277 279 279 278 277 278 279 281 280 276 277 275 272 271 273 271
298 298 297 292 289 285 287 296 295 294 286 278 276 269 268 280 280 280 280 282 276 282 277 277 279 275 272 276 277 277 279 278 279 278 275 275 275 277 274 271 268 270 271 266
297 291 285 281 284 292 294 289 284 284 283 283 272 265 265 277 275 274 274 276 274 273 275 278 276 274 280 279 276 278 279 280 278 270 269 263 267 272 272 270 268 269 266 265
286 283 280 284 292 286 281 278 276 278 275 278 268 267 270 276 271 269 277 273 273 269 268 273 271 267 278 279 278 279 278 277 274 276 277 272 271 272 270 265 264 263 262 259
286 285 288 286 283 278 275 274 272 274 268 268 273 268 271 269 272 270 275 272 272 268 267 269 264 273 278 273 277 279 280 274 271 266 269 265 266 264 265 262 259 257 257 256
285 281 277 278 277 272 269 269 267 267 264 270 271 269 272 273 275 273 272 269 267 269 269 268 267 275 269 272 272 263 259 261 261 259 260 259 258 257 256 255 255 254 252 248
277 275 271 271 269 269 270 261 263 267 266 267 267 272 272 273 272 274 270 272 269 267 266 262 270 264 260 261 257 257 256 256 258 256 256 255 255 253 252 252 251 251 250 246
275 275 269 268 262 258 254 253 259 264 264 271 270 270 275 271 273 275 272 267 266 266 262 263 258 257 256 256 254 252 255 254 252 252 253 253 253 251 248 245 247 249 248 247
275 272 267 258 261 258 258 257 262 267 273 273 273 271 272 271 271 268 268 265 262 263 257 253 254 253 253 252 251 252 253 252 251 252 251 253 253 252 249 246 245 244 246 247
272 266 252 254 261 264 262 262 266 270 271 267 271 269 269 273 269 268 268 264 258 254 253 253 251 251 250 250 251 251 251 251 251 251 250 251 248 249 250 249 245 243 243 242

GFSNW_sfc_thetae_036.txt.gz
Theta_e
310 317 318 319 318 317 313 305 297 307 318 301 300 296 299 300 300 298 296 295 293 289 290 286 284 285 288 292 293 288 290 286 279 283 284 284 284 284 284 281 276 274 275 279
309 313 317 318 318 316 308 300 297 306 306 295 295 297 299 299 295 297 295 293 294 293 291 289 288 288 291 292 293 291 291 283 274 278 282 283 282 283 283 282 279 273 273 278
308 308 311 316 317 315 308 298 292 296 299 298 296 294 293 293 297 296 297 295 294 291 290 291 288 287 290 292 292 296 294 284 281 280 280 283 281 282 283 281 274 276 280 282
306 306 307 308 308 307 305 297 293 295 289 292 294 295 293 293 291 295 297 293 294 293 289 290 288 288 288 290 294 290 290 280 281 281 281 282 282 282 281 280 283 280 283 281
303 304 304 305 305 304 295 291 291 292 291 295 293 293 290 290 292 293 291 291 293 294 290 291 285 288 287 287 288 287 286 279 281 277 282 281 280 281 280 282 281 279 279 280
304 303 303 303 303 302 292 292 292 290 291 291 291 291 291 291 294 294 295 294 293 291 294 293 291 289 291 290 288 285 284 280 278 278 275 277 277 279 280 280 281 282 279 284
305 303 303 302 301 299 295 292 292 287 285 287 290 290 292 292 294 292 290 292 293 288 289 290 288 285 284 286 283 286 281 278 280 271 274 271 279 275 278 282 282 280 277 275
305 304 303 302 301 299 294 293 289 286 284 287 285 287 288 290 289 285 286 285 287 289 288 283 281 279 282 280 277 280 283 281 273 272 271 276 277 274 273 274 275 278 280 281
303 304 304 303 301 300 294 293 294 288 284 284 288 285 286 284 281 281 280 283 287 286 284 281 276 274 278 274 273 278 281 282 282 270 271 269 272 273 276 278 272 275 278 277
302 303 304 304 302 299 293 292 294 288 281 285 286 284 284 287 285 280 280 281 282 284 280 276 276 275 277 273 270 270 274 275 277 271 272 272 274 275 277 268 273 271 274 274
302 302 303 303 303 301 294 288 292 288 282 283 284 286 284 284 285 281 279 281 280 280 278 278 276 275 273 272 273 272 272 273 271 271 270 270 276 275 273 277 276 276 275 276
302 302 302 302 303 303 298 290 292 290 283 283 287 287 288 288 289 283 281 283 279 282 279 277 275 272 271 272 270 275 272 274 271 274 273 276 278 277 279 279 277 276 276 277
302 302 302 302 302 302 298 290 288 289 279 281 281 281 287 289 289 289 282 280 283 282 283 277 276 273 273 267 268 270 273 274 273 273 274 275 277 279 279 279 278 279 279 278
301 301 301 302 302 302 299 291 290 287 282 273 278 283 284 288 288 286 286 284 283 282 281 276 273 271 277 271 274 273 275 274 271 271 275 276 277 278 279 279 279 278 278 278
301 301 301 301 302 302 299 295 293 293 286 275 274 278 283 285 286 284 284 283 281 278 275 273 271 275 274 273 274 271 275 274 272 270 277 277 277 279 280 278 278 278 277 276
300 300 301 301 301 301 295 286 293 294 292 279 271 279 277 282 283 282 281 281 280 278 276 273 276 279 276 266 265 276 277 277 279 277 278 278 280 279 278 278 278 278 277 277
299 300 300 301 301 295 288 284 290 296 293 283 273 270 277 281 279 278 280 280 279 278 275 271 277 277 277 268 267 278 278 279 278 279 278 276 277 278 278 278 278 276 274 274
298 299 300 297 296 297 289 293 296 296 287 284 277 267 275 281 278 277 279 277 276 275 277 278 274 278 278 270 277 277 279 278 278 278 279 281 278 277 277 275 273 271 273 271
297 298 297 292 287 285 286 295 297 293 286 279 278 270 269 280 279 279 278 282 275 281 276 276 278 275 271 276 277 277 278 277 278 276 275 274 275 277 274 272 268 271 273 268
298 293 285 280 286 293 294 288 284 283 282 282 275 261 267 278 275 275 274 275 273 273 274 278 276 270 279 278 277 278 279 278 276 271 270 264 267 272 273 271 272 273 269 267
287 283 279 285 293 285 280 278 276 278 275 280 272 267 270 274 269 268 277 274 275 270 269 271 268 265 278 279 278 279 278 278 276 278 278 273 273 273 272 269 267 265 264 260
285 285 288 287 281 277 274 274 275 271 269 269 273 269 270 270 274 274 276 273 272 263 266 268 261 272 275 274 277 279 276 272 272 268 272 266 267 264 265 263 261 258 258 258
285 281 279 278 276 270 270 269 265 268 262 270 268 269 271 272 274 272 271 269 268 270 269 268 267 272 265 262 263 266 261 261 262 260 260 260 258 258 257 256 255 255 253 251
278 275 271 269 269 269 270 262 261 264 263 270 265 271 270 267 268 272 266 268 267 264 264 262 261 256 256 257 257 255 257 255 258 256 256 256 256 254 253 253 253 253 252 249
274 274 268 264 259 255 255 256 258 261 260 268 268 267 274 269 272 273 270 267 265 262 261 258 254 254 253 254 253 252 252 252 252 251 252 253 253 252 249 249 250 251 250 249
273 269 265 258 261 258 258 256 262 267 271 270 271 268 271 270 270 269 268 266 262 261 254 253 253 251 250 249 249 249 248 248 250 251 253 253 252 251 248 247 247 249 250 249
270 261 252 253 257 259 257 259 265 271 272 271 273 270 268 271 268 267 267 265 261 257 256 254 253 252 251 250 248 247 247 247 248 248 248 247 248 248 250 250 248 250 248 249

GFSNW_sfc_thetae_042.txt.gz
Theta_e
309 309 309 310 311 314 312 304 297 314 316 300 300 294 297 299 300 300 299 298 298 292 292 290 290 290 295 295 295 291 295 290 286 287 290 290 292 291 290 287 282 283 284 288
308 309 308 309 310 312 308 300 301 309 312 294 294 298 297 299 298 300 299 297 298 297 293 289 291 292 294 295 295 293 294 289 286 286 287 288 287 288 290 291 288 285 285 288
306 308 307 308 309 310 310 300 290 298 300 303 298 293 294 294 300 299 300 300 297 294 294 294 294 291 292 294 295 297 297 291 289 287 290 290 285 288 288 289 286 287 286 290
305 307 306 306 308 308 308 300 294 298 291 295 298 297 295 294 293 298 299 296 297 296 291 293 293 295 291 292 294 294 294 288 290 292 291 290 289 289 288 287 289 287 291 288
304 306 306 305 306 306 300 296 294 294 295 296 296 296 294 293 296 295 294 295 296 297 293 295 293 295 293 293 291 291 291 288 290 287 289 287 286 289 289 288 289 290 291 289
304 305 306 305 304 303 294 294 294 295 293 293 293 293 294 292 296 296 297 296 296 293 296 296 293 293 294 293 291 289 289 289 285 284 289 284 280 285 288 289 291 291 287 291
303 304 305 304 304 303 297 294 293 291 288 291 292 294 295 294 294 293 296 297 295 294 294 293 291 288 288 289 286 290 286 286 285 282 281 276 285 284 290 288 288 288 286 287
303 303 304 305 303 302 298 295 292 288 285 290 288 292 294 295 295 293 291 291 290 294 291 285 283 282 283 281 281 285 287 286 278 278 279 284 278 280 284 285 286 287 288 286
302 303 303 304 303 303 297 296 295 291 285 286 290 287 288 289 288 283 283 285 287 290 287 284 280 279 283 278 278 281 282 285 285 277 278 278 285 281 281 286 281 286 288 285
301 302 303 304 304 302 297 295 296 291 285 288 288 286 286 288 286 283 282 283 284 285 284 282 281 281 283 279 277 277 279 280 281 279 279 281 285 280 281 279 284 284 287 286
300 301 303 303 303 302 296 293 296 292 287 286 287 288 287 286 287 283 283 284 283 283 282 281 280 279 279 279 278 279 280 279 279 279 278 277 281 278 280 285 281 283 282 282
299 300 301 302 302 302 296 290 294 292 288 286 288 289 289 289 290 285 284 285 283 286 284 283 280 277 277 279 277 277 279 284 281 283 282 279 282 282 283 284 285 282 282 282
297 299 301 301 302 302 298 290 292 289 285 285 285 284 288 290 290 292 285 285 287 286 286 283 281 278 279 277 278 276 278 279 279 281 278 278 280 281 282 282 282 282 283 282
297 297 299 301 302 302 298 292 293 290 284 281 282 285 286 289 290 289 289 286 285 285 286 283 281 280 280 278 278 279 279 278 276 275 276 278 280 281 282 282 282 281 281 281
296 297 298 300 301 302 298 295 293 293 288 280 280 281 284 286 288 286 287 288 285 283 281 280 279 279 278 277 277 276 278 276 276 277 280 281 281 283 283 282 281 282 281 279
295 296 298 299 301 301 294 285 291 294 293 285 278 281 281 283 285 284 284 284 283 283 282 279 279 280 280 277 276 279 279 280 282 280 282 281 282 283 283 282 282 282 281 281
295 296 297 297 301 297 286 286 292 296 294 284 278 277 281 282 282 282 282 283 282 283 280 279 279 278 280 276 275 278 279 280 280 282 280 279 280 281 281 281 282 280 278 279
295 296 297 299 300 298 289 294 297 296 287 285 275 274 277 283 280 278 281 280 281 281 279 279 278 279 279 275 277 279 280 280 280 280 281 282 281 280 279 278 277 276 277 277
294 296 298 295 293 285 287 297 298 293 288 281 276 273 273 282 280 281 281 281 277 280 277 278 279 275 273 278 278 278 279 279 281 280 278 276 277 279 277 276 274 276 277 276
295 293 285 282 285 293 296 288 284 284 283 284 276 273 274 280 279 277 278 279 276 274 276 279 277 275 280 279 280 279 280 280 278 275 274 271 274 276 276 276 278 278 278 275
289 284 282 287 294 286 284 280 280 279 277 279 273 273 275 280 276 275 278 276 277 271 274 275 273 273 274 266 268 268 268 269 272 275 278 278 279 278 277 275 275 275 273 271
286 287 287 286 282 279 276 275 276 276 274 273 272 272 276 277 280 278 278 275 274 270 274 274 269 273 263 261 260 261 261 261 264 265 268 270 271 268 270 269 268 266 264 263
286 284 281 279 277 272 271 268 270 272 270 272 273 274 276 276 279 277 276 272 271 272 271 270 271 262 260 257 257 257 258 258 260 261 262 262 261 260 261 260 259 259 258 258
279 276 271 273 271 273 272 271 272 271 272 274 276 273 276 276 275 275 271 271 272 269 267 267 262 258 255 255 255 253 253 254 255 256 257 257 257 255 255 255 256 257 256 255
275 275 269 270 263 261 259 258 266 267 275 276 274 274 276 273 274 274 270 267 267 269 267 262 258 256 254 253 252 251 251 251 253 254 254 254 254 253 252 252 254 254 254 254
271 265 266 262 268 265 265 265 267 268 272 273 274 272 272 271 273 270 268 267 265 265 259 257 257 254 252 252 251 251 251 250 251 252 253 253 252 252 251 251 252 252 253 253
266 261 258 259 263 262 262 262 267 271 273 271 270 265 267 273 269 264 261 264 258 258 257 256 255 253 252 252 252 251 251 251 250 251 251 251 251 250 253 252 252 252 252 252

GFSNW_sfc_thetae_045.txt.gz
Theta_e
305 307 309 309 309 310 310 305 295 315 317 298 300 294 297 299 301 304 302 301 299 298 298 294 294 294 298 300 299 293 298 295 292 290 295 295 296 293 292 287 285 287 286 289
303 305 307 309 308 309 304 300 299 311 312 293 294 297 297 299 299 300 300 299 301 301 297 292 296 297 302 300 297 296 296 291 286 289 288 290 288 291 293 292 289 286 286 289
303 304 306 308 307 308 304 300 291 299 301 301 298 294 294 293 301 299 301 300 300 297 297 298 296 297 295 298 298 299 299 292 290 289 292 293 287 289 290 290 286 287 289 291
302 303 304 307 307 307 304 299 291 297 291 293 295 298 295 293 293 298 300 297 298 296 292 294 295 297 292 293 296 296 296 288 292 293 295 295 291 290 289 287 289 287 291 292
303 303 305 306 307 306 301 293 293 296 296 297 295 295 293 293 295 296 294 294 297 298 294 295 294 297 296 293 292 292 294 287 291 288 293 293 290 292 291 290 290 291 292 293
304 303 304 305 306 305 300 298 295 294 294 293 292 289 292 294 297 298 299 297 296 295 297 301 299 297 299 298 294 289 288 287 285 284 290 289 282 287 290 292 292 292 288 293
303 303 304 304 305 305 303 300 296 287 287 291 291 293 294 293 295 294 296 297 296 296 295 294 292 289 289 290 288 292 288 286 287 285 285 279 290 296 292 292 293 294 293 290
302 303 303 304 305 305 300 300 295 287 285 290 292 293 293 295 297 294 294 295 297 296 292 286 283 283 284 284 284 286 289 288 284 282 283 287 290 283 288 290 290 295 292 289
299 302 303 303 304 305 300 299 301 292 286 288 291 292 293 291 291 288 286 286 288 292 288 285 282 280 285 281 280 282 283 287 285 282 281 280 285 288 290 293 284 292 291 288
298 300 301 302 303 304 300 299 301 293 286 291 289 287 287 289 289 287 283 284 285 286 285 284 283 284 287 281 280 278 279 281 280 283 282 285 286 283 287 282 285 287 290 288
298 299 299 301 302 303 298 296 299 294 287 290 289 290 287 286 286 283 284 284 283 283 283 284 283 284 283 283 284 281 281 280 281 283 280 279 284 281 284 287 285 287 291 289
298 297 299 300 301 302 299 292 296 295 289 289 290 290 290 290 290 287 284 285 285 287 285 285 284 280 281 283 280 281 281 286 285 286 284 281 283 283 286 287 288 285 287 288
297 298 298 299 300 302 299 295 293 291 288 288 287 286 289 290 290 292 286 286 287 287 287 287 284 281 283 279 281 280 281 282 283 283 280 281 282 285 283 284 285 285 285 285
296 298 297 298 299 301 299 292 294 293 290 285 285 288 287 290 291 290 289 288 287 287 287 285 283 282 282 282 280 281 280 281 280 277 278 280 282 283 285 285 283 282 282 283
295 296 297 297 298 299 299 298 295 296 291 285 284 284 286 288 289 288 290 288 287 286 283 283 282 281 280 279 279 279 279 279 278 279 280 284 283 285 286 283 282 282 282 280
295 295 296 297 297 298 293 285 293 295 296 285 281 284 283 286 287 287 288 287 286 285 284 281 280 281 282 280 280 281 282 282 284 281 284 284 285 287 286 283 283 283 282 282
294 295 295 296 297 296 287 287 292 296 297 285 279 280 282 284 285 284 284 285 284 285 282 281 280 279 283 279 277 280 281 282 281 282 282 280 281 281 283 283 283 282 280 281
294 294 295 296 297 296 290 295 296 297 288 286 280 276 279 283 281 280 284 282 284 283 281 281 280 280 280 276 279 280 281 281 280 281 281 282 282 281 280 280 279 277 278 278
294 294 295 293 291 285 288 298 298 295 289 282 280 275 274 283 281 282 282 283 279 282 279 279 281 278 276 279 279 279 280 280 282 281 279 278 279 280 278 277 276 276 278 276
294 291 285 283 285 293 296 290 285 284 284 285 281 282 276 281 281 280 280 282 278 275 278 280 278 277 275 272 271 271 271 271 276 277 276 275 275 277 277 277 278 278 278 276
288 284 284 287 295 287 284 280 281 281 279 282 278 280 276 282 278 278 280 278 278 273 276 276 275 275 270 266 267 266 266 267 268 269 272 275 276 278 278 276 276 275 273 272
288 288 287 285 285 281 278 277 279 278 275 275 277 278 280 280 284 280 279 277 277 272 277 276 272 272 263 261 261 262 262 261 262 264 266 267 267 266 269 269 269 266 265 265
287 285 282 280 279 273 272 270 272 272 275 276 277 276 278 279 281 279 278 273 273 277 274 273 273 264 261 258 258 258 258 259 260 261 262 262 261 260 260 262 261 262 260 260
282 278 273 275 273 275 275 276 277 277 278 277 280 277 279 279 278 277 274 273 274 271 269 270 266 259 257 257 256 255 255 255 257 257 258 258 258 257 256 257 258 259 258 257
278 278 271 273 267 266 266 267 273 273 281 280 278 278 278 276 275 275 272 269 269 271 270 265 261 257 256 255 254 253 253 253 255 255 256 255 256 255 254 254 256 256 256 256
270 266 269 267 270 268 270 272 272 274 279 280 280 276 274 273 274 271 270 270 268 266 261 259 259 255 254 253 253 253 253 253 254 254 255 254 253 253 253 254 254 255 255 255
266 262 263 262 267 265 265 269 269 273 278 274 275 271 271 275 270 265 260 261 258 259 257 257 255 254 253 252 253 251 252 252 253 253 253 253 254 255 256 254 254 255 254 253

GFSNW_sfc_thetae_048.txt.gz
Theta_e
304 305 306 307 309 310 308 303 294 311 316 300 299 294 297 299 299 302 300 300 297 295 296 293 291 291 296 300 299 293 296 293 283 285 291 292 293 290 290 285 282 284 282 286
304 303 304 305 307 308 305 296 299 309 312 293 295 297 297 299 297 298 298 298 299 300 296 292 294 295 299 299 297 294 296 289 282 285 286 289 287 289 292 292 286 285 281 285
304 303 303 303 306 308 304 296 291 298 301 300 295 294 293 294 300 298 300 299 300 297 295 298 293 294 295 298 298 299 299 291 288 286 288 289 284 286 289 289 284 283 286 287
304 303 303 304 304 307 303 295 292 296 290 292 294 294 294 292 292 298 299 296 297 296 292 294 294 296 292 293 296 296 296 289 290 292 293 292 287 286 287 286 288 285 288 289
304 304 303 304 305 306 299 292 291 295 293 295 294 293 291 289 293 295 294 294 297 297 294 295 292 296 295 292 291 292 294 288 290 288 290 291 289 290 287 288 289 289 290 289
302 303 304 304 305 305 296 298 296 293 290 291 291 291 292 291 294 296 298 297 296 295 297 301 301 299 299 296 291 289 289 287 285 284 287 288 284 289 291 291 290 289 285 291
299 301 303 304 305 304 300 298 296 288 285 288 289 292 293 291 293 292 296 299 296 299 297 296 293 290 291 294 294 293 287 286 287 284 286 279 287 291 293 292 293 293 291 289
299 299 300 303 303 304 300 300 295 288 284 287 289 290 292 294 294 292 294 295 296 298 293 286 284 283 285 286 285 288 292 287 285 283 284 286 288 283 286 287 289 294 294 293
299 299 300 300 303 303 301 299 300 291 285 284 290 289 291 290 290 288 288 287 289 294 288 284 281 279 283 280 280 283 285 289 286 282 281 280 279 281 286 290 283 289 293 291
298 299 299 299 300 302 300 297 300 293 285 289 290 287 288 291 291 287 285 285 286 287 287 284 283 283 285 280 277 277 279 281 281 283 282 283 281 280 284 280 281 281 284 285
297 298 299 299 299 299 300 296 300 293 286 289 289 291 288 287 287 287 284 285 284 283 283 284 284 284 283 282 283 279 280 279 279 282 280 279 280 280 283 283 281 284 284 284
296 297 298 299 299 297 300 292 298 297 289 288 290 291 291 292 291 287 285 285 285 287 285 284 284 280 281 282 278 281 281 284 283 284 283 280 280 281 284 284 283 282 284 284
296 296 297 298 298 299 297 295 292 291 285 286 285 283 289 291 291 293 285 285 287 285 286 285 284 281 283 279 280 278 280 281 282 282 281 280 281 285 283 283 282 281 282 283
295 296 296 297 298 298 298 294 293 292 287 283 280 287 285 290 291 290 290 289 287 286 285 284 283 281 282 280 280 279 279 281 279 276 278 280 282 283 285 284 282 281 281 281
295 295 296 296 298 298 297 296 295 295 288 282 279 281 283 287 289 289 289 288 285 285 283 283 281 281 280 278 279 279 278 279 279 279 281 283 283 286 286 285 282 280 280 279
294 295 295 296 297 297 293 285 292 296 295 283 276 282 282 282 286 287 288 287 285 285 284 281 281 281 281 278 278 280 280 281 283 281 283 284 284 285 284 282 281 281 280 280
294 294 295 295 296 294 287 285 291 297 295 284 277 276 282 282 281 280 283 284 284 285 281 280 279 278 282 278 274 280 279 280 279 282 281 278 279 279 282 282 281 280 278 279
293 293 294 295 295 295 289 293 296 296 286 285 279 275 278 282 279 275 280 280 281 282 280 278 277 278 280 274 280 279 279 279 279 279 280 279 279 278 278 277 276 274 276 275
292 293 294 291 289 285 286 296 296 295 287 281 276 271 273 282 281 279 277 280 274 279 275 277 277 274 271 273 276 274 272 275 276 277 276 275 276 276 275 274 272 273 274 273
292 290 285 281 286 294 295 289 285 284 284 284 279 274 273 281 279 277 276 276 271 266 273 278 270 267 271 269 268 268 268 268 270 274 274 272 272 274 274 273 274 274 274 272
286 283 281 285 294 287 284 280 280 280 278 281 278 273 275 280 273 272 278 270 271 268 268 268 264 264 268 266 265 265 265 265 265 266 268 269 269 270 271 271 269 268 268 266
286 287 288 286 283 282 277 277 280 278 274 274 273 275 275 276 279 273 272 269 273 265 271 266 263 266 261 260 260 260 260 258 260 261 262 263 263 262 263 262 261 261 261 261
286 283 281 280 278 274 273 270 272 271 274 275 273 274 275 274 278 272 276 265 266 275 266 264 261 262 258 256 256 256 256 256 257 258 258 259 258 257 256 257 257 257 256 256
279 274 273 273 272 274 273 274 275 274 275 276 278 276 276 273 271 275 270 272 269 267 261 262 257 254 252 254 253 251 252 253 254 254 255 255 255 254 254 254 255 254 254 253
277 278 271 272 268 266 263 266 271 274 280 279 276 276 276 272 274 274 271 268 266 264 262 256 255 254 253 252 251 250 251 251 252 252 252 253 253 252 252 252 252 252 253 253
270 264 267 267 268 268 267 271 273 278 280 278 278 275 274 273 272 270 269 268 262 257 252 255 255 252 250 249 250 251 250 249 249 249 250 251 251 250 249 249 251 251 252 253
265 261 262 262 265 262 261 265 265 269 274 270 276 271 270 274 269 261 255 253 253 255 255 255 253 251 250 249 249 248 248 248 247 247 248 248 249 249 251 251 251 252 252 253

GFSNW_sfc_thetae_051.txt.gz
Theta_e
306 305 305 306 307 308 306 299 291 305 315 298 299 294 297 299 298 299 299 299 296 293 293 290 287 288 292 296 296 291 295 292 281 285 288 289 289 289 287 283 280 281 280 286
306 306 304 304 305 306 301 294 292 305 309 290 291 297 296 299 297 297 297 297 298 298 295 290 291 290 296 297 295 292 295 289 282 282 285 287 287 289 292 290 284 284 279 286
305 305 305 304 304 304 302 294 287 294 298 298 295 293 294 294 300 299 299 298 299 296 295 297 293 292 295 296 297 298 299 290 288 286 287 288 284 286 289 290 284 284 286 289
302 304 305 304 303 304 300 293 288 290 288 290 294 294 292 290 292 299 300 296 296 295 292 294 293 295 292 294 296 296 296 288 288 291 290 289 286 286 288 287 289 286 290 289
301 303 304 304 305 305 296 289 286 289 288 292 291 292 290 289 290 294 294 294 297 296 293 295 292 295 295 292 291 294 294 287 289 288 289 289 288 287 287 288 289 290 290 290
299 303 303 304 304 303 293 296 292 292 289 287 286 288 291 290 293 294 295 294 294 294 297 300 301 301 299 297 291 289 290 288 286 285 287 287 284 289 290 291 290 289 285 291
298 299 302 302 304 303 297 296 293 288 283 286 287 290 291 291 292 291 295 296 294 297 299 297 295 291 293 296 294 296 287 288 287 285 286 279 288 293 295 293 294 293 291 291
298 297 300 301 302 303 296 294 294 288 282 284 285 286 288 290 292 292 293 294 297 298 293 288 286 284 288 288 287 291 294 289 286 283 284 286 288 284 287 289 290 296 294 295
297 298 298 300 301 300 299 297 297 291 285 284 287 284 285 283 284 287 288 288 289 293 286 285 281 279 283 281 280 284 288 292 287 283 281 280 283 282 285 291 286 291 294 295
296 297 298 299 300 300 297 296 299 293 285 288 288 285 284 286 285 286 286 285 286 288 285 282 282 282 285 280 278 278 282 284 282 284 283 283 282 281 283 282 283 279 282 286
296 296 297 298 299 300 296 291 298 293 286 288 288 289 285 287 287 287 285 286 285 284 283 284 284 284 284 282 282 280 281 280 280 282 281 279 285 282 284 285 282 283 283 284
296 296 296 297 298 299 298 288 294 298 288 287 291 291 291 294 292 288 286 286 285 288 286 285 285 282 282 282 279 282 281 284 281 284 284 281 282 283 284 284 282 282 284 283
295 296 296 296 296 298 298 288 291 293 286 285 285 282 287 291 292 294 286 286 288 286 287 286 285 282 283 281 280 278 281 282 284 284 284 281 281 285 283 282 281 281 283 284
295 295 296 296 296 297 298 291 293 291 286 282 281 285 284 289 290 291 291 289 288 287 286 284 283 282 283 282 281 283 282 283 281 280 279 281 283 283 285 284 281 281 281 282
294 295 295 295 296 296 295 295 294 294 287 278 279 279 282 286 290 289 290 289 285 284 282 282 281 282 281 279 280 279 279 280 281 281 283 285 284 285 285 285 282 281 280 280
294 294 295 295 296 296 291 285 293 294 293 282 274 281 279 281 287 288 288 286 285 285 284 282 282 281 281 278 278 281 281 282 284 284 283 284 281 285 285 283 281 280 280 281
293 294 294 295 295 291 286 283 290 295 294 283 274 274 281 282 282 283 284 285 284 285 282 281 280 279 281 279 275 281 281 281 280 282 282 281 279 279 283 282 281 280 278 278
292 293 293 294 295 293 288 292 295 295 286 284 277 274 277 283 279 278 282 281 282 282 280 278 277 279 280 276 278 277 277 278 279 279 279 279 279 278 277 277 276 275 276 274
292 292 293 288 285 283 286 294 296 292 286 280 275 272 270 281 279 278 279 281 272 279 276 277 276 271 270 272 274 271 269 271 272 275 276 276 276 276 275 274 274 273 273 272
291 286 275 269 282 293 293 283 283 284 282 282 277 268 270 279 277 275 273 273 268 268 271 277 269 263 269 267 266 266 266 266 267 270 270 269 269 272 272 271 271 272 272 271
283 281 276 280 292 282 279 278 278 278 277 281 279 273 275 280 270 271 277 268 264 261 267 267 261 261 266 265 263 263 263 264 262 264 266 266 266 267 268 266 264 265 264 263
282 280 286 286 282 277 273 274 271 277 275 274 273 274 277 277 280 275 273 267 269 261 262 264 261 264 259 258 258 258 258 257 258 259 260 261 261 260 261 259 259 258 259 259
285 281 278 278 270 272 267 264 266 271 275 275 276 275 276 277 279 274 275 268 268 270 263 263 259 260 257 254 255 255 255 256 256 256 257 257 256 256 255 255 255 255 255 254
274 271 271 269 268 266 273 263 267 270 276 273 278 274 274 275 274 274 270 269 269 264 262 261 255 254 251 252 252 250 251 252 253 253 254 254 254 253 253 252 252 252 252 252
272 274 270 263 259 257 264 267 269 268 278 279 274 272 276 270 274 273 269 265 261 262 261 253 254 253 251 251 250 249 250 251 251 250 251 252 252 252 251 250 250 251 252 252
263 262 263 266 262 259 260 266 271 268 279 280 278 275 273 272 272 270 266 265 261 254 249 252 253 251 250 248 248 249 249 249 249 249 249 252 252 251 248 250 250 251 251 252
259 257 256 258 262 259 260 262 260 264 270 274 276 272 270 273 265 257 253 249 250 251 252 252 252 251 249 246 246 247 248 250 249 248 250 249 247 248 252 251 247 248 248 249

GFSNW_sfc_thetae_057.txt.gz
Theta_e
302 304 304 306 306 306 303 298 288 300 311 293 295 290 294 297 297 299 297 297 295 292 291 289 288 287 290 293 293 289 292 290 280 283 286 287 287 286 287 281 277 279 279 284
301 301 303 304 305 305 295 290 291 302 304 286 288 291 293 297 296 297 296 295 297 296 294 290 291 289 293 295 294 290 293 287 277 282 283 285 284 287 290 287 283 280 278 285
301 301 302 303 303 305 296 287 282 289 294 294 290 288 289 290 299 298 298 296 297 295 293 296 290 290 292 295 295 297 297 289 284 283 283 286 283 285 287 289 284 284 285 288
300 300 301 302 303 304 299 290 285 286 284 285 287 290 290 288 288 296 298 295 295 294 291 292 291 291 292 292 295 295 295 285 288 290 288 286 285 285 287 287 288 285 289 288
299 299 300 301 303 303 296 285 282 286 284 286 286 286 286 287 290 291 291 291 292 294 291 293 291 294 294 294 292 292 295 286 288 286 289 288 286 286 287 288 290 290 290 290
300 299 299 301 302 301 293 291 290 286 285 283 282 285 285 285 290 292 294 293 292 291 292 295 297 298 298 297 295 289 290 288 286 284 288 287 283 287 289 289 291 291 287 292
299 299 299 300 301 301 295 290 289 285 279 282 283 284 286 287 290 287 292 294 291 293 298 297 295 293 294 295 294 297 288 289 287 285 286 279 289 295 294 291 292 292 293 294
299 299 299 300 300 300 293 295 289 285 275 281 282 283 284 285 287 289 290 292 294 296 295 287 286 285 286 287 290 291 296 290 287 284 284 287 288 288 288 289 290 295 292 294
299 299 299 299 300 299 295 290 294 288 283 279 284 282 284 283 282 276 283 288 291 293 287 285 282 279 280 283 284 285 292 294 287 283 281 280 287 287 290 293 287 296 295 295
298 298 298 299 299 299 294 294 294 287 283 285 288 281 281 284 280 275 277 285 286 286 284 282 281 282 282 280 280 277 282 286 285 284 283 285 284 281 287 285 286 280 288 294
298 298 298 298 298 298 294 293 295 287 284 286 289 289 286 285 285 281 279 281 283 285 282 282 283 282 284 282 281 280 283 283 284 285 283 281 284 284 286 287 283 282 282 284
298 298 298 297 297 297 297 289 294 294 284 285 290 291 292 292 289 286 282 279 280 282 278 283 284 284 283 279 277 283 281 285 282 285 285 291 286 288 287 285 284 284 284 285
297 297 297 297 297 297 295 288 292 288 284 284 285 285 289 289 291 295 285 283 286 285 289 286 286 283 284 281 282 277 281 284 283 285 286 285 284 283 284 283 283 282 284 283
297 297 297 297 296 296 296 289 292 290 285 280 280 287 284 287 290 291 292 288 289 287 287 285 284 282 285 277 279 277 280 282 281 282 284 284 284 283 285 283 282 282 283 283
296 296 296 296 296 296 292 289 291 293 285 279 279 281 284 285 288 289 288 289 287 286 284 283 281 284 282 276 279 279 281 282 283 281 283 285 285 285 285 282 282 282 282 281
295 295 295 295 295 295 287 279 286 292 289 282 274 280 278 283 287 288 288 290 288 286 285 283 284 281 282 277 276 280 281 282 284 286 284 282 283 284 286 283 283 282 281 281
294 294 294 294 295 289 284 277 283 294 292 282 274 275 278 283 285 285 286 287 285 286 284 282 281 279 283 279 272 280 278 280 281 283 284 283 281 282 285 286 283 281 279 279
293 293 294 294 294 293 287 289 293 294 286 283 269 271 273 283 280 279 284 282 283 283 282 279 275 279 280 276 279 275 274 276 277 277 279 281 281 280 279 279 278 278 276 275
293 293 293 290 287 282 281 293 294 289 284 277 272 269 266 281 278 279 280 282 277 281 277 276 278 275 275 274 273 270 267 269 270 272 275 276 276 275 275 275 276 275 274 273
292 288 282 278 280 289 291 285 277 282 282 281 275 274 269 278 276 273 275 278 276 272 273 278 275 269 268 265 263 264 264 265 265 269 270 269 270 271 270 269 270 271 270 270
285 277 273 281 289 280 271 270 274 266 271 277 272 275 274 280 268 270 277 274 274 270 272 272 265 264 269 264 261 261 262 263 262 264 265 266 266 268 268 266 264 264 264 263
283 280 283 281 271 270 273 268 265 266 266 274 272 273 277 279 279 276 274 273 272 269 268 268 263 268 260 260 259 258 258 257 258 259 260 260 260 260 260 259 259 258 259 259
281 275 272 274 268 266 262 265 265 260 262 273 272 275 277 278 280 277 275 271 269 270 269 266 265 258 256 255 256 255 255 256 257 257 257 257 257 255 255 255 255 255 255 254
273 269 268 266 262 263 261 261 261 264 264 270 269 270 276 277 276 276 271 272 270 267 264 264 253 252 251 253 252 250 252 253 255 255 256 255 255 253 252 252 252 253 252 252
275 270 263 262 260 257 256 255 259 264 264 267 274 274 275 270 272 274 270 267 267 267 264 251 252 252 252 252 251 251 252 252 252 252 253 253 252 252 251 250 250 252 252 252
267 263 265 256 257 253 255 255 256 260 261 266 271 270 273 272 272 267 267 267 264 259 247 250 252 250 251 251 251 251 251 251 251 250 250 251 250 250 247 249 249 250 251 251
257 252 255 252 251 251 249 250 254 258 260 271 270 265 271 270 263 259 251 250 247 247 249 251 251 251 251 251 251 251 251 251 251 250 250 249 247 249 252 250 248 249 248 249

GFSNW_sfc_thetae_060.txt.gz
Theta_e
302 301 303 304 305 306 301 297 286 298 307 291 293 287 290 295 296 298 296 296 295 293 291 289 287 286 289 292 292 289 290 288 281 283 285 286 285 285 285 280 277 277 278 284
300 301 301 303 304 305 293 290 289 297 301 284 286 288 290 292 293 296 295 294 295 295 292 289 291 288 292 294 294 290 291 287 275 281 283 284 283 286 288 285 282 279 278 284
300 301 301 301 303 304 298 287 279 285 290 289 289 286 286 287 294 293 295 295 297 294 292 295 289 290 292 294 295 298 297 289 285 283 283 285 282 284 286 288 283 283 283 287
300 300 301 301 302 303 299 290 282 284 279 282 285 287 288 286 286 293 295 293 294 293 290 292 292 292 291 291 295 295 295 285 288 288 288 285 285 284 286 286 288 283 288 287
300 301 300 300 301 302 294 286 285 285 282 285 283 284 283 285 287 290 288 290 293 294 291 292 291 294 293 292 291 292 294 286 287 285 288 288 286 286 287 287 289 289 289 289
300 300 300 300 300 300 292 292 291 288 284 282 280 282 284 283 286 289 291 290 290 290 292 296 296 296 295 293 292 290 291 288 285 284 287 285 282 286 288 287 289 289 286 291
300 300 300 300 299 300 295 291 290 285 280 281 281 283 283 283 286 286 289 292 289 292 298 297 295 292 291 292 291 292 287 288 288 285 284 278 288 293 293 291 291 292 292 293
300 300 300 300 299 300 294 293 289 284 280 282 282 282 282 283 283 284 286 290 294 297 293 287 284 285 284 286 288 289 291 288 285 283 284 286 286 287 287 288 289 295 293 294
299 299 299 300 300 300 295 293 294 287 281 280 284 282 282 280 279 276 280 284 289 293 285 284 281 278 278 278 284 286 289 290 285 283 281 278 285 284 289 292 286 293 294 295
299 299 299 299 299 300 295 293 293 288 282 282 284 281 281 282 280 275 274 276 283 287 284 280 279 279 284 281 281 281 283 284 282 284 283 285 284 282 287 284 285 281 284 291
298 298 298 299 299 299 295 290 295 289 284 284 287 289 285 282 281 280 278 283 283 284 281 280 279 280 281 281 283 282 283 283 283 284 282 281 284 283 285 287 283 283 283 285
297 298 298 299 299 299 297 287 294 294 285 284 288 290 292 292 289 286 277 278 276 285 275 281 281 281 281 278 277 282 280 287 284 286 285 289 286 285 287 286 287 285 285 286
297 297 298 298 298 298 295 287 290 290 284 283 284 282 287 290 292 295 285 286 286 284 285 285 283 280 280 278 280 280 283 284 282 282 285 287 286 285 283 283 284 283 284 284
296 297 297 298 298 298 297 287 291 287 284 276 278 287 285 287 288 290 291 288 289 288 287 284 280 280 284 279 282 282 283 284 282 282 284 285 285 283 283 284 282 282 282 283
296 296 297 297 297 297 294 289 290 291 282 274 276 281 284 284 287 287 289 288 287 285 283 283 280 278 278 273 278 281 282 282 281 281 285 285 285 283 284 283 282 282 281 281
295 296 296 297 297 297 289 282 285 291 289 281 275 281 279 279 284 286 287 288 288 287 284 282 283 283 280 274 269 280 282 282 284 283 283 282 283 283 283 282 281 281 281 281
295 296 296 296 296 291 284 277 283 293 291 278 274 272 276 280 285 285 286 287 287 286 284 283 280 279 283 274 276 281 279 280 281 281 283 284 282 284 284 285 284 282 280 280
294 294 295 295 295 292 287 288 293 293 286 282 274 267 274 283 279 281 285 283 284 283 284 281 280 280 281 276 279 276 275 276 276 275 278 280 280 279 279 279 280 280 277 276
294 294 294 289 287 282 280 293 294 291 285 277 273 264 264 279 279 279 281 283 277 281 279 278 279 277 276 278 278 274 272 273 272 271 273 275 277 276 275 276 276 275 274 273
293 288 281 278 277 290 291 286 281 282 282 281 269 273 273 278 277 276 272 275 275 269 275 279 276 274 272 269 266 266 266 266 266 268 270 274 275 274 272 271 272 273 272 271
284 279 278 282 290 283 279 275 274 273 272 270 269 274 270 278 272 274 278 272 271 267 271 273 271 270 272 264 262 262 263 264 263 265 267 267 269 269 268 265 265 266 266 265
284 282 282 281 277 275 272 268 266 271 267 265 272 271 272 278 277 277 275 272 270 265 267 271 267 268 260 260 259 258 258 257 258 259 261 261 262 262 262 260 260 259 260 260
283 276 272 274 269 266 266 263 262 261 259 266 273 272 278 278 279 275 274 270 268 270 267 265 266 258 255 255 256 256 255 257 257 257 258 258 259 257 258 257 257 256 255 254
272 269 266 265 261 259 259 259 261 264 267 262 267 273 272 278 275 276 271 271 269 267 266 263 254 252 252 253 253 254 253 255 256 256 257 257 256 255 255 255 255 255 254 252
271 267 262 261 257 254 251 251 256 256 257 266 272 269 276 271 274 275 271 267 266 266 264 253 252 252 253 253 253 253 253 254 255 256 256 255 255 254 253 253 253 253 253 253
268 262 261 252 256 252 251 252 253 257 259 265 269 267 266 268 270 265 268 268 267 261 248 250 252 251 251 251 252 252 253 253 253 253 254 254 253 252 252 252 252 251 252 252
260 249 252 255 250 248 246 252 254 257 258 268 266 270 264 263 264 262 250 250 245 245 248 250 251 251 251 252 251 252 252 252 253 253 253 252 254 254 253 251 251 252 252 252

GFSNW_sfc_thetae_063.txt.gz
Theta_e
300 301 301 302 304 305 300 291 282 296 304 289 291 285 289 293 293 296 296 296 293 291 290 289 286 285 289 292 292 288 290 287 281 283 285 285 285 285 285 280 276 277 277 284
300 300 301 302 303 304 295 286 289 296 298 281 283 286 287 290 289 292 295 294 294 294 292 289 289 288 291 292 292 290 291 286 275 281 282 283 283 285 287 284 282 279 278 284
301 300 300 301 301 304 298 288 278 284 290 290 285 283 284 284 290 290 291 292 295 293 290 294 289 288 291 293 293 297 296 288 284 282 282 284 282 283 285 287 280 283 282 287
302 301 300 301 301 302 298 289 281 283 277 282 284 287 287 284 284 290 291 289 289 288 286 288 288 290 292 292 294 295 295 287 287 289 288 286 286 284 286 286 287 284 287 287
302 301 301 300 302 302 294 286 285 286 280 283 282 283 282 282 285 287 287 286 288 289 288 289 287 292 292 292 292 292 294 287 289 286 289 290 287 286 285 287 288 288 289 288
301 301 301 301 301 299 291 292 291 288 283 281 280 280 281 281 283 285 289 289 286 286 289 293 294 294 294 293 290 286 288 288 285 283 288 287 282 287 288 289 289 289 285 290
301 301 302 301 301 299 292 292 291 285 278 282 281 282 283 283 284 282 286 289 287 288 294 294 293 290 290 292 292 292 286 285 285 284 285 277 288 294 292 291 291 292 292 294
301 301 301 301 301 301 291 292 290 285 279 282 281 282 281 281 282 283 283 285 289 294 289 284 283 283 282 284 288 289 291 286 283 282 282 286 287 287 286 287 288 294 292 294
300 301 301 301 301 300 292 293 293 287 280 277 283 280 282 279 276 273 278 282 288 289 282 279 276 277 273 275 282 286 289 290 285 283 279 277 285 288 288 291 285 293 294 294
300 300 300 300 300 300 294 290 295 289 282 281 284 278 278 282 280 275 271 274 284 286 280 277 276 276 282 279 275 278 281 283 281 283 281 284 289 285 288 284 284 281 284 291
300 300 300 300 300 300 296 292 294 289 283 281 284 285 281 278 279 277 275 277 279 282 279 270 274 278 280 279 282 282 282 281 281 283 280 278 289 286 287 290 286 286 285 286
299 300 299 299 299 299 299 289 294 294 286 283 288 287 287 288 286 282 276 280 274 282 272 271 269 271 271 272 275 282 278 283 281 285 284 290 287 290 289 286 285 285 284 286
299 299 299 299 299 299 298 291 293 290 284 283 284 283 286 289 290 294 284 280 284 282 282 276 276 277 275 269 276 275 282 283 281 281 282 284 287 289 286 286 286 285 284 284
299 298 298 298 298 299 299 290 292 288 283 276 274 284 283 286 287 289 292 289 289 288 286 283 280 277 280 278 279 277 279 281 278 281 286 287 289 286 286 286 285 283 282 283
298 297 297 297 298 298 297 292 292 290 282 272 268 276 282 285 287 286 286 289 287 285 282 281 280 282 281 279 279 273 280 281 281 282 284 286 287 284 285 285 284 283 281 280
297 297 297 297 297 298 288 283 290 291 288 279 269 278 275 279 282 286 286 287 285 285 283 282 284 284 281 277 273 279 281 283 285 283 283 284 284 284 284 284 282 280 280 280
296 296 296 297 297 291 285 282 285 293 290 280 274 267 275 280 282 283 284 286 286 286 284 283 282 281 283 278 273 280 282 282 282 283 283 283 284 284 282 284 283 282 281 280
295 296 296 297 297 292 286 290 293 293 286 280 270 265 269 279 278 276 284 283 284 283 283 281 279 280 282 277 280 281 281 278 278 279 280 281 280 279 279 280 281 280 278 277
295 295 296 292 288 283 284 295 295 290 282 274 266 263 262 277 279 280 282 283 278 283 280 279 276 271 273 276 278 278 276 275 274 272 271 272 274 275 274 277 277 277 274 274
295 290 283 279 283 291 291 285 282 281 282 279 273 274 270 276 274 275 273 279 276 268 274 278 276 271 276 275 266 267 267 267 267 268 268 267 268 270 271 271 273 275 273 271
284 280 278 283 291 282 279 276 275 274 269 272 267 273 271 273 267 271 278 272 273 270 269 273 265 264 273 265 262 262 263 264 262 263 265 265 267 270 270 268 267 268 268 266
283 281 283 283 278 276 272 271 270 269 264 263 272 271 272 270 273 270 274 270 270 266 266 271 264 269 259 260 260 259 259 259 259 261 261 261 262 262 263 262 262 261 262 261
283 278 274 273 271 268 268 264 260 265 258 263 273 273 272 276 278 273 272 269 266 268 268 263 265 257 255 254 256 256 257 258 258 258 259 258 257 257 258 258 258 258 256 255
275 271 268 265 263 259 258 258 259 260 267 261 272 273 275 271 274 272 271 269 266 261 266 263 253 252 252 253 254 254 255 256 257 257 257 257 257 256 256 256 258 257 254 254
271 267 264 263 254 252 248 248 253 254 254 264 270 271 276 272 273 272 268 265 265 262 260 249 251 252 252 252 253 253 254 254 255 256 256 256 256 255 254 255 256 256 256 255
263 256 257 250 255 253 250 249 250 256 258 261 262 262 271 268 267 267 268 266 266 257 247 249 252 252 252 252 252 252 252 253 254 254 254 254 254 253 253 254 254 254 254 253
254 250 248 250 249 247 248 249 252 257 258 262 263 266 268 264 261 257 251 253 246 247 250 248 250 251 251 252 252 252 253 253 253 253 254 254 255 256 254 252 253 253 253 253

GFSNW_sfc_thetae_069.txt.gz
Theta_e
303 302 301 301 302 303 302 297 287 304 308 294 294 290 293 296 295 299 298 298 296 294 294 293 293 292 295 298 297 292 296 292 288 290 296 297 295 292 292 287 285 288 287 287
303 302 302 302 301 302 300 292 292 305 304 286 289 292 292 294 293 295 295 294 296 297 293 289 293 295 299 298 297 292 294 290 284 287 292 292 290 293 293 293 291 288 284 287
304 303 302 302 302 302 299 293 285 292 295 296 289 287 287 288 294 294 296 294 297 294 292 295 291 293 296 298 297 296 296 290 288 286 290 293 288 290 293 291 286 287 288 290
304 304 303 302 301 302 298 292 287 291 285 286 288 289 288 286 286 293 294 291 292 292 288 290 290 292 293 295 296 295 292 286 288 291 293 293 293 292 292 289 290 286 290 291
304 303 304 303 303 303 294 287 287 291 289 290 287 288 286 285 287 289 287 288 290 291 288 289 287 289 290 290 294 293 293 286 288 286 290 291 288 292 293 293 293 292 293 292
303 304 304 303 302 302 294 294 293 291 287 286 287 285 286 287 289 290 291 290 289 288 290 293 294 294 293 292 289 288 286 286 285 282 288 286 282 288 291 293 295 294 289 295
303 303 304 303 303 302 298 296 291 286 283 285 286 287 288 287 289 288 290 292 290 293 296 294 293 292 291 290 290 292 286 285 284 281 283 276 288 295 295 293 295 297 296 297
302 302 303 303 303 303 298 299 294 286 283 287 286 286 286 287 290 288 289 289 292 295 291 285 281 282 282 283 286 289 290 286 281 278 278 283 286 290 290 289 289 297 297 299
300 302 303 303 303 303 298 298 299 292 284 284 288 286 287 285 285 285 286 290 293 292 287 282 276 274 278 279 284 288 289 290 283 282 277 275 285 291 295 295 284 292 294 294
299 299 302 303 303 303 299 295 299 292 284 288 288 285 285 288 287 284 284 285 285 289 283 279 277 277 282 275 277 280 282 282 280 280 278 282 291 292 294 282 284 289 290 292
298 299 299 302 303 303 299 294 298 292 286 288 289 289 287 287 288 283 284 284 283 283 280 279 279 278 281 279 281 280 280 279 280 282 278 276 292 290 286 288 291 290 290 292
296 297 297 301 302 302 302 291 296 298 288 289 293 292 293 292 291 289 285 285 284 286 283 284 284 280 282 280 275 284 278 282 281 284 284 291 292 292 294 294 292 292 291 292
295 296 296 299 302 302 300 293 293 293 285 286 286 286 292 294 294 296 286 288 288 287 290 286 283 279 283 278 279 281 285 287 283 282 285 287 289 292 294 293 292 293 292 292
295 295 295 299 301 302 301 294 294 291 287 282 283 291 289 294 294 293 293 290 291 290 290 285 282 280 286 280 282 282 285 286 284 284 286 288 291 293 294 293 293 291 292 291
295 295 296 297 301 301 300 295 293 295 288 282 282 285 289 291 292 291 291 290 288 287 282 281 280 284 283 284 283 281 285 283 281 280 286 287 288 291 294 291 291 292 290 289
294 294 296 294 300 300 295 284 292 295 292 283 278 285 285 288 289 288 287 288 287 286 283 281 284 287 284 279 278 284 286 287 289 286 289 289 291 292 293 290 291 290 288 286
293 294 296 294 299 297 287 285 289 296 293 284 277 279 282 286 287 287 286 287 285 284 282 281 282 283 284 280 276 282 286 287 289 290 289 286 288 287 290 290 289 286 284 284
294 295 295 296 299 297 286 289 297 294 286 285 277 276 278 284 280 280 285 281 283 282 281 283 281 283 283 276 282 285 286 287 287 287 287 287 288 285 284 284 284 283 283 283
294 295 297 295 290 284 285 295 296 291 286 278 277 274 273 281 281 282 281 282 277 283 279 279 281 279 276 280 281 281 278 276 274 276 279 280 280 281 281 281 281 282 283 282
295 292 285 281 284 295 295 288 283 283 282 280 277 280 273 280 279 279 280 279 277 274 278 282 278 276 281 271 268 267 267 267 268 270 275 270 273 273 275 277 277 277 278 279
285 282 280 286 293 286 283 279 278 278 276 279 277 280 275 280 276 277 280 277 278 271 276 276 275 275 274 264 263 264 264 264 265 265 266 268 268 268 269 272 272 271 271 272
286 284 286 285 282 279 275 274 275 275 273 275 277 277 280 279 282 279 277 275 275 270 278 274 271 274 260 259 259 260 260 260 261 262 263 264 264 264 264 266 267 266 266 267
285 281 278 278 274 271 270 267 269 270 273 275 276 275 278 279 281 278 276 272 271 275 272 271 274 260 259 256 257 257 258 259 259 260 261 262 261 261 260 261 262 263 262 263
277 275 269 271 270 272 271 273 273 269 275 277 278 276 276 278 276 276 271 274 272 269 268 269 267 256 254 255 256 255 255 256 257 258 259 259 259 258 258 258 260 261 260 259
271 274 267 267 260 259 259 261 265 262 266 277 276 277 277 276 274 275 273 268 267 270 270 266 258 255 254 254 255 254 254 255 256 257 257 257 257 257 256 257 259 259 259 258
263 258 263 261 265 261 261 263 261 262 267 270 276 274 272 272 273 271 270 269 267 270 261 257 256 254 254 253 253 254 254 255 255 256 257 256 256 256 256 256 256 257 257 257
259 254 254 256 257 256 255 257 258 260 264 271 273 270 270 271 269 268 268 270 261 256 256 255 254 252 252 252 253 253 254 255 256 256 257 257 257 258 257 255 255 256 256 256

GFSNW_sfc_thetae_072.txt.gz
Theta_e
303 302 302 300 301 302 302 297 286 303 306 293 293 289 293 295 295 299 297 297 296 294 294 291 291 290 292 295 295 290 293 290 282 286 290 291 290 288 289 282 280 281 281 284
304 304 302 301 301 301 300 292 290 303 303 285 287 291 292 294 293 294 295 294 296 296 294 289 293 294 297 298 295 291 293 287 278 282 287 288 287 289 291 290 285 282 279 283
305 304 303 302 302 301 298 292 284 292 294 293 288 287 287 288 294 293 295 294 296 293 291 293 289 292 296 297 295 296 297 290 284 281 286 291 286 288 290 289 283 284 284 287
304 305 304 303 302 302 297 290 286 289 283 284 287 289 288 286 286 292 293 291 292 291 287 289 289 292 292 295 297 294 291 285 288 289 289 290 289 289 291 289 289 285 287 287
304 304 304 303 303 303 294 287 287 289 287 288 285 287 285 285 287 288 287 287 290 291 288 289 287 291 291 289 291 291 292 283 286 281 287 288 285 288 289 290 291 291 291 289
303 303 304 304 304 302 292 293 293 289 286 285 285 283 285 286 288 289 290 289 288 287 290 292 292 293 292 291 288 286 286 285 284 277 283 282 280 284 287 289 291 291 287 292
302 303 303 304 304 302 295 294 291 286 280 284 283 286 287 286 288 285 289 290 288 291 294 293 290 290 289 289 289 290 283 283 283 275 276 271 283 290 291 290 292 293 294 295
300 301 302 303 303 304 296 297 292 286 281 284 284 285 285 287 288 287 288 288 292 294 290 280 273 272 273 277 284 286 289 283 276 269 267 276 281 284 283 284 284 291 291 292
298 300 301 302 303 304 298 295 297 291 282 281 287 284 285 281 281 282 284 287 290 290 283 275 267 266 270 268 274 282 285 286 280 270 269 264 280 286 291 290 281 287 288 289
297 298 299 301 302 303 299 295 297 291 284 285 287 284 283 286 285 280 279 278 281 285 278 270 269 268 276 268 266 277 279 280 277 276 275 277 284 285 289 277 279 283 285 288
296 297 298 299 300 301 299 296 297 292 285 286 288 289 285 284 286 278 283 282 282 280 277 274 273 270 275 273 277 276 276 274 274 279 276 272 288 284 283 284 285 286 286 289
295 295 297 298 299 298 301 293 297 297 287 285 291 291 292 291 290 285 284 280 277 281 275 274 274 270 273 272 266 280 274 277 273 276 275 287 288 285 288 290 288 287 289 289
294 295 295 297 298 299 297 295 294 293 286 285 284 285 290 292 291 293 282 281 286 283 286 279 277 272 277 269 274 274 279 282 278 277 281 283 285 286 286 290 290 290 289 288
294 294 294 295 296 298 298 292 293 292 286 281 281 290 288 291 292 291 291 288 288 288 285 279 274 272 280 274 277 274 278 279 276 277 282 282 284 285 287 289 288 287 288 288
293 293 294 295 295 297 295 293 293 294 287 280 281 284 287 290 290 289 289 288 284 279 275 275 271 276 276 275 276 276 280 279 277 276 282 283 283 286 286 287 287 287 286 285
293 293 294 294 295 296 290 285 292 295 293 282 276 284 281 285 288 287 286 286 283 280 280 279 277 282 278 269 268 280 282 283 284 282 285 285 286 286 285 286 286 286 286 285
293 293 294 294 294 292 285 285 288 296 292 283 276 276 281 285 284 284 285 287 284 281 280 275 277 279 279 270 273 279 281 282 283 284 284 283 284 284 284 285 285 283 280 279
293 293 294 294 294 294 286 290 296 295 287 284 276 273 277 284 280 279 284 282 283 282 278 275 275 277 277 271 278 280 280 280 282 278 276 278 280 281 280 280 279 277 278 279
293 293 294 291 288 284 285 294 297 294 286 278 276 272 270 281 277 279 280 281 275 280 273 275 275 269 267 275 277 273 270 270 269 270 272 273 273 275 274 275 275 275 276 277
293 290 284 281 284 293 293 289 282 282 281 281 277 276 271 278 275 275 276 276 273 270 274 278 270 270 278 268 266 266 266 266 266 266 269 266 265 268 269 269 271 271 271 271
286 282 281 285 294 286 284 279 277 277 275 278 276 275 273 276 270 272 277 273 273 267 267 270 263 264 272 264 262 263 263 263 262 263 264 265 265 265 265 265 265 265 265 265
285 285 286 284 281 278 275 273 275 274 271 274 275 275 275 275 280 273 276 273 272 262 267 266 261 269 259 258 258 259 259 257 257 259 260 262 262 262 261 260 261 261 261 261
285 281 278 277 273 270 269 266 269 269 272 274 274 271 275 276 278 276 274 270 265 266 264 263 266 259 256 253 254 254 255 255 255 256 257 258 258 258 256 256 257 258 258 259
276 274 268 270 269 270 269 270 270 270 275 275 276 272 273 274 274 275 269 267 267 261 258 261 257 252 250 252 253 250 252 252 253 253 255 255 255 255 254 255 256 257 255 257
268 271 265 262 259 259 259 261 262 264 271 277 274 272 275 271 273 273 270 266 258 262 262 258 253 251 251 251 251 249 250 251 251 251 251 253 252 253 252 254 255 257 258 258
261 255 262 262 262 260 260 260 260 261 267 270 274 272 270 267 271 267 263 260 259 263 251 250 252 249 249 248 248 248 248 248 249 250 251 252 251 251 251 253 255 255 256 256
258 253 254 254 257 254 254 255 257 260 263 265 266 262 261 265 261 260 261 263 255 249 248 250 250 249 247 247 247 248 247 248 249 249 250 251 253 255 255 254 254 255 255 255

GFSNW_sfc_thetae_075.txt.gz
Theta_e
303 303 302 301 299 302 300 293 283 298 303 291 292 289 293 295 296 299 297 296 295 294 293 289 288 288 290 295 293 289 291 288 280 284 288 289 287 286 287 280 278 280 279 283
304 304 303 302 301 302 294 287 288 299 302 282 284 288 290 292 291 294 294 293 295 296 294 290 292 292 295 295 292 291 292 285 274 281 285 287 285 287 288 288 283 281 276 283
304 304 304 303 302 302 297 288 280 288 293 289 285 285 287 288 293 291 293 293 295 293 290 294 290 292 295 295 294 297 296 288 282 278 284 288 284 287 290 288 278 281 283 285
304 304 305 304 303 302 295 290 282 286 281 282 286 286 286 285 285 290 291 289 291 291 287 288 288 291 292 293 295 292 293 285 286 287 288 289 289 288 288 288 288 285 286 286
303 304 304 304 304 303 289 286 284 285 283 284 283 284 283 284 286 288 286 286 289 290 287 288 286 290 290 289 290 291 291 280 286 282 287 287 284 285 286 289 289 289 289 289
301 303 304 304 304 301 291 288 292 288 283 284 281 280 283 284 286 288 290 288 287 285 288 291 291 291 291 290 287 288 287 284 281 270 281 282 275 282 285 286 289 289 286 290
300 301 302 303 304 302 290 288 289 285 276 281 281 284 284 284 285 284 286 289 287 289 293 290 287 286 288 289 288 288 284 284 282 267 270 263 279 285 286 287 288 290 290 291
298 299 300 302 303 304 295 292 287 284 280 281 281 282 282 285 286 284 285 287 289 292 287 277 272 271 273 273 281 285 286 280 269 267 260 273 278 280 281 281 281 287 286 288
297 298 299 300 302 303 299 295 292 284 275 279 285 281 282 277 278 278 282 285 289 289 283 278 271 265 268 266 272 279 285 285 277 262 265 264 277 282 288 288 277 286 287 287
296 296 297 298 300 301 300 295 297 291 283 280 285 278 280 283 280 277 275 282 285 286 278 274 267 266 274 267 269 275 276 279 277 275 273 272 281 282 287 272 276 280 284 286
295 296 296 297 299 300 299 296 297 292 285 282 286 287 282 280 280 276 278 282 282 279 275 272 270 266 273 271 274 275 273 271 271 269 272 270 284 283 281 283 283 284 284 285
295 296 296 296 298 299 299 291 297 297 287 282 289 289 291 290 289 282 279 278 274 280 276 271 270 268 268 270 267 279 271 277 273 276 276 283 285 284 287 287 285 284 284 286
294 295 295 295 296 297 297 292 293 293 286 285 282 284 287 291 291 292 280 282 284 282 282 276 272 269 273 267 268 272 278 280 276 275 279 279 281 284 285 287 286 286 286 286
294 294 294 295 295 296 297 292 293 291 286 282 281 287 287 289 290 290 289 286 287 286 282 274 268 268 278 271 275 274 276 278 272 273 280 280 282 283 285 285 286 287 286 286
293 293 294 294 294 295 293 294 292 293 287 279 275 280 285 288 289 288 287 286 283 276 273 274 274 274 276 271 275 270 278 277 276 273 280 280 281 284 284 283 284 285 284 284
292 293 293 293 294 294 289 283 291 292 291 281 274 282 280 283 287 286 285 285 282 278 274 272 275 281 278 267 260 278 279 280 281 279 282 282 283 284 283 284 284 285 284 284
292 292 293 293 293 289 284 282 283 294 292 282 275 276 281 285 285 284 284 285 280 280 276 271 277 278 278 266 271 279 279 280 280 281 279 279 280 281 281 283 282 280 278 278
292 292 293 293 293 292 286 289 294 294 287 284 275 273 278 286 281 280 284 282 282 279 279 275 276 277 275 268 276 279 276 277 278 276 275 276 277 277 275 276 276 274 275 275
291 292 292 289 286 282 284 293 293 293 286 279 274 272 271 282 280 280 280 281 276 281 276 276 276 267 270 275 277 276 271 272 271 269 270 271 271 272 270 270 270 269 271 271
292 288 283 279 281 292 292 286 282 282 283 281 275 274 272 280 275 275 274 276 274 272 271 278 274 266 277 272 266 266 265 264 265 263 266 261 262 265 266 266 267 267 266 266
286 282 279 282 292 285 282 278 277 278 274 278 277 277 275 275 271 270 277 273 275 269 268 270 261 262 274 264 261 262 262 262 261 260 261 262 262 262 262 261 261 261 261 260
285 281 286 286 282 279 276 275 276 274 272 275 275 274 276 277 280 276 276 273 272 267 264 265 258 269 260 259 259 258 258 256 255 256 258 259 260 260 259 258 257 257 258 258
284 280 278 276 274 270 269 267 268 268 273 274 276 274 275 278 280 275 274 269 266 266 267 263 265 259 255 253 254 253 253 253 253 254 255 256 256 256 254 254 254 255 255 255
277 273 268 269 268 267 269 269 268 270 274 277 277 270 274 277 274 274 268 267 265 258 262 261 260 255 252 251 251 249 250 249 251 251 252 253 253 253 252 251 252 253 253 254
266 269 262 260 259 257 260 261 263 265 277 277 273 273 274 270 272 271 268 264 260 261 261 262 253 251 251 251 249 248 248 249 249 248 248 250 250 249 249 249 249 251 253 255
259 254 260 259 261 260 257 257 261 261 266 272 274 268 269 270 271 267 263 261 259 263 256 249 251 249 248 247 246 247 246 246 247 247 248 249 248 248 249 247 248 250 253 254
257 254 255 253 256 254 255 255 257 260 267 265 266 262 267 270 264 260 260 261 256 247 246 246 247 248 247 245 244 245 245 245 245 246 246 247 247 247 247 247 249 250 252 253

GFSNW_sfc_thetae_078.txt.gz
Theta_e
304 303 302 302 300 301 299 291 281 298 302 293 292 289 293 296 297 300 297 296 295 292 289 287 288 287 289 294 292 287 290 287 280 283 286 288 288 286 286 280 277 278 279 281
304 304 303 302 301 301 294 286 286 297 301 284 286 288 290 293 294 295 295 293 295 296 293 288 291 290 294 294 293 291 292 286 278 282 285 287 285 286 287 286 282 277 276 280
305 304 304 304 302 303 294 288 280 287 293 290 285 285 287 288 293 292 294 294 295 292 290 293 290 292 294 295 295 297 295 286 282 279 282 286 284 285 288 286 277 279 282 284
304 304 304 304 303 302 293 289 282 284 278 285 286 285 286 287 286 291 292 289 292 291 287 289 288 291 291 294 295 293 292 281 284 285 287 288 288 287 287 285 285 282 283 285
302 303 303 304 304 303 288 285 284 284 282 283 285 285 283 284 286 288 286 286 289 290 288 289 287 290 289 289 290 290 290 282 285 281 286 287 284 286 287 287 287 288 287 287
301 302 303 304 304 300 290 287 291 286 282 281 281 282 283 284 287 287 289 288 287 287 289 290 290 291 291 291 288 286 284 284 280 274 281 282 276 282 284 285 288 288 284 289
300 300 301 302 303 302 289 287 286 283 275 281 281 283 284 284 285 284 286 288 286 288 291 289 286 285 286 288 287 289 283 279 274 269 272 270 279 282 284 286 287 290 289 288
299 299 300 301 302 303 294 289 286 283 272 280 281 282 283 284 285 284 285 286 288 291 286 277 272 274 280 280 282 286 285 280 272 270 263 273 277 279 279 279 280 287 286 286
297 298 298 299 300 302 299 294 289 282 275 276 284 281 282 277 277 278 281 285 287 288 281 274 267 267 271 269 274 280 285 283 276 261 261 261 274 280 283 285 275 285 285 285
297 297 298 299 300 300 298 295 294 287 276 280 284 278 280 282 279 276 275 283 285 285 279 271 267 267 273 268 269 270 279 280 277 265 262 269 278 282 285 271 275 279 283 284
296 296 296 297 298 299 297 295 296 291 285 282 285 286 282 280 280 276 276 283 282 279 278 276 272 267 272 270 274 274 274 272 272 275 273 269 282 282 278 281 281 283 282 283
295 295 296 296 296 297 298 291 297 297 287 284 288 288 290 289 287 282 279 279 276 281 278 273 273 269 268 270 267 279 273 276 272 275 275 282 283 284 286 285 283 283 282 284
295 295 295 296 296 297 296 292 293 293 285 285 282 284 287 290 290 291 280 277 283 281 282 276 275 273 274 268 269 272 278 279 276 276 280 280 282 282 283 287 284 285 284 285
294 294 294 295 295 296 296 291 293 290 285 282 283 286 286 290 290 290 288 287 286 285 280 271 269 269 278 271 275 274 277 278 273 273 279 280 281 282 284 284 284 284 284 286
294 294 294 294 295 295 294 293 293 293 287 279 275 279 285 289 290 288 287 287 283 276 274 273 269 271 273 269 273 269 278 277 276 273 280 280 280 282 282 281 281 282 281 282
293 293 293 294 294 294 288 281 289 293 292 281 275 281 278 283 288 287 286 285 280 277 274 270 272 280 277 266 262 277 279 280 281 278 280 280 281 282 281 281 282 282 283 282
293 292 293 293 294 290 284 280 282 293 291 281 276 277 279 283 284 285 284 284 280 279 273 270 277 279 278 268 264 279 278 279 279 279 279 277 279 278 279 278 278 277 276 275
292 292 292 293 293 292 286 288 293 294 286 284 276 274 278 284 281 281 284 282 282 281 276 274 275 278 276 269 276 280 279 279 279 279 277 277 275 276 273 273 272 270 271 272
292 292 292 288 286 282 280 292 293 291 285 278 275 273 272 284 281 281 281 283 277 281 277 276 278 273 272 276 278 276 275 275 275 270 269 269 270 270 269 268 267 267 268 268
292 288 282 278 277 291 290 285 281 281 281 281 275 271 274 281 277 276 275 278 275 272 274 279 275 269 278 276 268 270 269 267 266 266 266 260 261 263 265 264 265 264 264 264
285 280 278 278 290 283 279 275 275 276 273 275 277 275 275 278 272 269 276 271 274 269 272 270 265 264 277 266 263 264 265 264 261 261 262 262 261 261 261 260 258 258 258 258
285 284 285 281 277 277 273 270 273 270 271 275 275 276 279 277 280 276 275 273 273 267 268 266 263 268 264 263 261 260 260 259 257 256 257 259 260 259 258 257 256 255 255 255
285 281 278 277 276 271 266 265 261 270 273 275 272 276 278 278 279 276 274 270 269 269 269 264 265 261 257 255 256 254 253 253 253 254 254 255 255 254 253 253 252 252 252 253
277 274 269 270 268 264 270 266 271 272 273 276 278 274 276 277 274 274 269 269 268 265 264 261 263 259 256 253 252 252 251 250 252 250 251 252 252 252 251 250 249 250 251 252
267 268 265 258 255 259 256 255 257 265 276 279 275 273 275 272 271 272 266 265 264 265 263 263 257 256 254 252 250 249 249 249 248 247 248 250 249 248 247 246 246 247 249 249
260 254 258 258 260 260 256 256 261 262 276 279 274 273 271 269 270 266 263 262 259 264 260 251 252 253 252 249 247 247 246 246 246 245 246 248 247 247 247 244 245 246 247 248
257 253 251 254 255 255 255 255 257 260 265 270 271 269 268 271 266 261 257 262 259 248 246 250 251 251 249 246 245 244 244 244 244 244 244 245 245 244 244 246 246 245 246 248

GFSNW_sfc_thetae_084.txt.gz
Theta_e
304 304 303 301 300 301 298 291 284 297 303 293 290 286 291 296 297 300 296 294 292 287 287 285 286 285 287 292 289 286 288 285 280 282 285 286 284 284 284 279 276 276 277 278
304 304 303 302 301 300 293 286 286 296 301 286 286 289 292 295 294 294 294 294 295 293 289 285 287 287 292 292 290 288 289 283 275 280 283 285 283 284 284 283 282 276 276 278
303 303 304 303 302 302 293 286 281 286 293 291 288 287 288 289 296 294 294 292 294 291 289 291 289 289 292 293 294 296 294 285 282 279 281 284 283 285 285 284 279 280 280 281
302 303 304 305 303 303 293 286 282 284 281 286 287 287 287 287 287 293 295 291 291 289 286 287 287 290 290 292 294 293 292 285 286 285 286 286 285 285 285 284 285 282 283 283
301 302 303 304 304 302 288 285 282 284 282 283 285 286 284 285 287 289 289 288 291 291 287 288 286 288 288 289 292 291 290 285 285 283 287 285 284 286 286 285 285 285 285 285
300 301 302 303 304 301 289 286 288 285 283 282 283 283 283 284 287 288 289 290 290 289 290 293 293 293 293 291 289 289 288 285 283 280 282 284 281 284 284 284 285 286 284 287
300 300 301 302 303 301 292 287 286 279 276 281 282 282 284 283 285 285 286 289 289 289 291 291 290 287 288 289 288 290 285 283 282 274 279 275 281 280 283 285 286 288 287 287
299 300 300 301 301 302 295 290 286 279 271 281 281 282 282 283 284 284 284 285 287 291 288 284 282 281 284 282 282 286 287 283 274 276 274 276 278 280 278 280 281 287 286 287
299 298 299 300 301 301 297 293 291 286 276 276 283 281 282 278 277 278 280 284 287 286 282 278 276 275 278 277 280 284 285 284 281 269 271 267 277 277 280 282 275 280 286 285
298 298 298 299 300 300 297 294 294 288 280 282 282 278 280 283 280 277 275 279 282 284 277 270 271 272 276 275 277 279 279 279 277 267 268 270 278 280 281 272 274 277 284 283
296 297 298 298 298 299 297 294 296 290 284 284 284 285 281 280 281 277 277 281 282 277 275 272 270 267 273 273 277 279 280 278 276 272 270 272 280 279 278 280 281 282 282 282
296 296 297 297 298 298 298 291 296 295 285 285 287 286 287 288 287 283 279 280 278 283 277 273 272 265 266 268 267 278 277 280 277 279 278 281 280 282 283 283 281 282 282 282
295 296 296 296 297 298 296 291 293 291 284 284 286 283 287 288 288 290 281 278 283 282 282 275 271 269 273 267 268 271 277 279 278 279 280 281 282 283 283 283 282 283 283 283
294 295 295 296 297 297 297 289 292 289 285 280 278 285 284 288 289 288 287 285 284 283 282 277 270 269 277 271 275 274 276 278 274 274 278 280 281 282 283 282 282 282 283 283
294 294 295 295 296 297 295 290 291 291 285 278 278 280 284 285 287 286 286 286 282 277 276 275 278 275 275 271 273 270 277 277 276 274 280 281 282 282 282 281 281 281 281 280
293 294 294 295 296 296 289 282 289 292 291 282 276 282 277 280 284 284 284 284 280 278 276 273 274 279 278 271 268 278 279 280 281 279 281 282 282 283 281 281 281 282 281 281
293 293 294 295 295 292 283 279 282 293 291 281 276 273 279 282 281 282 281 283 281 279 276 274 277 278 276 267 270 278 280 281 281 281 280 278 279 279 281 281 280 276 274 274
293 293 294 295 295 293 286 287 292 293 285 281 275 274 277 282 281 280 283 280 281 281 280 273 277 277 276 271 279 279 279 279 279 279 279 280 278 278 276 274 273 270 271 270
293 294 294 291 288 283 281 293 294 291 282 275 276 268 268 278 280 281 282 282 277 282 278 276 278 274 274 277 277 277 276 277 277 273 271 271 273 274 271 270 267 268 268 266
293 290 283 278 282 292 291 285 282 282 282 279 270 262 269 279 274 272 275 278 278 273 277 278 276 277 281 279 275 278 276 276 274 269 267 263 265 270 269 267 266 266 265 263
285 280 278 282 291 281 277 275 275 275 273 276 274 271 269 279 272 277 277 271 274 271 274 276 274 275 279 281 273 274 275 275 275 276 276 274 272 270 267 262 260 260 258 257
282 282 282 282 278 276 272 270 271 270 270 265 269 271 274 278 276 272 276 273 274 269 275 272 267 272 278 275 275 271 271 271 265 263 266 264 264 263 263 261 258 256 254 252
283 279 274 274 272 269 267 263 262 267 258 264 267 268 272 278 279 276 273 271 270 272 271 270 270 275 265 274 265 260 259 262 260 258 259 259 257 257 256 255 253 252 250 248
277 274 269 268 266 262 263 266 267 266 267 264 267 264 270 271 275 275 270 269 267 267 267 269 266 268 271 271 262 261 259 260 259 257 256 256 255 254 252 252 250 250 248 248
273 270 264 264 261 250 247 247 256 257 258 269 265 264 272 269 269 273 268 265 264 266 264 266 269 268 263 259 258 259 259 257 255 253 254 253 252 252 248 244 244 245 245 246
259 257 259 254 257 249 248 247 252 256 265 270 269 263 263 262 268 267 266 265 265 266 262 256 252 251 250 251 253 253 254 253 251 251 251 251 250 250 249 242 242 243 244 245
252 248 246 247 247 249 247 248 253 259 260 270 271 264 266 267 261 262 266 267 264 255 247 247 247 248 247 249 251 250 251 251 249 247 248 246 245 246 245 247 244 242 242 243

GFSNW_sfc_thetae_087.txt.gz
Theta_e
303 304 304 302 300 301 297 290 285 297 303 289 286 285 291 296 297 297 295 294 290 287 287 285 285 285 286 289 290 286 287 285 281 283 286 286 285 284 284 279 275 275 276 278
303 303 304 303 301 301 292 286 287 296 300 285 285 287 292 296 296 296 294 293 293 293 287 285 287 286 292 292 289 287 288 283 274 280 283 284 282 283 284 283 282 276 276 278
302 303 303 303 302 301 292 286 281 286 293 291 288 286 286 288 296 294 294 293 294 291 288 291 287 288 291 293 292 296 293 284 281 279 280 284 282 283 284 284 280 279 280 281
301 302 302 303 303 302 291 285 281 284 282 286 287 290 287 287 287 293 294 289 291 290 287 288 287 291 289 291 293 292 290 281 283 283 284 284 284 284 283 283 285 282 284 283
300 301 302 302 304 301 287 282 281 284 282 283 286 288 285 286 287 291 290 289 290 290 287 289 286 289 289 289 291 290 290 282 284 282 286 284 283 285 285 286 284 283 282 283
300 301 301 302 302 301 287 285 287 284 283 282 283 284 284 285 288 290 290 291 290 289 290 293 293 293 292 291 288 287 287 285 281 279 283 283 281 284 285 285 286 287 283 287
299 300 301 301 301 301 290 289 286 279 276 282 283 283 285 284 285 285 286 290 290 290 293 293 291 289 290 290 290 291 285 284 283 277 282 277 283 279 283 286 287 288 287 288
298 299 300 300 301 302 295 290 285 278 273 282 282 282 283 284 284 284 284 285 287 292 291 285 284 283 284 283 283 287 289 284 276 277 272 277 279 280 282 285 285 288 287 288
297 298 299 300 300 301 296 293 292 283 278 277 284 282 283 280 280 279 281 285 287 286 284 281 274 275 275 276 279 285 286 287 283 274 273 270 279 277 280 282 277 282 288 288
296 297 298 299 300 300 297 294 295 288 278 281 283 279 280 283 281 278 277 281 284 284 279 274 271 270 276 277 279 278 281 281 280 275 275 275 279 280 280 274 278 278 285 285
295 296 297 298 298 299 296 294 295 290 284 282 284 285 282 281 281 278 277 281 280 277 279 277 274 268 273 274 278 280 278 278 276 272 273 273 280 280 278 281 282 282 282 282
295 295 296 297 298 298 298 291 296 295 286 285 288 286 287 287 286 282 281 280 279 283 277 273 271 268 268 268 272 279 279 281 276 278 279 281 280 281 283 284 283 282 282 282
294 295 296 296 297 298 296 292 294 291 284 283 284 283 288 288 287 289 281 278 283 283 282 276 272 270 273 268 269 272 278 279 280 281 279 279 281 282 283 284 284 283 282 282
294 294 295 295 296 297 297 291 293 290 285 276 276 285 284 287 288 288 287 285 284 282 280 275 273 270 278 272 276 275 278 279 275 275 279 281 282 283 283 282 283 283 283 283
293 294 294 295 295 296 294 293 293 292 284 277 273 279 283 285 286 286 286 285 282 276 275 272 273 274 273 269 273 269 277 277 277 276 280 281 283 284 283 282 281 282 281 280
293 293 294 294 295 296 290 282 289 292 289 280 271 280 277 280 284 284 285 286 281 278 275 272 275 281 278 268 266 277 278 279 281 280 283 282 283 284 282 281 281 281 280 281
293 293 293 294 294 291 285 281 285 293 288 279 275 269 277 282 281 281 282 284 282 280 275 272 277 278 280 274 265 278 279 280 280 281 281 278 280 281 281 281 280 277 275 274
293 293 293 293 294 293 287 289 293 292 284 278 274 274 276 282 278 279 283 281 281 281 280 273 276 276 273 272 278 280 280 279 279 280 279 281 280 278 278 275 274 271 272 270
294 293 293 289 287 284 285 294 295 289 281 275 275 270 270 277 276 281 282 281 277 283 279 276 278 276 274 277 280 278 277 278 279 275 273 273 277 277 274 272 270 271 271 269
293 289 283 279 283 292 292 287 282 281 281 277 273 261 269 278 274 278 276 277 278 274 277 278 277 277 281 280 276 278 278 279 275 271 269 266 268 273 271 272 271 272 269 266
285 281 278 283 292 284 279 275 275 276 273 276 267 267 266 275 275 276 277 271 272 271 273 275 274 273 279 282 274 276 278 276 276 280 281 278 278 275 271 265 266 265 263 261
284 283 285 283 279 276 272 271 272 269 265 266 269 272 271 272 272 272 276 273 273 270 276 273 266 275 279 277 277 275 275 275 276 274 275 273 271 271 271 266 263 260 257 255
284 279 276 274 272 269 267 265 265 262 259 267 267 266 273 277 274 271 270 270 271 273 272 267 269 271 275 277 271 272 272 273 269 262 262 263 260 260 261 259 257 255 254 251
275 271 268 265 264 260 264 262 263 266 265 265 264 269 271 271 271 273 270 270 266 265 266 267 266 271 275 266 267 267 266 268 269 265 261 260 259 256 255 256 255 254 252 249
271 268 262 259 258 250 246 245 254 257 255 269 264 266 271 270 263 268 267 265 264 267 268 268 265 256 256 260 259 263 262 261 259 258 258 256 255 254 250 249 250 251 250 249
262 258 258 253 255 250 249 247 254 255 261 265 266 264 263 262 263 262 261 262 262 263 263 258 251 251 250 250 251 252 254 254 254 255 255 254 253 253 249 245 246 247 249 248
253 249 243 247 248 251 248 249 254 259 262 262 262 262 263 265 261 258 264 264 263 265 255 251 248 247 249 247 247 248 250 253 253 253 253 251 249 250 250 250 243 244 242 244

GFSNW_sfc_thetae_093.txt.gz
Theta_e
303 303 303 302 300 301 300 295 287 298 304 288 287 289 295 296 298 300 297 296 293 290 290 288 289 289 292 297 295 290 293 291 285 287 291 292 293 291 290 285 283 285 285 287
303 303 303 303 301 301 299 290 291 298 299 284 285 287 292 296 296 297 296 295 295 294 290 286 290 291 294 294 293 292 292 289 283 284 289 290 289 291 293 292 291 286 285 287
301 302 303 303 302 300 300 291 285 290 294 289 286 285 287 290 298 297 298 297 297 293 290 293 289 291 294 295 294 295 295 291 287 283 287 290 287 289 290 290 286 286 287 289
299 300 302 302 302 301 298 291 285 288 285 287 287 287 286 286 289 296 298 295 295 293 289 290 289 292 293 294 295 294 293 287 289 290 292 291 291 289 290 288 289 286 289 289
299 299 300 301 302 300 295 288 286 288 286 287 286 286 287 285 286 288 291 292 294 295 292 292 290 292 292 292 294 292 293 288 289 287 290 289 288 290 290 289 290 290 290 290
298 298 299 300 302 300 293 293 294 290 285 285 285 285 286 286 288 288 288 292 292 291 294 296 297 298 297 296 293 291 291 288 286 285 287 288 284 287 290 290 292 292 288 292
296 297 298 300 301 301 297 295 294 288 282 284 285 287 288 287 287 286 288 290 289 293 297 296 294 293 293 295 294 295 287 287 287 284 285 278 288 290 293 292 292 294 294 295
295 296 297 298 300 301 298 297 294 289 283 285 284 286 287 288 289 286 286 289 289 296 294 286 284 285 285 285 288 292 293 290 285 283 282 286 290 286 289 289 289 294 294 295
295 296 297 297 299 301 300 297 298 293 286 284 286 285 286 285 286 285 286 289 290 290 287 285 282 280 283 282 283 285 288 291 287 284 282 279 288 289 293 294 284 295 295 294
295 295 296 297 298 300 300 296 298 292 286 289 288 285 284 288 287 285 285 286 287 286 285 284 283 282 283 281 280 281 284 284 283 283 283 286 287 286 290 284 288 288 295 295
295 295 296 297 297 299 299 296 299 292 287 289 288 289 287 286 288 284 284 286 286 284 284 284 284 283 283 284 286 283 283 283 283 284 282 281 286 285 287 290 288 289 293 295
294 295 296 296 297 297 299 292 298 298 289 288 291 291 291 290 291 290 285 286 286 290 287 285 284 281 282 285 281 285 283 288 285 286 288 288 288 289 290 291 290 289 292 292
292 293 294 295 296 297 296 293 295 289 285 287 287 288 292 293 292 294 288 287 288 288 287 288 285 282 286 281 283 285 285 286 286 287 289 288 287 288 288 290 290 290 291 290
291 292 293 294 295 296 297 292 295 292 285 283 285 290 289 293 293 292 292 289 289 288 289 286 284 283 284 284 284 285 286 286 285 285 283 286 287 288 289 288 288 288 288 288
291 292 292 293 294 295 296 294 294 296 289 282 284 286 289 291 291 290 290 290 288 288 286 285 284 284 282 280 281 282 284 285 285 286 288 289 288 289 289 288 287 287 286 285
290 291 292 292 293 294 292 284 292 295 294 284 279 287 285 288 289 288 288 289 289 289 287 286 287 285 284 281 281 286 286 286 288 288 289 288 287 291 290 289 288 287 286 286
291 291 292 292 293 293 286 285 289 295 294 284 279 280 284 287 287 287 287 289 288 288 286 284 285 283 285 282 280 286 286 286 286 287 286 284 285 287 287 287 287 284 282 282
290 291 292 292 293 292 287 292 293 294 286 285 278 278 279 286 282 281 287 284 286 286 285 285 283 282 284 279 284 287 286 285 284 284 284 283 284 285 283 282 281 280 280 279
290 291 292 291 288 284 287 293 294 293 285 280 280 276 275 284 283 284 283 285 280 285 281 282 284 281 277 282 283 284 286 283 284 283 280 279 280 282 280 280 280 280 279 278
289 288 284 280 285 292 292 287 283 282 283 282 278 283 277 281 281 279 280 283 280 277 281 284 279 279 284 285 285 285 285 284 282 277 276 275 277 279 279 280 281 282 280 278
286 281 280 287 292 287 283 278 277 279 276 280 280 280 276 283 278 279 281 278 280 274 278 278 277 277 282 286 285 286 284 285 283 285 286 284 285 283 281 280 280 280 279 277
282 282 283 285 282 279 274 273 277 276 274 276 277 276 282 280 283 280 279 276 277 272 281 277 273 280 283 284 285 285 283 282 282 283 284 283 283 284 282 281 281 279 278 274
282 279 278 278 277 271 269 267 270 270 274 275 277 276 278 279 281 278 277 273 273 278 274 272 277 279 273 271 271 273 278 280 281 282 282 283 282 279 281 280 277 277 272 269
276 275 270 272 269 272 272 274 275 278 277 276 279 276 277 279 276 276 272 275 275 270 269 271 279 274 267 266 267 266 268 268 271 276 279 278 273 272 267 271 272 271 267 264
273 274 269 270 269 267 264 263 270 270 278 277 276 276 277 275 273 275 272 269 268 270 270 276 279 267 264 265 263 262 262 262 264 268 268 266 265 266 266 261 265 267 262 261
266 262 267 263 268 265 266 265 267 265 276 277 276 272 270 270 272 269 269 268 267 272 277 278 269 262 260 259 258 257 257 258 259 263 264 265 262 263 265 259 259 259 261 260
263 258 256 257 260 260 259 258 263 264 271 273 272 268 268 270 268 267 271 270 275 275 266 260 256 255 255 254 254 256 256 256 258 258 258 257 256 256 257 257 256 258 257 257

GFSNW_sfc_thetae_096.txt.gz
Theta_e
303 302 303 302 300 300 300 295 286 299 302 290 290 287 292 296 296 299 295 295 291 289 289 287 288 287 290 295 294 289 291 289 281 284 288 289 288 288 287 282 279 280 281 280
303 303 303 303 301 301 298 291 289 299 297 284 285 289 292 295 296 296 295 294 294 292 289 286 289 289 292 294 293 290 291 286 279 281 286 288 287 288 289 288 285 280 277 280
301 302 303 303 302 300 298 291 285 289 291 286 285 287 289 290 298 295 297 296 295 291 289 291 288 290 293 294 293 296 295 289 285 281 283 287 284 287 288 287 280 280 281 284
300 301 302 302 302 301 297 291 286 288 283 285 287 286 287 288 289 296 297 295 294 291 287 287 288 291 291 293 294 292 292 284 286 287 288 288 287 287 287 285 287 283 286 286
299 300 301 301 302 300 294 288 285 287 286 287 287 286 286 286 289 290 292 292 294 293 289 289 287 290 290 289 292 290 291 283 286 281 287 287 284 287 288 288 288 288 288 286
299 300 300 300 302 301 293 292 293 289 286 286 284 284 286 286 288 288 288 291 293 292 293 295 295 296 295 294 290 289 287 285 283 280 284 284 280 284 287 288 289 288 285 290
298 298 299 300 301 301 296 293 293 287 281 284 285 286 287 287 287 286 288 289 291 293 297 296 294 292 292 294 292 293 286 283 284 279 281 274 285 289 291 289 290 291 291 291
297 296 297 298 300 301 297 296 292 287 281 284 285 287 287 287 288 287 287 288 289 291 293 286 285 285 285 285 287 291 291 286 283 279 275 281 285 284 285 285 286 292 291 293
296 295 295 296 298 300 298 297 297 291 284 282 286 285 286 284 285 284 286 288 290 290 286 285 281 279 283 280 282 286 289 290 285 283 279 277 283 289 291 291 283 290 292 292
296 295 295 296 297 298 298 296 297 291 284 287 287 284 283 287 286 284 284 285 285 286 285 283 282 281 283 279 279 280 284 284 283 283 281 280 284 285 289 280 284 284 289 292
296 295 295 296 297 297 297 294 297 290 285 287 287 289 285 285 286 282 284 284 284 284 283 283 282 282 282 281 282 283 283 283 282 284 281 278 284 284 285 287 283 284 288 291
294 295 295 295 296 297 298 291 297 297 286 286 290 290 291 289 289 288 284 284 284 287 284 284 284 280 281 282 278 284 281 285 284 285 283 285 285 284 286 287 286 284 286 288
294 293 294 295 296 296 296 292 294 290 285 285 285 285 291 292 291 292 285 285 287 286 286 286 283 281 283 278 278 280 284 285 285 284 284 283 284 285 285 286 285 286 286 286
292 292 293 293 294 295 296 292 293 291 285 281 281 289 287 291 292 290 290 288 288 287 286 283 281 279 283 280 280 282 283 283 281 281 283 284 285 286 287 286 284 285 285 286
291 292 292 292 293 294 294 294 294 294 287 280 279 282 286 289 290 289 289 289 286 284 282 282 279 281 280 278 278 277 281 282 282 281 286 287 286 287 287 285 284 284 284 284
290 291 291 292 292 293 289 284 291 294 293 282 277 283 281 283 286 287 287 287 285 284 282 281 283 282 282 276 273 282 283 284 285 284 285 285 284 286 286 285 285 284 283 283
289 290 290 291 292 289 285 283 288 294 293 282 278 277 281 283 283 283 284 286 283 283 282 280 281 281 282 277 271 282 282 282 282 282 282 281 283 284 285 285 284 282 279 278
289 290 291 291 292 290 283 289 293 294 286 284 277 275 275 283 279 279 283 281 283 280 279 279 279 279 279 273 280 282 282 282 281 283 283 283 282 282 281 280 280 278 278 277
289 290 291 288 284 282 281 293 294 292 284 279 278 270 267 279 279 279 282 284 278 279 274 278 279 275 275 278 280 281 282 281 283 280 278 276 277 278 277 276 275 276 277 276
288 285 278 274 281 292 291 283 282 282 282 281 277 273 272 279 275 276 274 275 271 274 277 280 275 276 281 282 282 280 281 282 279 275 275 272 274 277 277 277 278 280 280 278
279 273 272 280 291 283 280 276 274 277 274 274 276 277 272 277 273 273 278 271 270 266 270 273 269 266 280 283 281 281 282 282 280 283 283 281 280 280 278 277 277 277 275 277
278 280 283 280 280 277 273 271 274 269 267 273 271 272 276 273 277 271 272 271 269 268 271 269 266 273 276 273 272 273 275 275 276 277 280 279 279 280 279 279 278 277 278 273
278 275 274 276 272 270 269 263 262 263 270 269 269 268 274 275 276 271 275 272 271 272 270 266 269 271 266 263 263 264 266 267 269 271 270 271 271 270 271 273 271 274 275 274
273 270 269 270 270 265 270 266 267 270 270 272 271 267 272 272 270 271 269 272 271 268 267 264 267 266 262 260 260 259 260 260 261 263 264 265 265 267 264 264 265 271 271 266
269 272 268 270 269 260 257 259 266 264 271 276 275 274 277 275 273 274 266 264 265 265 263 265 265 257 257 257 256 257 257 257 256 257 258 260 260 259 261 257 260 261 261 263
265 263 264 261 265 258 259 260 259 262 271 273 275 273 271 271 271 268 266 264 261 264 263 258 256 253 252 251 251 252 252 252 255 257 256 258 256 255 254 252 253 254 255 257
263 256 258 256 257 255 255 255 256 263 268 267 269 269 268 270 267 264 263 262 260 256 252 252 249 249 249 248 248 249 250 252 253 252 252 251 251 251 251 252 251 251 251 253

GFSNW_sfc_thetae_102.txt.gz
Theta_e
303 303 303 301 301 302 299 290 285 296 304 292 292 288 289 293 293 294 293 290 288 286 287 284 284 283 287 292 290 286 288 286 280 283 287 288 286 286 285 282 279 279 279 279
302 302 302 301 301 303 296 285 285 296 298 284 286 290 291 292 293 293 292 289 290 289 287 284 285 286 290 291 291 288 290 284 277 281 284 286 285 285 286 285 282 279 276 279
302 302 303 302 301 302 296 288 283 285 288 287 288 287 288 288 295 295 294 292 291 288 286 288 285 286 289 292 293 296 294 286 283 280 282 286 283 285 285 285 279 278 280 282
300 302 303 302 302 300 294 289 284 285 282 285 289 290 288 287 288 293 293 290 289 288 284 286 285 288 288 289 293 292 291 281 284 283 285 286 285 286 286 284 287 282 285 282
299 300 301 302 302 301 292 284 285 287 285 285 289 290 287 287 287 289 287 288 290 290 286 288 284 288 287 286 288 288 289 279 283 281 285 285 283 285 287 287 286 285 286 284
300 300 300 301 302 298 287 289 290 288 286 284 284 285 287 288 290 288 290 290 291 289 291 293 292 293 292 291 288 287 287 283 280 281 283 284 280 284 285 286 288 287 284 289
299 299 300 301 302 298 290 289 288 284 281 284 283 286 288 287 290 287 289 290 290 291 292 294 293 292 290 290 289 290 283 283 281 278 280 276 286 288 288 287 288 290 289 287
299 299 299 300 301 301 292 292 286 281 281 285 284 285 285 287 290 286 288 288 289 291 292 287 286 285 285 285 286 286 286 282 275 274 265 279 283 284 285 284 286 289 289 291
298 298 298 299 300 301 293 292 291 285 282 282 287 284 285 283 283 283 285 288 290 291 287 286 282 281 282 281 282 287 286 285 281 265 270 271 282 285 287 289 283 292 291 291
297 296 297 298 299 300 293 290 293 286 281 284 287 284 284 287 285 283 284 284 285 286 285 285 283 282 283 280 279 281 281 279 280 268 268 275 282 284 287 280 283 284 289 290
297 296 296 296 297 299 294 291 293 288 281 284 286 288 286 286 285 280 284 284 284 283 283 284 283 284 282 280 280 281 281 279 278 274 272 276 284 284 285 287 282 284 286 288
296 296 296 296 297 298 295 290 293 292 284 284 289 289 290 289 289 286 285 283 283 286 284 284 284 280 280 278 276 284 282 285 284 284 282 284 283 284 284 286 284 283 284 285
296 296 296 296 296 297 294 290 293 287 280 281 282 284 289 291 289 291 284 284 288 286 289 285 283 280 282 278 278 280 285 286 284 286 284 284 283 283 285 285 285 285 285 285
296 296 296 296 296 297 294 288 292 286 278 272 278 287 286 290 290 289 290 288 288 287 286 283 281 280 283 282 280 280 284 287 285 283 284 284 286 286 286 285 284 284 285 285
295 295 295 295 296 297 292 290 292 292 282 273 272 281 284 287 289 288 288 288 285 283 282 281 279 281 278 277 277 275 283 284 284 283 287 288 287 286 286 285 285 285 284 285
293 294 294 295 296 292 283 275 288 293 291 275 268 279 280 284 286 286 286 286 283 282 279 279 281 283 281 272 266 279 282 285 286 285 287 288 288 287 286 286 285 285 284 284
292 292 292 293 293 285 278 275 284 293 291 276 272 266 280 282 282 282 283 285 281 281 279 277 280 281 281 272 275 281 282 284 283 284 284 282 283 284 285 285 283 280 278 278
290 291 291 291 293 289 279 285 294 293 286 282 268 271 272 282 277 278 280 279 279 278 277 278 279 279 276 270 277 280 281 282 282 283 283 282 282 281 280 278 278 277 277 276
289 290 291 284 278 271 275 291 291 289 284 276 273 267 267 280 276 279 276 278 275 277 275 277 277 272 271 275 278 280 282 282 282 279 275 274 277 276 275 275 274 275 277 274
288 279 270 266 270 287 289 276 278 276 281 274 267 261 268 280 276 273 273 273 269 272 275 279 275 270 279 280 279 280 281 280 278 277 276 273 273 274 274 274 274 275 275 273
271 266 263 272 284 274 266 268 267 268 267 268 267 268 269 278 272 269 275 270 265 265 268 271 265 270 278 280 278 276 277 279 277 276 277 275 275 275 274 274 270 269 270 271
273 271 273 269 268 265 263 262 264 264 263 264 274 270 275 275 274 269 270 265 264 262 263 265 262 271 269 269 269 267 266 268 270 269 270 270 272 270 269 269 270 268 269 269
269 266 262 265 263 268 263 256 263 259 258 270 264 267 277 276 277 271 270 266 267 270 270 264 268 266 262 260 261 262 260 261 262 262 263 264 264 265 263 263 262 263 265 268
262 259 258 259 258 260 268 258 261 265 263 265 263 271 269 271 272 274 266 268 266 260 262 262 261 255 252 255 255 256 255 255 257 256 257 258 259 259 259 259 258 259 260 261
258 261 258 255 257 262 254 254 255 259 261 264 266 265 271 266 269 269 265 266 264 261 262 261 254 251 252 252 251 251 251 251 252 252 253 254 254 254 255 254 254 253 255 257
256 256 257 254 257 259 257 250 252 263 263 263 266 263 265 263 266 265 264 262 258 263 250 250 250 248 248 247 247 248 248 248 248 249 250 251 252 251 251 251 248 250 250 252
251 250 246 248 250 254 253 254 256 262 264 263 264 265 265 267 264 261 262 264 254 252 248 247 246 246 247 246 246 247 247 247 248 247 248 249 249 247 248 251 251 248 247 247

GFSNW_sfc_thetae_105.txt.gz
Theta_e
303 302 302 302 300 303 298 289 285 297 297 292 292 288 288 293 290 291 290 288 286 285 286 282 284 282 287 292 289 285 287 284 279 282 285 286 286 286 287 283 279 277 278 278
303 303 302 301 302 302 293 285 285 296 295 285 286 291 290 291 291 291 288 287 288 287 286 283 285 285 290 292 291 288 289 283 276 280 284 285 284 285 286 285 283 279 276 281
302 302 302 301 301 303 295 288 283 286 289 288 290 288 288 287 292 292 292 289 289 287 286 288 285 286 289 291 292 295 293 285 283 279 281 285 282 284 285 285 281 280 280 283
301 302 302 302 302 301 294 288 283 284 282 284 290 291 289 285 287 292 292 287 287 287 283 284 284 287 288 290 293 292 290 282 283 282 284 286 285 285 285 284 286 282 286 283
300 301 302 302 302 300 291 283 285 286 285 286 288 289 287 287 286 289 287 286 287 288 285 286 283 287 287 287 288 290 288 279 283 281 284 284 283 286 286 286 287 286 286 284
300 300 300 301 302 297 286 288 292 287 285 284 286 286 287 288 288 289 289 290 289 287 290 291 291 292 291 290 288 288 287 281 277 275 282 282 279 283 285 286 288 288 283 288
300 300 300 301 301 297 289 289 289 284 281 284 285 288 289 289 288 286 289 291 290 291 292 293 293 291 290 290 288 289 285 286 281 275 279 274 284 287 287 286 287 289 290 287
299 299 300 301 301 300 291 291 287 285 280 285 284 286 288 289 289 287 288 288 289 290 291 287 285 284 285 284 285 285 285 284 277 278 271 279 283 284 285 284 287 289 289 289
299 299 299 300 301 300 292 291 291 287 283 282 286 285 287 286 284 284 285 288 290 290 287 285 281 278 278 278 281 286 285 284 282 267 276 275 285 285 287 289 282 293 291 290
298 298 298 299 300 300 293 291 292 287 281 285 287 283 283 286 285 283 284 285 287 287 285 283 282 279 281 278 278 280 279 278 279 267 271 274 281 283 287 280 284 284 287 290
297 296 297 298 299 299 294 292 292 287 282 285 287 289 286 285 285 282 284 285 284 284 286 285 284 278 280 279 281 281 281 279 277 271 269 276 283 282 284 286 282 283 286 286
297 297 297 297 298 299 295 288 293 291 284 284 289 289 290 290 289 287 285 284 283 286 284 284 284 281 281 277 278 283 282 284 282 282 281 285 284 283 284 285 284 283 284 284
297 296 296 296 298 298 294 289 290 287 281 281 283 283 288 290 289 290 284 285 288 286 288 285 284 280 282 280 276 279 283 285 283 285 283 283 283 283 284 284 284 285 285 284
296 296 296 296 298 297 294 289 290 286 280 276 279 286 285 289 289 289 289 288 288 288 287 284 282 276 283 277 279 279 283 286 283 281 283 283 283 284 285 284 284 284 284 285
296 296 296 297 297 296 291 290 293 291 282 274 275 281 284 286 288 288 288 287 286 284 283 281 280 280 277 276 278 277 285 285 284 280 286 286 286 285 285 284 285 284 284 284
295 295 296 296 295 290 283 276 285 293 289 275 271 279 280 283 285 285 285 285 282 283 282 281 281 283 282 276 270 280 283 285 290 288 291 291 291 288 286 284 283 284 284 283
293 294 294 294 294 286 278 275 282 293 289 275 273 269 280 282 282 281 282 283 281 281 280 279 281 281 281 274 274 282 282 284 283 285 285 283 284 284 285 285 284 281 279 279
292 292 294 294 292 287 280 286 294 292 285 275 266 272 276 283 278 276 280 278 278 278 277 279 279 280 277 269 276 280 282 282 283 283 282 283 283 282 280 278 277 277 276 275
292 291 290 284 278 272 276 292 290 287 280 270 265 268 269 281 277 280 279 278 272 276 273 277 278 272 271 275 278 279 281 281 282 278 275 275 277 276 276 274 273 274 277 275
286 278 270 267 271 287 288 276 273 272 274 274 266 261 271 279 277 273 274 273 272 273 275 279 270 268 279 280 278 279 280 280 277 276 276 273 274 274 274 274 273 274 274 274
270 263 264 271 283 273 266 268 264 268 264 269 271 266 271 278 270 272 275 269 266 265 269 271 263 267 276 275 274 270 271 273 274 274 274 273 272 272 272 271 269 267 267 267
272 271 272 268 266 262 262 259 264 266 263 262 273 270 273 272 274 269 270 265 267 262 264 268 262 269 266 265 265 264 263 264 266 266 266 267 267 266 267 265 264 263 263 264
268 264 261 263 260 261 256 254 259 258 256 264 266 271 275 276 277 271 268 264 265 269 268 266 266 264 260 258 259 261 259 260 261 261 261 262 262 261 260 259 257 258 259 260
262 257 258 256 254 257 264 255 254 259 261 266 264 272 267 267 274 275 267 267 266 262 263 263 259 254 252 254 254 255 255 255 256 256 257 258 258 258 257 256 255 255 256 257
258 259 255 253 254 256 258 258 252 259 263 264 268 267 270 270 271 272 268 266 264 262 262 259 253 250 250 251 250 250 251 251 252 252 252 253 253 254 255 255 253 252 253 255
254 254 255 252 253 257 253 253 258 260 263 265 265 266 265 263 267 266 266 262 259 262 250 248 249 246 246 246 246 247 246 246 246 248 248 250 250 250 250 250 250 250 251 252
250 249 243 246 253 255 252 250 256 260 262 268 265 260 262 266 265 260 258 259 254 247 247 246 246 246 246 245 245 247 248 249 249 247 248 246 246 244 247 248 248 246 247 245

GFSNW_sfc_thetae_111.txt.gz
Theta_e
304 303 303 303 301 303 297 291 285 296 301 287 285 286 287 291 288 289 287 286 284 285 286 282 285 283 287 292 290 284 286 283 278 280 284 285 286 284 286 281 277 277 278 279
304 303 303 302 302 302 292 287 286 295 298 283 284 290 289 289 287 287 286 284 286 287 286 283 285 284 290 293 290 287 286 282 274 280 282 283 282 282 288 284 281 278 276 281
304 303 303 301 304 301 293 288 283 287 289 285 286 286 288 285 290 288 288 286 287 286 284 286 283 283 287 291 292 294 293 284 282 279 281 283 281 282 283 285 278 281 280 284
303 303 303 301 303 303 292 289 282 285 281 283 285 290 288 284 285 288 288 284 287 286 283 283 282 284 284 287 293 290 288 281 281 280 282 284 283 283 283 283 285 282 285 285
302 303 302 302 302 301 288 284 285 286 283 285 286 286 286 286 284 286 285 284 286 285 283 286 280 284 284 284 286 287 286 278 282 279 281 282 281 284 285 286 286 285 287 285
301 301 302 302 301 296 286 289 291 285 284 284 285 286 286 288 289 289 288 287 286 284 285 288 290 290 290 289 288 287 286 281 276 279 280 280 276 282 284 285 287 287 283 288
300 300 301 301 301 295 289 288 287 281 277 283 284 286 289 289 289 286 287 288 288 289 293 294 292 289 287 287 287 288 285 284 276 269 273 274 283 284 287 286 287 288 289 286
298 300 300 301 301 298 290 288 286 280 276 282 283 285 287 290 289 287 288 288 290 292 292 286 283 282 284 281 282 283 285 282 273 275 269 279 283 284 282 282 284 287 286 288
299 298 300 301 300 299 291 289 289 285 279 280 285 284 286 287 286 285 285 289 290 291 287 285 280 278 275 274 276 280 284 286 281 269 274 273 284 285 285 288 282 291 287 287
299 298 300 301 300 299 292 288 289 285 283 285 287 283 284 285 287 284 285 286 287 288 286 283 280 274 278 276 277 276 273 275 280 274 278 276 283 283 287 279 283 283 286 287
299 299 298 300 300 299 292 288 290 286 282 285 288 287 285 285 285 285 285 288 286 286 285 284 283 272 278 275 279 278 276 275 273 268 277 276 282 283 285 288 284 286 286 287
299 298 298 298 299 298 294 287 290 290 283 285 289 289 290 288 287 286 285 285 286 289 286 285 284 280 277 275 272 282 278 282 278 282 281 284 282 284 285 285 286 285 287 287
298 297 297 299 298 298 293 287 286 285 283 284 284 283 288 290 289 291 285 285 287 285 288 285 280 276 278 274 273 278 283 284 281 282 282 282 283 283 284 284 283 284 285 284
297 297 298 298 298 297 293 288 288 283 277 278 281 286 284 287 288 291 292 290 290 288 287 284 283 280 283 277 278 278 283 284 279 278 282 282 282 284 284 284 284 284 285 285
297 297 297 298 297 296 291 289 290 287 281 274 279 283 285 285 289 290 291 289 286 285 284 283 280 282 281 278 278 275 285 284 283 278 284 284 283 284 285 284 283 283 283 283
297 297 296 294 293 289 284 283 286 292 285 278 274 280 281 284 286 286 285 286 284 284 284 282 282 283 281 276 269 279 284 287 288 288 288 286 285 284 284 284 283 282 282 282
296 296 296 295 294 288 279 278 286 292 286 276 270 271 281 283 283 283 284 284 282 283 281 281 281 281 281 274 274 280 286 288 288 289 288 286 287 286 283 283 282 280 278 277
294 294 293 292 292 288 283 287 290 288 278 274 267 268 276 282 278 279 281 280 280 279 279 280 279 280 278 276 278 280 281 282 282 283 282 285 283 282 280 279 279 280 277 276
290 290 289 282 276 275 276 290 286 282 279 268 263 266 268 280 279 279 278 279 274 279 277 278 278 273 274 275 277 277 275 277 279 277 277 278 278 276 275 276 276 275 274 273
287 279 271 267 274 286 283 273 270 271 268 269 264 262 269 278 275 274 274 274 271 271 274 278 273 270 272 269 268 269 270 271 272 275 275 274 273 273 272 271 270 270 270 269
270 264 265 274 281 272 265 263 263 260 262 265 267 264 267 276 271 269 274 268 267 266 269 270 270 268 270 268 265 264 266 267 266 269 269 269 269 270 270 267 264 263 262 261
270 271 269 266 264 262 263 259 259 259 259 261 266 269 271 270 274 271 268 265 264 263 265 267 261 268 261 260 261 260 260 261 261 262 262 263 263 262 263 261 260 259 260 259
266 264 260 262 260 259 256 254 258 257 258 260 263 271 273 270 271 265 266 264 263 265 263 264 264 261 257 256 257 258 257 258 258 257 258 258 259 259 257 257 256 256 256 255
260 256 257 255 252 255 253 254 254 260 261 261 263 269 272 271 268 266 263 262 264 258 261 262 258 252 251 254 254 254 254 254 254 253 254 255 255 256 255 253 253 253 253 252
257 257 253 252 254 253 253 253 255 258 258 260 262 268 271 271 269 269 263 262 258 261 262 257 254 252 252 251 251 250 251 251 251 251 251 252 252 252 252 250 249 249 251 250
253 252 252 249 251 253 251 250 253 258 259 260 262 263 264 266 264 264 262 260 259 261 250 249 251 248 249 248 248 249 248 248 249 250 250 251 250 249 248 248 248 249 247 250
249 248 239 243 247 249 247 249 256 259 256 260 264 265 267 264 262 262 257 259 254 247 247 247 247 246 246 244 245 246 246 246 248 248 249 249 248 248 248 249 248 246 246 245

GFSNW_sfc_thetae_114.txt.gz
Theta_e
304 304 304 303 302 303 299 295 286 296 302 286 285 286 288 292 293 295 290 294 291 289 289 288 288 288 291 295 293 290 292 287 283 286 289 292 293 291 291 286 283 285 283 286
305 304 304 303 302 303 296 288 288 297 299 283 284 288 289 292 291 291 291 290 292 293 289 285 290 290 295 296 294 292 290 286 281 282 287 288 289 290 293 291 288 285 284 288
304 303 303 302 304 302 296 289 284 288 291 287 286 285 286 287 294 290 291 291 293 291 289 290 288 288 290 295 295 295 294 287 286 281 285 288 285 288 291 291 285 286 286 290
304 304 303 303 304 301 296 289 284 286 283 285 287 288 287 287 286 291 292 289 291 291 287 288 287 288 288 293 294 293 293 286 287 287 288 289 288 287 288 288 290 286 289 289
303 304 302 303 303 301 291 286 285 287 286 287 288 286 285 287 288 289 289 289 291 292 288 290 286 289 290 289 291 292 291 287 287 283 286 288 286 288 289 289 290 290 290 290
303 303 303 302 302 297 290 292 292 289 285 285 285 286 286 289 291 291 293 292 291 289 292 295 294 294 293 292 290 290 289 287 285 283 285 286 283 286 288 289 291 291 287 292
302 302 302 302 301 296 292 291 290 286 282 286 287 288 289 288 291 289 290 293 291 291 296 296 294 291 291 292 291 293 288 287 287 280 282 277 288 293 292 290 291 293 293 294
301 301 302 302 300 297 293 292 290 286 281 284 285 287 289 291 292 288 290 289 291 296 294 288 286 285 285 282 286 289 292 289 283 282 282 286 288 287 288 287 288 293 292 294
299 300 301 301 300 298 293 291 291 289 284 282 286 286 288 288 285 287 286 291 293 294 289 286 283 281 282 281 283 286 289 292 287 279 280 277 287 290 292 293 284 295 294 293
298 300 301 301 300 298 294 291 292 290 284 286 286 284 286 288 289 286 286 287 289 290 288 285 285 283 284 280 279 281 284 285 283 283 283 286 289 289 294 284 287 292 293 295
298 299 300 301 300 298 295 291 292 290 286 286 287 287 286 286 289 287 286 289 288 287 286 286 286 284 282 283 285 284 284 283 283 284 282 280 289 288 288 293 292 292 291 291
299 299 299 300 299 298 295 291 292 292 286 284 288 289 289 288 287 288 287 288 287 292 287 286 286 282 281 283 281 286 284 289 286 287 287 290 290 292 290 290 292 292 293 291
298 298 299 299 299 298 294 289 289 290 285 286 286 284 288 289 288 291 287 286 290 290 292 289 285 284 284 282 283 285 286 288 288 288 288 288 288 288 288 289 289 289 290 290
298 298 298 299 298 297 294 288 289 287 284 281 282 289 286 288 289 292 292 290 290 290 290 286 285 284 284 283 286 287 288 288 285 285 285 286 287 289 288 288 288 287 287 287
297 298 298 298 297 296 292 291 291 290 286 280 282 285 286 288 291 290 290 289 287 286 285 285 284 285 284 281 283 284 287 287 287 287 289 289 287 288 289 288 287 287 286 285
297 297 297 296 293 289 289 285 290 291 287 283 278 282 283 285 287 287 286 287 286 286 285 283 284 285 285 284 284 283 288 289 291 289 290 288 287 288 287 286 285 285 285 285
296 296 296 295 294 290 284 282 287 291 287 281 277 278 283 284 285 285 285 286 284 285 284 283 283 283 284 281 281 282 287 290 290 290 289 286 288 285 286 284 282 281 279 279
295 295 294 293 293 289 283 287 290 287 281 279 273 275 280 284 281 281 283 283 283 281 282 283 282 282 282 279 279 280 280 284 284 282 285 289 284 283 281 282 282 281 279 278
291 291 288 285 280 278 280 289 287 284 282 274 272 273 274 282 280 281 282 281 278 281 280 280 281 278 274 271 274 273 272 274 277 280 280 281 280 278 278 279 278 278 276 275
288 282 276 274 278 285 283 276 275 273 270 273 270 267 274 279 277 277 279 277 275 275 276 279 277 273 270 268 267 267 268 269 271 279 277 276 275 275 273 271 271 272 272 270
275 273 274 278 280 276 269 267 268 266 268 268 269 270 274 278 276 274 275 274 272 273 274 275 273 273 269 267 264 264 265 266 266 269 269 269 272 273 270 267 265 265 265 264
274 275 272 271 268 267 266 261 263 265 264 264 268 271 275 275 277 276 273 272 271 270 270 273 271 269 261 262 261 260 261 261 261 263 263 264 263 265 264 263 262 261 261 260
271 267 264 267 263 262 260 257 262 263 261 262 264 270 274 276 275 271 272 270 269 269 270 270 269 261 258 257 258 259 258 259 259 259 260 261 260 259 259 259 257 258 258 256
263 261 259 259 258 258 259 259 260 262 262 261 262 266 272 273 272 270 269 266 268 266 266 268 262 256 254 255 255 256 255 255 256 255 257 257 257 257 255 254 254 255 255 255
260 260 256 257 257 256 257 256 257 260 259 261 265 267 271 273 272 268 265 265 264 266 267 262 257 254 253 253 253 253 253 253 253 253 253 254 254 254 254 253 252 253 254 255
256 254 256 254 256 256 255 254 256 259 259 260 262 266 269 269 269 266 264 264 264 266 257 254 254 252 251 250 251 251 251 251 252 252 252 253 252 251 252 252 252 251 252 252
253 251 243 249 251 254 253 251 256 259 258 260 261 265 265 267 264 263 263 265 260 254 252 252 251 251 250 249 249 249 249 250 251 251 252 252 251 251 253 254 253 251 252 250

GFSNW_sfc_thetae_117.txt.gz
Theta_e
304 304 304 303 303 304 301 297 286 297 302 287 285 286 286 291 294 297 297 296 294 291 293 291 292 291 297 301 297 292 294 290 284 287 291 296 296 293 293 288 285 289 287 288
304 304 304 303 304 303 299 290 289 297 298 282 284 286 287 291 294 295 295 294 296 297 294 290 295 295 299 300 296 294 293 288 282 283 289 291 291 293 294 294 290 287 285 289
304 304 304 303 303 303 299 291 285 287 291 289 286 285 286 287 296 296 297 295 296 294 292 294 292 293 295 298 297 297 295 289 287 283 286 289 286 290 292 292 286 288 288 292
305 304 303 302 304 302 298 292 287 287 283 285 288 286 287 287 288 292 296 292 292 292 288 289 288 289 290 296 297 295 294 287 289 290 291 290 288 288 290 290 291 288 291 291
304 304 303 304 303 300 294 288 286 288 286 287 287 285 285 286 288 290 291 291 293 293 289 291 288 290 291 290 294 292 294 287 289 285 289 290 288 290 291 291 292 292 292 291
303 303 303 304 303 298 293 293 293 291 286 286 286 286 286 288 292 292 295 295 294 293 294 295 296 296 294 294 292 291 291 289 287 284 287 287 284 287 289 291 293 293 289 294
303 303 303 302 301 297 296 294 292 289 284 286 286 288 287 289 290 290 292 296 295 295 298 298 297 295 294 293 293 295 288 287 287 282 285 277 289 294 294 291 293 294 294 295
303 303 302 301 299 298 296 295 292 290 283 286 286 289 288 289 291 290 291 292 295 299 295 288 286 285 286 284 291 293 294 289 285 283 282 287 289 290 291 290 290 295 294 295
302 302 301 301 299 298 296 294 294 292 286 283 286 287 290 288 286 287 286 293 298 298 292 287 284 282 284 282 284 288 291 293 288 284 282 278 288 293 295 295 284 296 296 296
301 302 301 301 300 298 297 293 294 293 285 286 286 285 287 290 290 287 287 288 289 292 288 286 286 284 288 281 280 281 284 286 284 285 284 288 291 293 295 284 287 294 296 297
301 301 301 300 299 298 297 292 294 293 286 285 286 287 285 287 291 288 287 290 289 287 287 287 286 285 285 285 287 285 284 284 284 285 283 280 293 291 288 294 294 294 294 295
300 300 300 300 299 298 297 292 294 295 287 285 288 288 288 287 287 290 289 290 287 296 289 287 286 284 285 286 281 288 285 289 287 288 288 292 293 293 295 295 296 294 296 295
299 299 299 299 298 297 297 291 291 293 285 287 288 285 289 290 288 289 290 290 293 292 296 290 287 285 290 285 287 287 288 293 290 288 291 291 292 291 292 292 294 293 294 293
299 299 299 298 298 297 295 290 291 291 287 284 284 290 288 290 292 292 292 292 293 293 294 288 285 285 288 289 289 291 290 290 288 288 287 289 290 292 292 290 291 290 289 290
298 299 298 297 297 296 295 294 292 292 287 283 284 286 287 289 291 289 290 290 290 289 287 286 285 287 287 285 288 288 290 290 287 287 291 293 292 292 291 289 289 289 288 287
297 297 296 294 292 291 294 285 291 291 289 286 280 284 284 286 289 288 287 286 285 285 285 285 285 286 287 286 285 287 290 291 293 292 293 292 291 291 292 290 289 288 287 286
296 296 296 295 295 292 285 283 287 290 289 285 280 281 284 285 287 287 286 288 286 287 285 284 284 284 287 286 286 284 285 291 291 289 289 286 288 286 288 286 284 282 280 280
295 295 294 294 293 292 286 288 290 288 286 285 279 278 282 284 283 283 285 284 287 283 284 285 283 284 284 280 278 276 275 284 283 284 288 288 286 284 282 282 282 280 279 279
292 290 289 290 285 284 284 289 287 287 285 278 278 277 276 283 282 283 284 283 281 283 282 281 282 281 277 272 272 270 269 271 272 279 282 282 281 280 280 281 280 278 277 276
288 288 285 280 282 285 285 283 282 278 277 278 274 273 276 280 280 280 281 280 277 277 277 280 281 273 270 269 267 267 267 268 270 280 278 278 277 276 274 273 273 274 273 272
283 281 280 283 283 284 279 273 273 272 272 271 271 273 275 280 278 277 277 277 275 275 276 276 277 275 269 267 265 264 264 266 266 269 270 271 275 273 271 269 267 267 266 265
280 280 278 281 275 276 272 266 269 269 266 268 268 272 274 278 279 279 276 274 274 272 273 276 273 267 262 263 262 261 261 262 262 264 264 265 265 267 267 265 264 263 262 261
281 277 272 273 270 266 266 264 267 268 265 266 266 270 274 279 278 275 275 273 271 272 273 273 268 262 260 259 259 260 259 260 261 261 262 262 261 260 261 260 260 262 260 259
269 270 263 265 265 264 263 263 263 264 264 263 264 267 273 276 275 274 272 269 270 270 268 270 263 257 256 257 257 257 257 257 258 257 259 259 259 258 257 257 257 258 258 258
267 269 261 262 260 261 260 260 261 263 262 263 266 269 271 275 273 271 269 268 268 270 269 263 259 255 255 255 255 254 254 254 255 256 256 256 256 257 257 255 255 256 256 257
264 260 263 260 263 262 261 260 261 262 261 263 264 268 271 271 271 270 269 269 268 267 260 257 257 254 253 253 253 253 253 253 254 255 255 256 255 254 255 255 255 254 255 255
261 257 253 256 259 259 259 257 260 261 260 265 265 269 267 270 269 268 266 267 261 258 256 255 254 254 253 252 252 252 252 252 253 253 254 254 254 254 255 257 256 254 255 254

GFSNW_sfc_thetae_123.txt.gz
Theta_e
307 306 307 306 307 307 299 289 281 297 301 284 283 280 285 290 289 292 290 292 293 290 292 289 290 291 294 299 298 292 291 287 284 288 290 295 294 294 292 288 282 283 282 282
306 306 305 306 307 305 292 284 287 297 298 278 279 284 286 288 287 287 288 289 296 295 292 288 291 293 295 298 297 292 291 285 281 282 287 290 290 292 293 289 286 282 280 282
305 305 306 306 306 305 292 287 281 286 289 287 281 280 282 284 291 289 290 289 296 293 292 293 291 292 294 298 299 296 294 287 285 283 288 288 287 289 291 288 281 282 285 285
304 305 306 306 306 305 292 285 282 283 280 283 284 283 285 283 284 290 292 288 293 292 289 291 290 293 294 298 298 294 291 282 286 287 288 289 290 289 290 289 290 286 289 288
304 305 305 305 306 304 289 282 285 286 285 285 284 283 281 283 285 287 287 287 293 294 291 292 290 293 293 293 292 293 291 282 284 280 287 289 288 291 292 292 292 291 288 288
305 305 304 305 304 300 288 287 288 286 285 284 281 281 282 284 287 290 292 292 293 293 295 297 298 299 296 296 294 292 288 284 281 276 283 284 279 288 290 292 293 292 287 293
305 304 304 304 304 299 290 288 287 285 280 284 282 285 286 286 287 285 292 294 292 297 300 300 297 295 294 297 296 296 286 285 283 278 282 274 284 291 294 292 293 295 295 292
304 304 304 304 301 301 291 289 287 285 281 283 284 285 285 286 287 286 288 291 296 301 297 288 285 284 286 285 289 292 292 286 281 279 272 279 283 286 290 289 289 294 294 295
304 304 303 302 301 300 290 288 289 290 282 283 285 285 286 284 284 285 286 292 296 299 292 285 280 278 281 280 282 287 291 290 284 280 277 275 282 288 292 291 283 293 294 294
303 302 302 301 301 300 291 287 290 288 283 285 285 284 284 286 285 284 285 286 289 291 286 283 281 278 282 280 279 282 283 284 282 282 277 281 284 286 293 279 283 289 292 294
302 301 301 300 300 299 291 287 291 287 284 284 286 286 283 283 286 284 285 287 287 286 284 284 283 280 279 278 282 285 283 282 281 278 275 278 287 288 286 288 286 287 288 289
301 301 300 300 299 299 295 286 292 291 285 285 288 287 287 286 285 283 286 286 285 290 286 285 283 276 279 277 278 286 282 286 283 285 284 287 286 288 289 289 288 288 288 288
301 300 300 300 299 298 293 285 287 288 285 284 285 284 288 290 288 289 284 287 291 289 292 286 285 281 280 276 275 285 284 288 283 284 286 286 288 286 288 289 288 288 288 288
300 300 299 298 297 296 292 285 287 287 285 278 282 290 287 290 291 290 291 290 293 291 290 285 284 282 283 280 282 284 284 286 281 280 283 285 286 288 290 288 287 287 286 286
297 297 297 297 297 294 289 286 286 287 284 277 280 285 287 289 290 289 290 290 288 287 286 285 282 281 281 280 282 280 284 284 285 282 286 288 288 288 287 286 286 286 286 285
298 297 297 297 294 294 285 278 285 287 285 280 274 283 283 285 288 287 286 286 286 286 285 284 283 284 283 281 279 281 280 280 281 282 284 286 286 287 286 286 284 284 285 284
296 296 296 294 293 286 278 276 283 290 286 278 274 276 283 283 285 285 284 287 284 285 284 282 283 282 285 284 279 275 274 274 277 277 280 284 284 284 283 283 281 279 277 277
292 293 293 293 293 288 279 282 289 287 280 278 272 274 277 283 280 280 284 283 284 282 283 283 280 283 284 275 271 270 269 272 275 273 276 279 280 279 278 279 279 276 275 275
292 292 291 283 279 273 275 289 288 282 278 270 269 267 269 280 280 281 282 283 278 283 278 279 281 275 264 264 265 265 264 265 266 269 274 274 274 274 274 274 274 273 272 271
290 282 272 268 272 287 285 274 271 271 268 268 266 271 271 277 276 274 277 279 276 274 276 279 275 265 266 265 263 263 263 264 265 270 271 268 268 268 268 267 269 269 269 268
275 267 266 273 284 272 264 261 264 262 262 263 263 269 268 277 271 272 276 273 275 273 273 274 273 266 264 264 263 262 262 263 263 264 265 266 267 267 265 264 263 263 263 263
271 271 271 268 265 262 262 252 258 259 256 259 258 264 269 270 275 270 271 268 271 270 269 273 270 263 260 260 260 261 260 260 261 262 262 262 262 264 263 262 262 261 262 262
268 264 260 263 259 258 253 251 255 253 255 257 258 259 265 269 273 267 266 264 263 265 269 267 262 260 259 258 258 259 259 259 259 260 260 261 260 260 260 261 262 262 261 262
262 257 256 254 250 251 250 251 251 257 259 257 258 255 264 264 269 266 264 263 264 261 261 262 258 257 257 258 257 257 256 256 257 257 258 258 260 258 258 258 259 261 260 260
255 256 252 251 254 254 254 253 252 255 256 257 255 259 266 264 263 262 261 262 260 262 262 257 256 255 255 255 255 255 255 255 255 256 256 257 257 258 257 257 258 259 260 260
253 252 254 252 251 250 248 245 248 255 258 256 256 254 258 262 262 261 259 258 259 261 255 255 255 255 254 253 253 254 254 255 255 255 255 256 256 255 256 258 257 257 258 258
250 251 245 247 246 249 247 247 250 257 251 251 252 256 257 261 262 260 257 258 255 251 251 252 253 253 253 252 252 252 252 253 254 254 255 255 256 257 258 258 257 256 257 257

GFSNW_sfc_thetae_129.txt.gz
Theta_e
307 309 310 310 308 307 302 292 283 298 300 286 282 276 279 287 287 289 287 287 285 282 284 284 287 287 290 297 297 294 297 289 286 291 289 292 297 295 294 289 284 281 281 282
309 309 309 308 308 305 292 287 285 297 292 278 278 279 283 286 287 287 287 285 286 288 286 283 286 288 295 299 298 295 295 289 284 286 289 292 293 294 296 293 286 284 283 286
309 308 307 307 306 304 292 287 282 286 290 278 278 277 277 280 287 287 288 287 289 287 285 288 285 289 295 298 300 301 297 288 288 284 288 292 289 293 295 294 288 288 288 289
308 307 307 306 305 303 292 284 276 283 280 280 277 275 278 278 280 286 288 284 285 284 280 283 283 288 288 297 299 299 294 288 289 291 292 291 291 293 293 292 293 289 292 288
307 307 306 305 304 301 289 281 281 284 271 281 281 277 272 276 275 283 283 282 286 286 282 284 284 289 292 291 297 296 294 287 285 282 288 291 289 292 293 294 295 294 293 290
307 306 306 305 303 297 286 286 286 284 284 281 281 277 274 279 283 285 287 287 287 285 287 290 292 294 294 293 294 293 290 287 286 284 285 287 284 290 292 293 295 295 291 295
305 305 305 305 302 296 289 287 287 280 278 282 279 282 282 280 282 281 287 288 286 289 296 296 295 293 292 293 290 297 288 287 287 279 285 279 288 294 296 294 295 297 298 296
306 305 305 304 302 300 290 288 288 281 275 283 283 283 281 282 283 284 285 287 289 294 291 286 285 286 286 288 291 295 295 290 281 280 282 282 283 284 292 291 291 298 297 299
305 305 305 305 302 299 290 287 288 284 280 281 283 278 282 276 276 277 282 289 291 292 288 285 281 281 284 282 288 293 295 294 288 282 280 278 288 285 295 293 287 297 299 298
305 305 304 303 301 299 290 286 288 285 280 285 287 283 283 287 285 282 284 286 287 290 285 282 282 281 283 280 282 284 286 286 284 283 280 280 285 287 297 285 288 297 298 300
304 304 303 302 301 299 291 288 290 285 282 285 287 287 285 284 285 282 284 285 284 285 283 284 284 282 282 281 284 286 284 283 282 280 276 279 286 291 289 292 289 287 294 298
303 303 303 301 300 299 294 285 289 289 281 283 289 288 289 286 285 282 283 284 285 286 284 284 284 281 281 281 283 286 283 288 284 285 287 286 292 290 289 290 291 287 289 293
302 302 302 301 300 298 292 285 285 284 282 283 285 283 289 290 287 288 280 284 288 286 288 285 284 281 281 279 278 284 284 287 286 285 285 284 288 286 288 287 287 287 287 288
301 300 300 301 299 296 291 283 284 284 279 274 278 290 287 291 290 287 286 285 287 287 286 284 284 281 283 280 282 283 282 285 280 281 283 285 285 286 287 288 287 286 286 286
299 298 298 297 295 293 288 285 285 285 281 274 275 284 288 289 289 287 287 285 283 284 284 284 283 283 281 280 282 273 275 274 280 280 277 276 283 283 283 288 288 286 285 285
297 297 297 296 295 291 283 275 282 286 284 276 272 282 281 284 285 287 285 286 285 284 284 284 283 284 283 279 271 270 270 271 274 273 274 275 279 282 280 282 285 284 284 284
295 295 295 295 295 283 278 275 281 287 284 275 272 273 281 282 282 284 285 286 284 284 283 282 282 284 283 272 266 266 266 267 271 271 273 278 277 276 277 279 280 278 277 276
294 294 294 293 291 286 276 280 286 284 276 272 266 270 274 280 277 278 284 282 283 282 281 281 278 273 268 260 263 263 263 265 271 267 270 272 274 274 272 274 276 275 274 274
291 290 291 281 275 270 271 288 283 277 274 264 262 261 265 276 276 278 278 282 277 282 276 277 273 263 257 260 260 260 260 260 261 263 270 268 268 269 268 268 268 271 270 270
287 280 274 270 270 283 281 271 268 266 261 262 259 260 262 274 273 272 275 279 276 274 275 277 265 260 262 262 261 261 260 261 261 261 262 262 263 265 266 264 264 265 266 266
271 264 264 271 278 270 262 259 261 257 259 256 254 260 261 270 268 268 275 271 273 273 273 272 266 262 262 261 260 260 260 260 260 261 262 262 262 263 264 263 263 263 263 264
270 269 267 264 262 261 262 250 254 256 254 253 252 259 262 264 272 267 270 268 271 270 269 272 263 262 260 259 259 259 259 258 258 259 259 260 260 260 261 261 262 262 263 264
265 262 259 262 256 259 254 251 254 253 252 252 253 254 259 262 269 264 266 267 266 268 266 262 261 260 259 258 258 257 258 257 258 258 259 259 260 260 259 259 260 262 262 263
258 256 256 254 251 250 246 248 248 254 257 255 256 250 254 259 265 264 262 264 265 264 263 262 259 257 257 257 257 256 255 256 256 256 257 257 258 259 259 259 259 260 260 261
254 256 251 250 251 249 248 247 250 254 254 254 252 253 261 256 259 261 261 263 259 261 261 260 258 257 256 256 255 255 254 254 255 255 256 256 257 257 258 259 259 259 260 260
253 251 251 247 248 248 245 243 246 252 255 254 252 249 254 254 256 259 257 258 260 261 257 257 256 256 255 254 253 253 254 253 253 254 255 255 256 256 257 259 258 258 258 258
251 249 240 243 243 248 245 245 248 255 248 250 248 255 255 255 254 255 256 259 259 255 254 254 254 254 254 253 252 252 251 252 252 252 253 253 255 256 258 256 257 257 258 258

GFSNW_sfc_thetae_132.txt.gz
Theta_e
306 307 307 308 308 308 302 292 285 301 304 287 284 280 280 287 286 288 286 286 284 284 286 285 287 284 288 293 293 289 293 291 285 289 293 298 296 292 292 286 282 281 280 283
307 308 308 308 307 306 295 288 287 297 299 280 282 279 283 285 285 286 285 284 285 287 286 281 286 288 292 293 293 291 292 287 283 285 289 291 292 293 295 292 286 285 283 286
308 308 307 307 307 304 295 290 283 285 286 276 283 276 277 280 287 286 287 285 287 285 284 287 284 286 292 295 294 297 296 288 286 283 288 291 289 292 293 292 286 287 287 289
307 308 307 307 306 304 293 286 283 285 281 275 279 276 278 278 280 285 287 284 284 283 279 282 283 285 286 290 296 295 294 286 289 288 290 292 292 292 292 291 291 287 290 290
308 307 306 305 303 301 289 283 283 280 283 280 280 276 272 277 275 283 282 281 284 285 280 282 280 284 286 287 292 292 295 287 290 286 290 291 289 292 293 293 293 292 292 291
306 306 305 304 303 298 287 286 286 285 283 273 275 275 274 278 283 284 286 285 284 283 284 287 288 289 289 289 287 288 290 289 285 283 288 288 285 290 292 293 295 294 290 295
305 305 305 303 302 297 290 287 286 281 279 276 274 280 281 280 281 280 285 286 285 287 291 291 291 291 290 290 289 291 286 287 287 284 286 278 288 295 295 294 295 297 297 297
305 305 304 303 302 300 290 288 286 280 278 277 277 280 280 280 281 280 283 285 289 291 288 279 274 280 283 286 289 290 290 286 282 282 282 284 285 285 292 291 291 298 297 299
305 305 304 302 301 299 289 287 286 284 280 276 282 277 280 278 280 281 280 287 289 289 284 275 274 275 275 275 284 289 290 289 285 283 281 279 289 288 294 295 286 297 299 298
304 305 303 303 302 300 291 287 286 285 281 285 283 283 282 285 282 279 279 281 286 287 283 278 277 277 282 279 280 283 283 284 283 283 283 284 286 290 297 286 289 298 298 299
305 304 303 302 301 300 291 288 288 285 278 285 288 288 285 285 286 281 281 279 283 284 280 280 279 279 281 281 282 284 285 284 283 285 283 280 287 294 291 296 293 291 297 300
304 303 302 301 301 299 294 285 288 289 283 282 289 288 288 287 287 284 281 279 284 286 282 285 284 281 280 277 279 285 285 289 285 286 286 285 295 292 289 289 292 288 291 293
303 302 301 301 300 298 292 284 284 283 282 282 284 283 289 290 288 288 277 275 285 286 287 283 283 281 279 279 279 285 288 287 287 287 288 285 289 287 287 288 288 288 286 287
302 302 301 299 298 296 291 284 284 283 277 273 275 290 287 291 290 288 287 284 286 286 285 280 280 280 284 280 282 283 278 282 280 281 282 283 283 281 280 282 286 288 288 286
299 299 299 297 296 293 288 284 284 284 281 273 271 283 285 287 288 287 287 284 283 282 280 280 280 285 282 282 280 269 269 267 274 277 273 274 279 278 278 278 282 284 285 285
298 297 297 296 295 290 283 276 282 285 283 276 271 280 278 282 285 284 284 285 284 283 282 283 285 285 283 278 268 266 266 266 268 269 270 271 275 279 276 275 279 280 280 280
296 296 296 296 292 283 278 275 281 287 283 275 271 269 278 280 280 279 285 286 284 283 283 282 281 273 273 265 262 262 263 263 264 267 268 275 274 272 273 274 275 278 276 276
295 295 294 293 291 286 275 280 283 283 274 270 264 267 270 277 273 274 279 280 282 282 280 281 275 267 266 258 261 261 261 261 265 262 264 269 270 271 270 271 271 273 271 272
291 292 288 281 274 270 270 286 281 275 273 263 258 258 263 272 272 275 275 281 277 282 276 275 269 262 257 259 259 259 259 258 258 260 266 263 264 266 267 266 266 267 267 268
288 279 273 268 268 282 280 270 267 265 260 260 256 256 259 271 268 266 271 274 275 273 274 273 263 260 262 261 261 260 259 259 259 257 258 259 259 261 263 263 264 265 265 266
271 266 266 272 277 271 263 259 261 256 258 254 251 255 257 267 262 262 274 268 271 272 272 270 264 261 261 261 260 260 259 259 259 259 260 260 260 259 261 261 262 263 264 264
270 270 267 264 262 262 263 250 253 256 254 251 251 255 259 260 269 264 266 265 269 269 269 269 263 261 260 258 258 258 258 257 258 258 258 259 260 259 259 260 260 262 263 265
264 263 259 262 256 259 254 253 254 252 251 252 252 253 255 257 265 261 262 262 264 267 265 262 261 261 259 258 257 257 257 257 257 257 258 258 259 260 259 258 259 261 262 262
258 257 257 254 251 249 246 248 248 253 256 253 254 248 253 254 259 261 259 261 262 261 261 262 260 258 257 258 257 256 255 255 255 256 256 257 257 258 259 259 259 259 260 261
254 256 251 250 250 248 246 244 246 251 252 254 249 250 259 253 256 257 257 259 255 260 261 260 258 257 257 256 256 255 254 254 254 255 255 255 256 257 258 259 259 259 259 259
253 252 251 245 248 248 244 242 245 250 254 252 251 248 252 252 253 255 252 256 258 260 256 257 257 255 255 254 254 254 253 253 253 253 253 253 254 255 256 259 258 258 258 258
251 248 238 243 243 249 245 244 248 254 248 249 247 255 255 254 251 254 254 257 259 257 254 254 253 253 252 252 252 252 252 252 252 251 250 251 253 254 255 255 256 256 258 258

GFSNW_sfc_thetae_135.txt.gz
Theta_e
307 307 307 307 308 307 299 287 284 302 303 286 286 280 281 288 285 287 286 285 284 284 287 285 284 280 285 289 291 287 292 288 284 289 294 296 296 293 293 287 283 282 280 284
306 307 307 307 308 305 296 287 290 300 298 281 278 280 283 285 285 284 284 283 285 286 284 281 286 288 291 292 289 288 290 287 280 283 289 292 292 294 294 293 286 284 283 286
307 307 307 307 308 304 296 290 283 286 286 280 281 278 278 283 286 285 286 284 286 284 284 285 283 285 290 293 292 296 295 285 284 279 282 290 289 292 293 292 287 287 286 289
307 307 307 306 305 305 298 289 284 284 279 279 278 279 279 281 280 285 285 284 283 283 279 282 282 285 287 289 294 294 292 283 283 286 287 288 290 291 292 290 291 287 289 289
307 307 307 306 305 303 290 285 285 282 276 284 281 279 273 276 279 282 282 281 283 283 280 281 281 284 286 283 288 288 292 280 284 282 287 288 285 288 291 293 292 292 292 291
306 304 304 303 302 298 287 286 286 286 283 283 280 274 275 280 283 284 285 284 283 282 283 285 285 288 287 286 284 286 285 281 282 280 284 286 282 287 288 288 293 293 289 294
304 303 303 302 303 298 290 287 287 285 278 281 277 281 282 281 281 281 284 285 284 286 290 289 288 287 288 288 287 288 280 281 284 280 281 275 286 292 293 290 291 295 296 297
304 304 303 304 301 300 290 288 287 284 277 279 280 280 281 280 281 281 284 285 287 289 287 277 269 269 274 278 286 286 288 283 280 278 277 283 283 288 288 289 289 295 295 297
304 305 304 303 301 300 291 288 289 287 282 276 282 279 280 275 271 273 279 285 287 288 282 272 264 264 267 270 278 286 287 287 282 281 271 272 283 289 293 294 285 296 297 297
305 304 304 304 302 299 293 288 287 287 283 283 282 276 276 278 276 274 277 281 285 285 279 269 265 266 276 269 268 270 282 283 279 280 278 279 287 289 294 284 287 297 298 299
305 304 304 303 302 300 293 287 288 285 283 283 285 284 284 282 278 274 278 281 280 284 275 270 270 268 274 275 279 279 280 281 280 281 278 276 288 288 289 293 298 291 298 300
303 303 302 302 301 300 295 286 287 289 281 281 289 287 285 282 283 281 283 277 284 285 282 282 280 278 279 278 276 283 278 284 282 284 283 288 289 290 284 283 286 288 290 293
302 301 301 300 299 298 292 283 284 283 282 283 284 284 287 290 287 285 277 274 283 284 287 283 280 277 279 272 275 282 283 279 286 286 289 280 285 283 279 279 280 284 286 287
301 300 299 298 298 296 291 283 283 281 275 273 277 289 287 289 289 287 285 283 286 286 285 280 278 272 280 277 280 282 271 271 273 282 278 277 279 276 276 276 278 280 282 284
299 298 297 296 295 293 287 284 283 283 281 272 270 284 286 288 288 287 287 286 284 282 279 277 273 276 280 279 278 266 266 264 265 271 269 267 271 274 274 273 274 276 279 280
298 298 298 297 294 290 283 277 282 285 282 275 269 278 278 285 286 285 283 283 283 283 280 276 280 278 277 277 266 264 264 264 265 264 267 267 268 272 273 272 272 275 278 277
297 296 294 294 292 284 276 274 280 287 282 275 269 266 277 278 278 276 283 285 284 283 282 282 279 270 270 264 263 262 262 262 262 266 264 268 268 266 270 270 271 273 274 274
295 294 293 292 291 285 275 280 281 282 273 270 264 266 269 274 270 269 276 276 278 279 280 278 270 266 265 260 261 261 261 260 263 261 262 265 265 265 266 267 268 269 269 269
293 291 287 280 273 270 270 285 281 274 273 262 258 259 263 270 269 271 270 274 270 280 276 272 269 263 259 260 259 259 259 257 258 259 261 262 261 261 262 263 264 264 265 267
288 281 274 268 267 282 281 270 267 265 260 259 254 253 259 269 266 261 264 265 266 267 272 271 264 261 262 261 260 260 259 258 258 256 257 257 258 259 259 260 261 262 264 265
270 264 264 270 277 270 262 259 261 256 257 253 250 253 254 265 260 257 271 261 261 263 269 270 263 261 262 260 259 259 259 258 258 258 258 259 259 258 258 259 260 261 263 263
269 269 267 264 262 261 262 249 253 255 254 251 251 255 257 257 267 260 262 260 261 260 264 266 262 262 260 259 258 258 258 257 257 258 257 258 258 259 259 259 259 260 262 263
266 264 261 263 258 260 256 255 254 253 250 252 251 253 255 256 263 257 259 258 259 259 259 260 261 261 260 258 258 257 258 257 257 257 257 258 258 259 259 258 259 260 261 261
259 257 257 255 253 251 247 249 248 252 254 250 253 246 251 252 257 260 258 258 258 253 254 258 259 259 258 259 258 256 256 256 255 255 256 256 256 257 259 259 259 259 259 260
254 257 252 250 249 246 244 243 245 250 251 252 248 249 257 251 255 255 254 256 251 255 257 257 257 258 258 257 256 256 255 255 254 255 254 255 255 256 257 259 258 258 259 259
253 252 251 244 247 248 243 241 244 249 253 251 250 248 252 252 252 255 251 253 254 257 252 252 254 255 255 255 255 254 254 254 254 254 254 254 254 254 255 257 256 256 257 258
251 249 237 243 244 250 245 243 246 253 247 249 246 254 255 252 251 253 252 254 255 255 254 252 253 253 253 253 252 253 252 252 253 252 253 253 253 254 255 253 254 254 256 256

GFSNW_sfc_thetae_138.txt.gz
Theta_e
305 306 306 307 308 307 300 290 285 299 301 287 286 284 285 291 289 292 290 290 289 287 287 285 285 285 288 294 294 289 293 289 284 288 294 297 297 293 293 286 284 288 288 289
306 306 306 308 307 306 294 289 289 301 300 283 283 285 286 289 288 289 288 288 290 291 287 284 287 288 293 295 293 291 293 287 281 284 289 293 291 294 295 293 290 288 285 289
306 307 306 307 307 305 297 288 284 288 290 289 285 284 285 284 289 288 288 288 291 289 287 288 286 288 293 295 294 296 296 288 284 281 286 289 288 291 294 293 286 288 289 292
307 306 307 307 306 305 299 291 284 285 281 284 286 285 286 284 284 288 289 286 288 287 284 284 286 289 290 293 296 294 292 284 287 288 288 288 288 287 288 290 291 287 292 293
307 307 307 306 306 303 292 288 287 287 285 287 286 286 285 282 283 286 285 285 287 286 285 286 284 288 288 286 292 291 293 285 285 282 286 286 285 287 289 290 288 291 294 293
307 307 307 307 305 300 292 290 291 291 286 286 285 284 282 284 286 287 288 288 287 285 286 290 291 290 290 290 289 289 288 287 284 280 285 285 281 286 288 290 292 290 286 295
306 305 306 306 304 299 295 292 293 288 282 285 283 285 286 285 285 285 287 289 287 289 294 294 292 291 290 290 289 290 285 284 284 280 282 274 286 292 293 291 293 294 294 296
304 304 304 304 303 299 292 291 293 288 282 283 284 285 283 285 286 285 287 288 292 293 290 283 279 278 278 280 287 288 289 284 280 277 278 281 283 286 289 290 290 296 295 296
304 303 302 302 301 299 291 289 293 290 285 282 286 283 286 283 282 283 284 290 292 292 286 280 275 274 274 277 281 287 287 287 282 280 275 273 283 289 293 293 284 296 297 298
305 305 303 301 300 299 293 289 291 291 283 285 286 283 283 285 284 282 283 285 287 290 282 277 275 276 279 276 275 279 281 282 279 279 277 281 288 292 296 283 284 295 297 299
303 303 303 304 301 299 293 288 290 290 285 285 288 287 284 285 286 283 283 285 284 284 280 279 279 278 280 279 281 279 280 280 280 281 278 275 292 291 286 283 285 288 286 293
303 302 302 302 301 300 296 289 289 292 286 285 289 288 288 285 287 285 284 283 284 287 283 283 282 280 281 280 277 285 279 283 282 285 284 292 288 283 279 279 279 280 280 284
301 301 301 300 299 298 293 287 286 289 285 286 287 284 289 291 288 289 284 283 287 288 289 286 284 279 282 279 279 282 285 280 283 285 288 288 280 281 278 275 276 277 278 279
299 299 298 298 297 295 292 285 286 287 284 281 281 290 287 291 290 289 289 287 287 288 287 283 281 280 284 281 282 282 275 275 274 277 283 275 281 276 273 274 275 275 275 276
299 299 298 296 294 292 288 286 286 286 287 279 281 285 287 289 290 288 288 287 285 284 281 280 278 281 281 283 282 279 267 265 270 276 268 267 269 272 271 272 272 273 273 273
297 297 296 295 293 290 288 285 286 287 286 283 279 281 282 284 287 286 284 284 284 284 281 281 282 276 278 278 271 264 265 266 266 264 266 266 267 270 272 268 270 270 271 273
296 295 294 293 291 285 280 279 282 288 285 283 278 277 278 277 280 283 283 284 284 284 282 282 277 272 273 269 269 264 264 264 263 264 264 265 268 265 267 268 268 269 269 271
294 293 292 291 289 286 280 282 281 283 278 278 273 273 276 275 276 277 278 280 283 282 282 276 271 270 269 265 263 262 262 262 263 262 262 262 264 265 264 265 265 265 266 267
293 290 287 282 276 276 277 285 281 275 278 271 268 272 272 272 272 274 276 278 277 282 276 272 272 267 266 262 261 260 260 258 258 259 260 261 260 260 261 262 262 262 263 265
287 282 278 273 274 282 280 274 274 269 264 264 261 258 268 269 269 270 272 271 274 273 272 272 267 264 263 261 261 261 260 259 259 256 257 257 257 258 259 259 261 261 261 263
274 272 272 274 277 275 268 266 267 262 265 259 256 259 263 267 267 266 271 269 268 269 270 270 265 264 264 262 261 261 260 260 259 259 259 259 258 258 258 259 260 260 261 262
272 271 270 269 266 267 267 256 259 261 261 257 260 260 261 262 266 266 267 268 267 267 267 269 264 264 261 260 260 259 259 258 258 258 258 258 258 258 259 259 259 259 261 262
270 267 264 268 262 263 261 258 260 261 256 255 255 260 258 261 265 263 264 266 267 264 265 265 264 262 261 260 259 259 259 258 258 257 258 258 258 258 258 259 259 259 260 261
263 263 261 259 259 257 256 258 257 257 257 255 256 254 257 258 262 263 265 264 263 262 262 263 262 260 259 260 259 258 257 257 257 257 256 256 256 256 258 259 259 258 258 260
259 261 257 255 253 251 249 247 250 254 254 255 255 255 259 259 260 260 261 262 261 261 264 264 261 259 259 258 258 257 257 256 256 256 256 256 256 256 257 258 258 258 258 259
257 255 255 248 254 254 250 249 252 253 255 254 254 255 259 258 258 260 260 261 261 264 262 261 258 256 256 256 255 256 255 255 255 256 255 255 255 255 255 257 257 256 257 257
256 253 243 250 252 257 254 251 253 254 253 258 254 258 259 257 258 259 257 261 263 261 260 258 257 257 256 255 254 254 253 254 254 254 254 254 255 255 256 254 255 255 256 256

GFSNW_sfc_thetae_141.txt.gz
Theta_e
304 304 304 305 305 306 303 295 284 301 302 286 285 284 286 290 291 295 292 291 290 288 289 287 288 287 290 296 295 290 293 289 284 287 294 296 295 292 292 286 284 288 287 288
305 305 305 305 306 306 298 289 288 300 298 282 284 285 287 291 291 291 291 289 291 291 288 284 289 290 295 295 294 291 293 287 281 283 288 293 290 293 293 293 292 285 284 287
305 305 305 306 306 307 298 291 284 288 291 291 287 285 286 287 294 291 292 291 292 290 288 290 287 288 292 295 295 296 296 289 285 281 284 290 287 290 291 291 285 286 288 291
306 306 305 306 307 306 301 293 285 285 282 284 289 289 287 286 285 291 293 290 291 289 285 287 286 289 291 294 296 295 293 284 287 288 289 289 288 288 289 287 290 285 289 291
307 307 306 306 306 305 298 289 288 291 287 288 288 288 286 286 287 289 287 289 291 291 287 288 286 290 290 289 293 292 293 285 285 282 287 287 285 288 288 289 289 288 288 287
305 305 306 305 305 305 294 295 298 293 288 287 286 287 287 287 289 288 292 292 289 289 291 293 295 295 293 292 291 290 289 287 284 280 286 285 280 285 286 288 290 289 285 292
306 306 306 306 304 303 298 299 299 292 284 288 287 289 289 288 289 286 290 292 289 291 296 295 293 291 290 290 290 293 287 285 285 280 282 274 285 291 291 289 291 293 293 295
306 306 305 305 304 300 298 297 299 294 285 288 287 288 287 288 289 287 288 290 294 296 291 286 282 281 281 282 287 288 289 287 281 277 278 281 283 285 285 286 287 294 294 296
305 305 304 303 300 299 296 293 297 295 287 287 289 287 287 285 284 285 287 292 295 294 288 285 278 276 279 278 282 288 287 287 282 280 274 272 282 288 292 291 282 292 293 294
303 303 302 301 300 300 297 292 295 294 285 287 290 287 285 290 288 284 285 287 288 292 285 281 279 278 281 277 278 280 280 281 278 278 276 281 288 291 293 282 282 285 286 286
303 303 302 300 300 299 295 291 295 293 285 285 288 288 287 288 291 285 285 287 286 285 283 282 281 280 280 280 281 282 280 279 279 279 277 275 290 292 285 282 282 281 281 282
302 302 301 301 300 300 298 290 292 295 287 285 289 289 289 287 288 289 286 286 286 288 286 286 286 281 282 282 277 285 279 283 282 284 283 288 284 283 280 277 276 277 277 278
300 300 300 299 298 298 296 289 289 293 286 286 287 285 290 292 292 293 286 286 290 288 291 289 285 281 285 280 281 283 286 284 283 284 287 280 282 279 276 275 274 276 276 276
299 298 297 297 297 296 294 288 289 292 287 283 282 290 287 291 293 293 292 289 290 290 291 286 283 282 286 282 283 283 278 278 278 279 283 275 281 275 273 272 274 273 274 274
297 297 297 296 295 295 292 291 290 290 290 280 282 286 287 289 290 290 291 290 288 286 284 283 281 284 283 284 283 281 271 269 274 278 270 268 270 272 271 270 269 270 270 270
296 296 295 294 293 291 295 286 290 287 290 286 279 283 280 282 287 286 285 287 286 286 285 283 283 279 280 279 279 267 268 268 268 267 268 267 268 270 271 267 268 268 268 269
294 293 293 293 292 287 283 282 283 286 289 285 280 279 278 279 284 284 284 285 284 286 284 282 282 278 279 276 274 266 266 266 266 267 265 265 267 264 266 267 267 267 266 268
294 291 289 289 291 290 285 285 285 286 286 285 280 276 279 277 280 280 282 282 284 283 283 279 277 274 274 271 265 264 264 264 265 264 263 263 264 264 264 264 264 263 263 265
292 291 289 287 282 283 282 286 284 280 283 277 277 278 275 276 275 278 280 281 277 283 280 276 276 272 270 266 264 262 261 260 260 261 260 261 260 260 261 261 261 261 261 263
288 288 286 282 278 282 283 283 283 275 272 272 266 265 271 273 274 274 276 277 278 275 275 274 272 272 264 263 263 262 261 260 259 256 258 258 258 258 259 260 261 261 261 261
284 282 279 279 280 283 279 273 273 269 270 264 262 263 268 270 271 271 273 273 274 272 272 272 270 269 266 263 262 262 261 260 259 259 259 259 259 258 259 259 261 261 260 261
278 278 276 279 275 278 273 264 267 266 264 263 264 263 264 267 269 270 270 271 271 270 271 271 268 266 262 261 260 260 260 259 258 259 259 259 259 259 259 259 260 260 260 261
279 278 273 276 270 268 270 266 267 267 262 260 261 265 263 266 268 268 269 268 270 269 269 269 269 264 262 260 259 259 259 259 259 259 259 259 259 259 259 258 260 259 259 260
272 273 267 267 268 264 265 265 264 260 262 260 261 262 264 264 267 267 268 267 266 266 265 267 266 263 260 260 260 258 259 258 258 258 258 258 258 258 259 259 259 258 258 259
268 271 264 262 257 257 256 254 257 258 259 260 261 260 263 265 265 265 266 265 265 267 268 267 265 261 260 259 259 258 258 256 257 258 257 257 257 257 257 258 258 258 258 258
265 263 261 255 261 260 258 258 260 258 259 258 259 263 264 265 264 264 266 265 265 267 267 265 261 258 258 257 257 257 256 256 256 256 256 256 256 255 256 257 257 256 257 256
265 259 255 260 262 264 261 260 259 258 258 264 262 263 264 261 263 264 264 266 267 266 264 263 261 260 259 257 256 256 255 255 254 254 254 254 255 255 256 255 256 255 257 256

GFSNW_sfc_thetae_144.txt.gz
Theta_e
304 305 305 306 306 306 302 293 284 301 303 286 285 283 286 290 289 294 292 291 289 287 288 286 286 285 289 295 294 288 291 288 281 284 291 293 291 288 288 281 279 282 283 282
304 304 305 305 306 306 297 286 288 301 298 280 283 285 286 288 288 290 290 289 291 291 288 284 288 289 293 295 293 290 291 285 278 279 285 289 288 290 291 290 288 282 280 283
304 304 305 305 306 306 293 286 283 288 291 288 285 284 284 285 292 291 292 290 291 290 287 289 286 288 292 293 293 296 295 287 282 277 281 286 284 287 289 288 283 284 285 286
305 304 305 305 306 305 295 286 285 286 281 283 286 287 286 285 285 291 292 289 289 288 284 285 285 288 289 292 294 293 291 279 285 286 287 286 285 286 287 286 287 283 285 286
305 305 305 305 305 305 295 287 287 287 285 287 285 286 286 285 285 288 288 287 289 289 286 287 284 288 288 287 291 290 292 282 284 279 285 286 284 286 286 286 287 287 287 286
305 305 305 305 305 304 294 296 295 291 288 286 285 286 287 287 288 289 292 291 289 288 289 292 292 293 292 292 289 288 288 283 281 276 282 283 278 282 284 285 286 286 283 288
305 305 306 306 306 303 299 297 295 289 283 286 286 288 288 287 287 287 291 293 289 290 294 293 290 289 290 290 290 292 285 284 283 276 276 267 281 287 286 285 287 288 289 290
306 305 306 306 306 305 299 298 296 290 285 287 288 288 287 288 288 286 288 289 292 293 290 284 276 276 276 276 284 286 289 285 273 270 268 276 280 282 282 280 281 287 287 284
306 306 306 306 305 302 296 295 295 293 287 286 289 286 287 284 283 284 286 291 293 293 287 278 269 267 269 268 273 285 286 286 276 268 264 263 278 284 287 286 278 283 283 282
303 303 303 302 303 303 297 294 296 293 286 287 290 285 285 288 286 283 285 285 286 289 281 273 271 270 277 269 272 271 271 271 272 269 266 272 283 286 289 273 276 279 279 279
303 302 302 302 302 303 296 291 295 291 284 284 286 286 284 285 286 283 285 284 284 281 275 275 274 272 274 275 279 278 274 271 268 269 265 268 283 286 281 274 276 275 275 276
301 302 302 301 301 300 298 290 293 293 286 285 290 289 290 288 286 287 285 283 282 285 281 279 277 272 275 273 268 282 273 281 276 278 276 280 279 275 274 273 272 273 273 273
299 300 300 301 301 300 296 290 289 291 285 285 285 284 289 292 292 292 283 285 289 287 288 285 281 272 279 271 273 277 280 279 279 280 279 274 276 274 272 271 271 272 272 271
298 298 298 300 300 298 294 287 288 291 286 280 280 289 286 290 293 291 290 288 289 288 286 281 275 273 281 276 278 277 275 277 273 275 275 276 274 272 270 270 270 270 270 269
296 296 296 297 298 297 291 288 286 287 287 280 280 284 284 287 288 288 289 287 284 281 277 275 273 279 276 277 277 273 268 268 273 271 268 267 269 269 269 267 267 268 267 267
294 294 295 294 295 294 291 285 286 285 286 284 276 281 279 282 286 285 284 285 285 285 279 281 279 276 276 269 267 266 268 268 268 267 267 266 267 269 268 265 266 266 266 266
295 293 294 293 292 285 280 279 281 286 285 281 278 277 278 278 282 284 284 285 282 279 277 280 279 273 272 276 269 266 265 266 266 266 264 266 266 263 265 265 265 265 264 265
293 293 290 291 292 290 281 283 286 285 284 284 274 273 277 277 276 277 282 281 282 281 279 278 270 268 267 268 262 261 262 262 264 262 262 262 263 263 262 263 263 261 261 262
291 291 289 285 279 278 278 287 286 280 279 272 270 269 266 274 274 276 275 281 272 280 274 272 270 267 262 260 260 256 256 256 256 257 256 255 256 258 258 259 259 259 260 261
290 286 281 275 276 284 284 279 276 272 268 268 261 262 262 270 271 267 269 272 276 272 270 271 267 264 260 259 257 257 255 254 253 251 252 251 251 252 255 254 256 259 259 260
281 276 273 278 282 279 274 266 265 264 261 260 258 258 261 267 263 262 272 265 268 264 265 265 263 261 262 259 256 256 256 254 253 252 251 252 253 254 255 255 257 258 259 259
273 275 275 275 273 271 266 258 261 260 256 257 257 259 260 262 266 263 264 263 264 261 263 263 259 261 257 256 255 255 254 253 252 252 252 253 254 255 255 256 257 258 259 260
275 272 267 269 266 264 260 258 259 257 256 254 254 256 259 260 265 260 262 260 260 261 261 261 262 260 258 255 254 252 252 252 252 253 255 255 256 257 257 257 258 258 258 259
268 266 262 261 258 257 254 255 254 256 258 255 256 255 257 257 260 262 258 259 260 257 257 259 258 257 255 255 254 252 252 253 254 256 257 255 255 255 255 256 257 256 255 257
263 264 256 254 253 252 250 249 251 254 255 256 254 254 262 257 257 259 258 256 255 260 261 259 257 255 255 254 254 252 253 254 253 254 253 253 253 252 252 252 254 254 254 255
260 258 255 251 254 252 250 251 251 254 257 254 253 254 255 255 256 256 254 256 257 260 257 255 254 252 252 252 253 254 253 252 252 251 251 250 248 248 248 249 249 250 253 254
257 252 252 254 256 255 252 253 252 255 252 254 254 254 256 255 253 254 256 256 258 256 255 255 254 253 251 253 253 254 253 253 252 251 249 247 246 245 246 246 247 247 251 251

GFSNW_sfc_thetae_147.txt.gz
Theta_e
302 304 304 306 305 305 300 291 282 298 302 286 285 283 284 289 288 292 292 290 286 286 287 286 286 284 288 293 292 287 289 286 278 282 288 290 291 288 288 282 277 280 281 281
303 304 304 306 306 304 294 285 286 299 297 281 282 285 285 288 287 288 289 287 288 289 287 284 287 287 292 293 292 289 290 283 271 276 283 286 285 287 288 287 284 280 277 279
304 304 305 305 306 304 291 285 277 288 291 287 281 283 280 282 290 288 290 289 289 288 287 288 286 287 291 292 292 295 294 285 280 276 278 284 283 286 288 287 281 281 282 284
304 304 305 305 306 303 291 284 282 285 281 283 284 285 284 282 283 290 290 287 288 287 284 285 285 288 289 290 294 293 290 278 283 283 285 284 283 284 285 284 286 281 284 284
304 305 305 305 305 303 290 284 285 287 284 284 285 285 282 282 284 287 285 285 289 289 285 286 283 288 287 287 290 290 290 281 283 277 284 284 283 284 285 285 286 285 285 285
304 304 304 305 305 301 290 292 294 289 286 280 282 283 285 283 287 288 289 289 288 287 289 290 292 293 292 290 289 287 286 282 278 269 281 280 273 280 283 284 286 285 281 287
304 304 304 305 304 301 293 292 293 287 282 282 282 285 286 285 287 286 290 292 287 289 294 293 291 287 288 289 289 290 282 281 279 270 272 269 280 284 284 284 286 287 287 286
304 304 305 305 305 304 295 293 290 288 284 284 285 286 287 288 290 286 287 288 290 294 291 285 280 278 279 279 283 288 288 282 277 275 266 273 277 281 280 279 278 281 281 280
304 305 305 305 306 305 294 290 293 291 285 284 288 285 287 285 284 283 285 290 292 292 286 280 273 273 274 274 277 285 287 286 277 261 261 262 276 281 284 284 275 278 277 276
305 305 305 305 305 304 293 290 294 291 285 285 288 285 285 288 284 282 283 284 285 288 280 276 272 269 276 270 270 272 270 269 272 260 261 269 279 283 287 272 274 275 274 274
304 304 305 305 305 302 293 288 295 290 283 284 286 285 282 285 284 283 285 284 284 281 278 277 276 270 275 272 277 275 273 269 265 263 261 266 278 281 280 274 273 273 272 272
303 303 303 304 305 303 298 289 293 294 286 285 289 289 290 288 287 285 284 282 281 284 280 279 276 272 270 270 268 281 273 277 273 275 274 275 274 272 272 272 271 271 270 270
300 302 302 302 302 303 297 290 289 290 284 284 284 284 289 290 290 292 285 284 289 287 288 282 278 272 275 269 270 276 278 279 278 277 275 272 271 270 271 271 270 270 270 269
298 300 301 301 301 299 294 287 287 289 285 278 280 289 285 287 291 291 291 289 290 287 284 278 271 273 280 275 277 276 274 276 273 273 272 270 270 269 269 269 269 269 269 268
296 297 300 299 298 296 290 287 286 287 286 277 279 284 283 286 288 288 289 287 284 281 278 274 274 276 276 274 275 270 266 269 273 272 268 268 269 268 267 266 266 266 266 266
295 295 297 298 298 295 291 285 287 286 285 283 275 281 279 281 285 285 284 285 282 281 279 279 278 277 274 265 263 265 267 267 267 266 267 267 267 268 266 265 265 265 265 265
294 293 294 294 292 285 282 282 283 287 286 282 277 276 279 278 281 282 282 283 278 278 274 278 271 271 271 267 264 265 265 265 265 265 266 265 264 263 264 264 264 264 263 264
293 292 292 292 292 288 279 283 285 285 283 280 271 273 274 277 275 274 280 277 276 279 277 277 267 268 264 269 261 260 262 262 262 261 262 262 262 262 262 262 262 260 261 261
292 291 291 281 276 273 274 287 285 277 276 267 265 266 266 272 272 275 275 276 271 280 270 271 268 260 263 263 261 258 256 258 259 256 254 255 255 256 256 257 257 257 259 259
290 281 274 271 270 285 283 273 270 268 262 262 257 258 261 268 268 265 267 274 267 265 266 269 260 262 257 257 255 256 255 254 253 253 252 250 249 250 251 251 251 253 255 257
275 267 267 273 283 273 265 261 264 259 259 258 255 257 258 266 262 260 271 263 266 260 263 263 256 259 262 258 255 255 256 255 251 251 251 250 250 250 249 251 250 252 252 253
269 270 271 269 267 264 264 253 257 257 256 254 255 257 258 259 264 260 262 259 261 259 259 259 256 262 256 255 255 254 255 255 253 252 252 250 250 250 251 251 251 252 252 253
268 266 263 266 262 262 257 255 256 255 250 250 251 255 257 259 262 257 259 258 257 257 257 258 261 258 254 251 251 250 250 250 251 251 251 251 251 251 252 251 251 250 250 252
265 261 261 258 253 252 250 252 251 253 254 251 252 250 255 252 258 257 256 258 258 254 255 258 256 256 254 253 252 252 250 249 250 250 251 251 251 250 249 249 249 248 248 249
259 260 256 252 249 246 245 243 248 250 250 253 252 251 260 252 255 255 255 255 252 257 259 257 257 253 255 254 252 252 252 252 254 255 253 252 250 248 247 247 245 245 245 245
255 254 252 246 250 248 245 244 246 249 254 251 251 249 252 251 252 253 253 253 254 259 254 254 251 251 251 251 250 251 251 253 252 252 251 251 250 248 247 244 244 244 243 245
253 251 243 249 248 252 248 247 249 252 250 252 248 253 254 253 250 252 254 255 257 255 251 250 251 253 252 249 249 249 252 253 254 253 250 249 245 242 244 246 246 243 244 243